<?xml version="1.0" encoding="UTF-8" standalone="no" ?>
<gpx xmlns="http://www.topografix.com/GPX/1/1" xmlns:xsi="http://www.w3.org/2001/XMLSchema-instance" xsi:schemaLocation="http://www.topografix.com/GPX/1/1 http://www.topografix.com/GPX/1/1/gpx.xsd" version="1.1" creator="VisuGPX - https://www.visugpx.com">
  <metadata>
    <name>Trail des Citadelles 2014</name>
    <desc><![CDATA[Trail des Citadelles 2014- 20 kms]]></desc>
  </metadata>
  <trk>
    <name><![CDATA[Trail]]></name>
    <cmt><![CDATA[Trail des Citadelles]]></cmt>
    <trkseg>
      <trkpt lat="42.93442" lon="1.84957">
        <ele>528.86254882812</ele>
        <time>2014-04-20T07:29:46Z</time>
      </trkpt>
      <trkpt lat="42.9344" lon="1.84956">
        <ele>528.86254882812</ele>
        <time>2014-04-20T07:29:51Z</time>
      </trkpt>
      <trkpt lat="42.93423" lon="1.84943">
        <ele>525.01721191406</ele>
        <time>2014-04-20T07:29:57Z</time>
      </trkpt>
      <trkpt lat="42.93407" lon="1.84928">
        <ele>522.13317871094</ele>
        <time>2014-04-20T07:30:02Z</time>
      </trkpt>
      <trkpt lat="42.93392" lon="1.84917">
        <ele>521.65258789062</ele>
        <time>2014-04-20T07:30:07Z</time>
      </trkpt>
      <trkpt lat="42.93373" lon="1.84904">
        <ele>523.09460449219</ele>
        <time>2014-04-20T07:30:13Z</time>
      </trkpt>
      <trkpt lat="42.93356" lon="1.84891">
        <ele>523.09460449219</ele>
        <time>2014-04-20T07:30:19Z</time>
      </trkpt>
      <trkpt lat="42.93336" lon="1.84878">
        <ele>524.53649902344</ele>
        <time>2014-04-20T07:30:26Z</time>
      </trkpt>
      <trkpt lat="42.93325" lon="1.84872">
        <ele>526.45910644531</ele>
        <time>2014-04-20T07:30:30Z</time>
      </trkpt>
      <trkpt lat="42.93309" lon="1.84866">
        <ele>527.90100097656</ele>
        <time>2014-04-20T07:30:35Z</time>
      </trkpt>
      <trkpt lat="42.93291" lon="1.8486">
        <ele>529.34313964844</ele>
        <time>2014-04-20T07:30:41Z</time>
      </trkpt>
      <trkpt lat="42.93275" lon="1.84854">
        <ele>530.30444335938</ele>
        <time>2014-04-20T07:30:46Z</time>
      </trkpt>
      <trkpt lat="42.93267" lon="1.84848">
        <ele>530.30444335938</ele>
        <time>2014-04-20T07:30:49Z</time>
      </trkpt>
      <trkpt lat="42.93261" lon="1.84846">
        <ele>530.30444335938</ele>
        <time>2014-04-20T07:30:51Z</time>
      </trkpt>
      <trkpt lat="42.93245" lon="1.84855">
        <ele>529.82373046875</ele>
        <time>2014-04-20T07:30:57Z</time>
      </trkpt>
      <trkpt lat="42.93232" lon="1.8486">
        <ele>530.30444335938</ele>
        <time>2014-04-20T07:31:01Z</time>
      </trkpt>
      <trkpt lat="42.93213" lon="1.84855">
        <ele>528.86254882812</ele>
        <time>2014-04-20T07:31:07Z</time>
      </trkpt>
      <trkpt lat="42.93198" lon="1.84849">
        <ele>530.30444335938</ele>
        <time>2014-04-20T07:31:12Z</time>
      </trkpt>
      <trkpt lat="42.93192" lon="1.84847">
        <ele>531.26574707031</ele>
        <time>2014-04-20T07:31:14Z</time>
      </trkpt>
      <trkpt lat="42.93177" lon="1.84839">
        <ele>532.70776367188</ele>
        <time>2014-04-20T07:31:19Z</time>
      </trkpt>
      <trkpt lat="42.93175" lon="1.84837">
        <ele>533.18835449219</ele>
        <time>2014-04-20T07:31:20Z</time>
      </trkpt>
      <trkpt lat="42.93159" lon="1.84832">
        <ele>536.07238769531</ele>
        <time>2014-04-20T07:31:25Z</time>
      </trkpt>
      <trkpt lat="42.93147" lon="1.84835">
        <ele>537.51428222656</ele>
        <time>2014-04-20T07:31:29Z</time>
      </trkpt>
      <trkpt lat="42.93137" lon="1.8484">
        <ele>537.51428222656</ele>
        <time>2014-04-20T07:31:33Z</time>
      </trkpt>
      <trkpt lat="42.9313" lon="1.84839">
        <ele>537.51428222656</ele>
        <time>2014-04-20T07:31:36Z</time>
      </trkpt>
      <trkpt lat="42.93115" lon="1.84837">
        <ele>539.43688964844</ele>
        <time>2014-04-20T07:31:41Z</time>
      </trkpt>
      <trkpt lat="42.93104" lon="1.84839">
        <ele>540.39831542969</ele>
        <time>2014-04-20T07:31:45Z</time>
      </trkpt>
      <trkpt lat="42.9309" lon="1.8484">
        <ele>542.32092285156</ele>
        <time>2014-04-20T07:31:50Z</time>
      </trkpt>
      <trkpt lat="42.93077" lon="1.84841">
        <ele>546.16625976562</ele>
        <time>2014-04-20T07:31:54Z</time>
      </trkpt>
      <trkpt lat="42.93059" lon="1.84838">
        <ele>550.4921875</ele>
        <time>2014-04-20T07:31:59Z</time>
      </trkpt>
      <trkpt lat="42.93048" lon="1.84836">
        <ele>553.85668945312</ele>
        <time>2014-04-20T07:32:02Z</time>
      </trkpt>
      <trkpt lat="42.93029" lon="1.84828">
        <ele>556.74072265625</ele>
        <time>2014-04-20T07:32:08Z</time>
      </trkpt>
      <trkpt lat="42.93015" lon="1.84823">
        <ele>555.29858398438</ele>
        <time>2014-04-20T07:32:13Z</time>
      </trkpt>
      <trkpt lat="42.93003" lon="1.84811">
        <ele>552.89526367188</ele>
        <time>2014-04-20T07:32:18Z</time>
      </trkpt>
      <trkpt lat="42.92992" lon="1.84798">
        <ele>550.4921875</ele>
        <time>2014-04-20T07:32:23Z</time>
      </trkpt>
      <trkpt lat="42.92979" lon="1.84788">
        <ele>550.01147460938</ele>
        <time>2014-04-20T07:32:28Z</time>
      </trkpt>
      <trkpt lat="42.92963" lon="1.84773">
        <ele>547.12744140625</ele>
        <time>2014-04-20T07:32:34Z</time>
      </trkpt>
      <trkpt lat="42.9295" lon="1.84764">
        <ele>547.60815429688</ele>
        <time>2014-04-20T07:32:39Z</time>
      </trkpt>
      <trkpt lat="42.92935" lon="1.84754">
        <ele>547.60815429688</ele>
        <time>2014-04-20T07:32:45Z</time>
      </trkpt>
      <trkpt lat="42.92917" lon="1.84738">
        <ele>548.5693359375</ele>
        <time>2014-04-20T07:32:52Z</time>
      </trkpt>
      <trkpt lat="42.92903" lon="1.84728">
        <ele>547.60815429688</ele>
        <time>2014-04-20T07:32:57Z</time>
      </trkpt>
      <trkpt lat="42.9289" lon="1.84718">
        <ele>546.64685058594</ele>
        <time>2014-04-20T07:33:02Z</time>
      </trkpt>
      <trkpt lat="42.92876" lon="1.84709">
        <ele>545.20483398438</ele>
        <time>2014-04-20T07:33:07Z</time>
      </trkpt>
      <trkpt lat="42.92865" lon="1.84702">
        <ele>545.20483398438</ele>
        <time>2014-04-20T07:33:11Z</time>
      </trkpt>
      <trkpt lat="42.92851" lon="1.84694">
        <ele>545.20483398438</ele>
        <time>2014-04-20T07:33:16Z</time>
      </trkpt>
      <trkpt lat="42.9284" lon="1.84684">
        <ele>544.72424316406</ele>
        <time>2014-04-20T07:33:20Z</time>
      </trkpt>
      <trkpt lat="42.92827" lon="1.84674">
        <ele>543.76281738281</ele>
        <time>2014-04-20T07:33:25Z</time>
      </trkpt>
      <trkpt lat="42.92813" lon="1.84665">
        <ele>541.84020996094</ele>
        <time>2014-04-20T07:33:30Z</time>
      </trkpt>
      <trkpt lat="42.92803" lon="1.84659">
        <ele>541.35949707031</ele>
        <time>2014-04-20T07:33:34Z</time>
      </trkpt>
      <trkpt lat="42.92791" lon="1.84654">
        <ele>542.80151367188</ele>
        <time>2014-04-20T07:33:39Z</time>
      </trkpt>
      <trkpt lat="42.92779" lon="1.84648">
        <ele>543.28210449219</ele>
        <time>2014-04-20T07:33:44Z</time>
      </trkpt>
      <trkpt lat="42.92762" lon="1.84641">
        <ele>543.76281738281</ele>
        <time>2014-04-20T07:33:51Z</time>
      </trkpt>
      <trkpt lat="42.92751" lon="1.84639">
        <ele>543.28210449219</ele>
        <time>2014-04-20T07:33:56Z</time>
      </trkpt>
      <trkpt lat="42.92739" lon="1.84633">
        <ele>542.32092285156</ele>
        <time>2014-04-20T07:34:00Z</time>
      </trkpt>
      <trkpt lat="42.92736" lon="1.84631">
        <ele>542.32092285156</ele>
        <time>2014-04-20T07:34:01Z</time>
      </trkpt>
      <trkpt lat="42.92719" lon="1.84634">
        <ele>546.16625976562</ele>
        <time>2014-04-20T07:34:07Z</time>
      </trkpt>
      <trkpt lat="42.92703" lon="1.8464">
        <ele>549.53076171875</ele>
        <time>2014-04-20T07:34:12Z</time>
      </trkpt>
      <trkpt lat="42.92693" lon="1.84646">
        <ele>551.45336914062</ele>
        <time>2014-04-20T07:34:16Z</time>
      </trkpt>
      <trkpt lat="42.92683" lon="1.84656">
        <ele>554.81787109375</ele>
        <time>2014-04-20T07:34:21Z</time>
      </trkpt>
      <trkpt lat="42.92673" lon="1.84662">
        <ele>556.26000976562</ele>
        <time>2014-04-20T07:34:26Z</time>
      </trkpt>
      <trkpt lat="42.92664" lon="1.84665">
        <ele>556.26000976562</ele>
        <time>2014-04-20T07:34:30Z</time>
      </trkpt>
      <trkpt lat="42.92654" lon="1.84674">
        <ele>557.7021484375</ele>
        <time>2014-04-20T07:34:35Z</time>
      </trkpt>
      <trkpt lat="42.92639" lon="1.84679">
        <ele>557.22143554688</ele>
        <time>2014-04-20T07:34:41Z</time>
      </trkpt>
      <trkpt lat="42.92622" lon="1.8468">
        <ele>558.66333007812</ele>
        <time>2014-04-20T07:34:47Z</time>
      </trkpt>
      <trkpt lat="42.92606" lon="1.8468">
        <ele>559.14404296875</ele>
        <time>2014-04-20T07:34:52Z</time>
      </trkpt>
      <trkpt lat="42.92595" lon="1.84678">
        <ele>558.66333007812</ele>
        <time>2014-04-20T07:34:56Z</time>
      </trkpt>
      <trkpt lat="42.92586" lon="1.84674">
        <ele>557.7021484375</ele>
        <time>2014-04-20T07:34:59Z</time>
      </trkpt>
      <trkpt lat="42.92574" lon="1.84671">
        <ele>556.74072265625</ele>
        <time>2014-04-20T07:35:03Z</time>
      </trkpt>
      <trkpt lat="42.92561" lon="1.84667">
        <ele>555.29858398438</ele>
        <time>2014-04-20T07:35:08Z</time>
      </trkpt>
      <trkpt lat="42.9255" lon="1.84664">
        <ele>552.89526367188</ele>
        <time>2014-04-20T07:35:13Z</time>
      </trkpt>
      <trkpt lat="42.92536" lon="1.84659">
        <ele>554.81787109375</ele>
        <time>2014-04-20T07:35:18Z</time>
      </trkpt>
      <trkpt lat="42.92525" lon="1.84657">
        <ele>560.10522460938</ele>
        <time>2014-04-20T07:35:22Z</time>
      </trkpt>
      <trkpt lat="42.92511" lon="1.84655">
        <ele>560.5859375</ele>
        <time>2014-04-20T07:35:28Z</time>
      </trkpt>
      <trkpt lat="42.92498" lon="1.84653">
        <ele>561.06665039062</ele>
        <time>2014-04-20T07:35:32Z</time>
      </trkpt>
      <trkpt lat="42.92486" lon="1.84653">
        <ele>562.02807617188</ele>
        <time>2014-04-20T07:35:36Z</time>
      </trkpt>
      <trkpt lat="42.92471" lon="1.84648">
        <ele>562.50854492188</ele>
        <time>2014-04-20T07:35:41Z</time>
      </trkpt>
      <trkpt lat="42.92456" lon="1.84643">
        <ele>565.392578125</ele>
        <time>2014-04-20T07:35:46Z</time>
      </trkpt>
      <trkpt lat="42.92443" lon="1.84637">
        <ele>564.91186523438</ele>
        <time>2014-04-20T07:35:50Z</time>
      </trkpt>
      <trkpt lat="42.92425" lon="1.84627">
        <ele>565.392578125</ele>
        <time>2014-04-20T07:35:56Z</time>
      </trkpt>
      <trkpt lat="42.92409" lon="1.84619">
        <ele>567.79565429688</ele>
        <time>2014-04-20T07:36:01Z</time>
      </trkpt>
      <trkpt lat="42.92395" lon="1.84607">
        <ele>565.392578125</ele>
        <time>2014-04-20T07:36:06Z</time>
      </trkpt>
      <trkpt lat="42.92384" lon="1.84599">
        <ele>561.54736328125</ele>
        <time>2014-04-20T07:36:10Z</time>
      </trkpt>
      <trkpt lat="42.9237" lon="1.84595">
        <ele>556.74072265625</ele>
        <time>2014-04-20T07:36:15Z</time>
      </trkpt>
      <trkpt lat="42.92354" lon="1.84592">
        <ele>552.41455078125</ele>
        <time>2014-04-20T07:36:20Z</time>
      </trkpt>
      <trkpt lat="42.92348" lon="1.8459">
        <ele>550.4921875</ele>
        <time>2014-04-20T07:36:22Z</time>
      </trkpt>
      <trkpt lat="42.92334" lon="1.84589">
        <ele>548.0888671875</ele>
        <time>2014-04-20T07:36:27Z</time>
      </trkpt>
      <trkpt lat="42.9232" lon="1.84587">
        <ele>549.53076171875</ele>
        <time>2014-04-20T07:36:32Z</time>
      </trkpt>
      <trkpt lat="42.92308" lon="1.84584">
        <ele>551.45336914062</ele>
        <time>2014-04-20T07:36:36Z</time>
      </trkpt>
      <trkpt lat="42.92295" lon="1.84585">
        <ele>549.53076171875</ele>
        <time>2014-04-20T07:36:41Z</time>
      </trkpt>
      <trkpt lat="42.9228" lon="1.84583">
        <ele>549.05004882812</ele>
        <time>2014-04-20T07:36:47Z</time>
      </trkpt>
      <trkpt lat="42.92262" lon="1.84587">
        <ele>553.3759765625</ele>
        <time>2014-04-20T07:36:53Z</time>
      </trkpt>
      <trkpt lat="42.9225" lon="1.84587">
        <ele>555.29858398438</ele>
        <time>2014-04-20T07:36:57Z</time>
      </trkpt>
      <trkpt lat="42.92237" lon="1.84586">
        <ele>556.26000976562</ele>
        <time>2014-04-20T07:37:01Z</time>
      </trkpt>
      <trkpt lat="42.92223" lon="1.84581">
        <ele>553.3759765625</ele>
        <time>2014-04-20T07:37:06Z</time>
      </trkpt>
      <trkpt lat="42.92211" lon="1.84578">
        <ele>553.3759765625</ele>
        <time>2014-04-20T07:37:11Z</time>
      </trkpt>
      <trkpt lat="42.92207" lon="1.84576">
        <ele>552.89526367188</ele>
        <time>2014-04-20T07:37:13Z</time>
      </trkpt>
      <trkpt lat="42.92192" lon="1.84572">
        <ele>554.33740234375</ele>
        <time>2014-04-20T07:37:18Z</time>
      </trkpt>
      <trkpt lat="42.92175" lon="1.84565">
        <ele>558.66333007812</ele>
        <time>2014-04-20T07:37:23Z</time>
      </trkpt>
      <trkpt lat="42.92161" lon="1.84554">
        <ele>561.54736328125</ele>
        <time>2014-04-20T07:37:28Z</time>
      </trkpt>
      <trkpt lat="42.92144" lon="1.84547">
        <ele>561.54736328125</ele>
        <time>2014-04-20T07:37:34Z</time>
      </trkpt>
      <trkpt lat="42.92127" lon="1.84541">
        <ele>561.54736328125</ele>
        <time>2014-04-20T07:37:39Z</time>
      </trkpt>
      <trkpt lat="42.92112" lon="1.84536">
        <ele>561.06665039062</ele>
        <time>2014-04-20T07:37:44Z</time>
      </trkpt>
      <trkpt lat="42.921" lon="1.8453">
        <ele>562.50854492188</ele>
        <time>2014-04-20T07:37:48Z</time>
      </trkpt>
      <trkpt lat="42.92086" lon="1.84518">
        <ele>563.95043945312</ele>
        <time>2014-04-20T07:37:53Z</time>
      </trkpt>
      <trkpt lat="42.92076" lon="1.84513">
        <ele>560.10522460938</ele>
        <time>2014-04-20T07:37:57Z</time>
      </trkpt>
      <trkpt lat="42.92062" lon="1.84506">
        <ele>557.7021484375</ele>
        <time>2014-04-20T07:38:02Z</time>
      </trkpt>
      <trkpt lat="42.92052" lon="1.84506">
        <ele>557.7021484375</ele>
        <time>2014-04-20T07:38:06Z</time>
      </trkpt>
      <trkpt lat="42.92038" lon="1.84505">
        <ele>557.22143554688</ele>
        <time>2014-04-20T07:38:11Z</time>
      </trkpt>
      <trkpt lat="42.92027" lon="1.84504">
        <ele>555.779296875</ele>
        <time>2014-04-20T07:38:15Z</time>
      </trkpt>
      <trkpt lat="42.92015" lon="1.84501">
        <ele>555.779296875</ele>
        <time>2014-04-20T07:38:20Z</time>
      </trkpt>
      <trkpt lat="42.92004" lon="1.84502">
        <ele>555.29858398438</ele>
        <time>2014-04-20T07:38:24Z</time>
      </trkpt>
      <trkpt lat="42.91996" lon="1.84501">
        <ele>556.26000976562</ele>
        <time>2014-04-20T07:38:28Z</time>
      </trkpt>
      <trkpt lat="42.91983" lon="1.84503">
        <ele>561.06665039062</ele>
        <time>2014-04-20T07:38:34Z</time>
      </trkpt>
      <trkpt lat="42.91975" lon="1.84503">
        <ele>565.392578125</ele>
        <time>2014-04-20T07:38:37Z</time>
      </trkpt>
      <trkpt lat="42.91963" lon="1.84503">
        <ele>572.12182617188</ele>
        <time>2014-04-20T07:38:43Z</time>
      </trkpt>
      <trkpt lat="42.91953" lon="1.84498">
        <ele>578.37036132812</ele>
        <time>2014-04-20T07:38:48Z</time>
      </trkpt>
      <trkpt lat="42.91946" lon="1.84498">
        <ele>580.77368164062</ele>
        <time>2014-04-20T07:38:52Z</time>
      </trkpt>
      <trkpt lat="42.91933" lon="1.84496">
        <ele>582.21557617188</ele>
        <time>2014-04-20T07:38:58Z</time>
      </trkpt>
      <trkpt lat="42.91929" lon="1.84496">
        <ele>585.099609375</ele>
        <time>2014-04-20T07:39:00Z</time>
      </trkpt>
      <trkpt lat="42.9192" lon="1.84497">
        <ele>587.02197265625</ele>
        <time>2014-04-20T07:39:05Z</time>
      </trkpt>
      <trkpt lat="42.91913" lon="1.84498">
        <ele>586.54150390625</ele>
        <time>2014-04-20T07:39:09Z</time>
      </trkpt>
      <trkpt lat="42.91905" lon="1.84498">
        <ele>584.13818359375</ele>
        <time>2014-04-20T07:39:14Z</time>
      </trkpt>
      <trkpt lat="42.91894" lon="1.84498">
        <ele>586.54150390625</ele>
        <time>2014-04-20T07:39:21Z</time>
      </trkpt>
      <trkpt lat="42.91891" lon="1.84497">
        <ele>584.61889648438</ele>
        <time>2014-04-20T07:39:23Z</time>
      </trkpt>
      <trkpt lat="42.91884" lon="1.84494">
        <ele>583.1767578125</ele>
        <time>2014-04-20T07:39:30Z</time>
      </trkpt>
      <trkpt lat="42.91878" lon="1.84494">
        <ele>581.73486328125</ele>
        <time>2014-04-20T07:39:35Z</time>
      </trkpt>
      <trkpt lat="42.9187" lon="1.84492">
        <ele>577.4091796875</ele>
        <time>2014-04-20T07:39:42Z</time>
      </trkpt>
      <trkpt lat="42.91865" lon="1.84492">
        <ele>574.52514648438</ele>
        <time>2014-04-20T07:39:46Z</time>
      </trkpt>
      <trkpt lat="42.91858" lon="1.84487">
        <ele>576.44775390625</ele>
        <time>2014-04-20T07:39:51Z</time>
      </trkpt>
      <trkpt lat="42.91849" lon="1.84485">
        <ele>576.44775390625</ele>
        <time>2014-04-20T07:39:56Z</time>
      </trkpt>
      <trkpt lat="42.91838" lon="1.84484">
        <ele>577.4091796875</ele>
        <time>2014-04-20T07:40:01Z</time>
      </trkpt>
      <trkpt lat="42.91828" lon="1.84481">
        <ele>577.4091796875</ele>
        <time>2014-04-20T07:40:05Z</time>
      </trkpt>
      <trkpt lat="42.91814" lon="1.84472">
        <ele>577.8896484375</ele>
        <time>2014-04-20T07:40:10Z</time>
      </trkpt>
      <trkpt lat="42.91801" lon="1.84462">
        <ele>578.37036132812</ele>
        <time>2014-04-20T07:40:15Z</time>
      </trkpt>
      <trkpt lat="42.91787" lon="1.84451">
        <ele>579.33154296875</ele>
        <time>2014-04-20T07:40:20Z</time>
      </trkpt>
      <trkpt lat="42.91774" lon="1.84441">
        <ele>579.81225585938</ele>
        <time>2014-04-20T07:40:25Z</time>
      </trkpt>
      <trkpt lat="42.91764" lon="1.84433">
        <ele>579.81225585938</ele>
        <time>2014-04-20T07:40:29Z</time>
      </trkpt>
      <trkpt lat="42.91753" lon="1.84422">
        <ele>579.81225585938</ele>
        <time>2014-04-20T07:40:34Z</time>
      </trkpt>
      <trkpt lat="42.9174" lon="1.84414">
        <ele>578.85107421875</ele>
        <time>2014-04-20T07:40:39Z</time>
      </trkpt>
      <trkpt lat="42.91728" lon="1.84403">
        <ele>579.33154296875</ele>
        <time>2014-04-20T07:40:44Z</time>
      </trkpt>
      <trkpt lat="42.91716" lon="1.8439">
        <ele>580.29296875</ele>
        <time>2014-04-20T07:40:49Z</time>
      </trkpt>
      <trkpt lat="42.9171" lon="1.84378">
        <ele>580.77368164062</ele>
        <time>2014-04-20T07:40:53Z</time>
      </trkpt>
      <trkpt lat="42.91699" lon="1.84361">
        <ele>581.25439453125</ele>
        <time>2014-04-20T07:40:59Z</time>
      </trkpt>
      <trkpt lat="42.91686" lon="1.84345">
        <ele>583.65747070312</ele>
        <time>2014-04-20T07:41:05Z</time>
      </trkpt>
      <trkpt lat="42.91678" lon="1.84334">
        <ele>584.13818359375</ele>
        <time>2014-04-20T07:41:09Z</time>
      </trkpt>
      <trkpt lat="42.91664" lon="1.84327">
        <ele>585.580078125</ele>
        <time>2014-04-20T07:41:14Z</time>
      </trkpt>
      <trkpt lat="42.9165" lon="1.8432">
        <ele>585.580078125</ele>
        <time>2014-04-20T07:41:19Z</time>
      </trkpt>
      <trkpt lat="42.91636" lon="1.84312">
        <ele>588.46435546875</ele>
        <time>2014-04-20T07:41:24Z</time>
      </trkpt>
      <trkpt lat="42.91624" lon="1.843">
        <ele>589.42553710938</ele>
        <time>2014-04-20T07:41:29Z</time>
      </trkpt>
      <trkpt lat="42.91612" lon="1.84287">
        <ele>590.86743164062</ele>
        <time>2014-04-20T07:41:34Z</time>
      </trkpt>
      <trkpt lat="42.91607" lon="1.84284">
        <ele>591.34814453125</ele>
        <time>2014-04-20T07:41:36Z</time>
      </trkpt>
      <trkpt lat="42.91597" lon="1.84277">
        <ele>592.3095703125</ele>
        <time>2014-04-20T07:41:40Z</time>
      </trkpt>
      <trkpt lat="42.91589" lon="1.84271">
        <ele>592.3095703125</ele>
        <time>2014-04-20T07:41:43Z</time>
      </trkpt>
      <trkpt lat="42.91583" lon="1.84269">
        <ele>593.27075195312</ele>
        <time>2014-04-20T07:41:45Z</time>
      </trkpt>
      <trkpt lat="42.91575" lon="1.84264">
        <ele>592.79028320312</ele>
        <time>2014-04-20T07:41:48Z</time>
      </trkpt>
      <trkpt lat="42.91558" lon="1.84248">
        <ele>593.75146484375</ele>
        <time>2014-04-20T07:41:55Z</time>
      </trkpt>
      <trkpt lat="42.91549" lon="1.84238">
        <ele>595.193359375</ele>
        <time>2014-04-20T07:41:59Z</time>
      </trkpt>
      <trkpt lat="42.91539" lon="1.84226">
        <ele>595.67407226562</ele>
        <time>2014-04-20T07:42:04Z</time>
      </trkpt>
      <trkpt lat="42.9153" lon="1.84217">
        <ele>595.193359375</ele>
        <time>2014-04-20T07:42:08Z</time>
      </trkpt>
      <trkpt lat="42.9152" lon="1.84202">
        <ele>593.27075195312</ele>
        <time>2014-04-20T07:42:13Z</time>
      </trkpt>
      <trkpt lat="42.91507" lon="1.84192">
        <ele>592.3095703125</ele>
        <time>2014-04-20T07:42:18Z</time>
      </trkpt>
      <trkpt lat="42.91496" lon="1.84178">
        <ele>594.23217773438</ele>
        <time>2014-04-20T07:42:23Z</time>
      </trkpt>
      <trkpt lat="42.91486" lon="1.8417">
        <ele>594.71264648438</ele>
        <time>2014-04-20T07:42:27Z</time>
      </trkpt>
      <trkpt lat="42.91477" lon="1.84163">
        <ele>593.27075195312</ele>
        <time>2014-04-20T07:42:31Z</time>
      </trkpt>
      <trkpt lat="42.91468" lon="1.84153">
        <ele>593.27075195312</ele>
        <time>2014-04-20T07:42:35Z</time>
      </trkpt>
      <trkpt lat="42.91459" lon="1.84144">
        <ele>591.82885742188</ele>
        <time>2014-04-20T07:42:39Z</time>
      </trkpt>
      <trkpt lat="42.9145" lon="1.84131">
        <ele>590.38696289062</ele>
        <time>2014-04-20T07:42:44Z</time>
      </trkpt>
      <trkpt lat="42.91441" lon="1.84119">
        <ele>589.90625</ele>
        <time>2014-04-20T07:42:49Z</time>
      </trkpt>
      <trkpt lat="42.91433" lon="1.84107">
        <ele>589.90625</ele>
        <time>2014-04-20T07:42:53Z</time>
      </trkpt>
      <trkpt lat="42.91422" lon="1.84093">
        <ele>591.34814453125</ele>
        <time>2014-04-20T07:42:58Z</time>
      </trkpt>
      <trkpt lat="42.91413" lon="1.84077">
        <ele>592.3095703125</ele>
        <time>2014-04-20T07:43:03Z</time>
      </trkpt>
      <trkpt lat="42.91402" lon="1.84058">
        <ele>593.75146484375</ele>
        <time>2014-04-20T07:43:09Z</time>
      </trkpt>
      <trkpt lat="42.91394" lon="1.84043">
        <ele>594.71264648438</ele>
        <time>2014-04-20T07:43:14Z</time>
      </trkpt>
      <trkpt lat="42.9139" lon="1.84038">
        <ele>594.71264648438</ele>
        <time>2014-04-20T07:43:16Z</time>
      </trkpt>
      <trkpt lat="42.91378" lon="1.84027">
        <ele>594.23217773438</ele>
        <time>2014-04-20T07:43:21Z</time>
      </trkpt>
      <trkpt lat="42.91365" lon="1.84013">
        <ele>591.82885742188</ele>
        <time>2014-04-20T07:43:27Z</time>
      </trkpt>
      <trkpt lat="42.91349" lon="1.84004">
        <ele>589.90625</ele>
        <time>2014-04-20T07:43:33Z</time>
      </trkpt>
      <trkpt lat="42.91339" lon="1.83999">
        <ele>588.94506835938</ele>
        <time>2014-04-20T07:43:37Z</time>
      </trkpt>
      <trkpt lat="42.91325" lon="1.8399">
        <ele>588.46435546875</ele>
        <time>2014-04-20T07:43:42Z</time>
      </trkpt>
      <trkpt lat="42.91315" lon="1.83986">
        <ele>588.94506835938</ele>
        <time>2014-04-20T07:43:46Z</time>
      </trkpt>
      <trkpt lat="42.91308" lon="1.83979">
        <ele>590.38696289062</ele>
        <time>2014-04-20T07:43:49Z</time>
      </trkpt>
      <trkpt lat="42.91297" lon="1.83964">
        <ele>589.90625</ele>
        <time>2014-04-20T07:43:54Z</time>
      </trkpt>
      <trkpt lat="42.91285" lon="1.83957">
        <ele>591.34814453125</ele>
        <time>2014-04-20T07:43:59Z</time>
      </trkpt>
      <trkpt lat="42.9127" lon="1.8395">
        <ele>592.79028320312</ele>
        <time>2014-04-20T07:44:04Z</time>
      </trkpt>
      <trkpt lat="42.91256" lon="1.83945">
        <ele>594.71264648438</ele>
        <time>2014-04-20T07:44:09Z</time>
      </trkpt>
      <trkpt lat="42.91249" lon="1.8394">
        <ele>594.71264648438</ele>
        <time>2014-04-20T07:44:12Z</time>
      </trkpt>
      <trkpt lat="42.91246" lon="1.83938">
        <ele>594.71264648438</ele>
        <time>2014-04-20T07:44:13Z</time>
      </trkpt>
      <trkpt lat="42.9123" lon="1.83933">
        <ele>597.11596679688</ele>
        <time>2014-04-20T07:44:19Z</time>
      </trkpt>
      <trkpt lat="42.91219" lon="1.83925">
        <ele>599.03857421875</ele>
        <time>2014-04-20T07:44:24Z</time>
      </trkpt>
      <trkpt lat="42.91204" lon="1.83913">
        <ele>600</ele>
        <time>2014-04-20T07:44:30Z</time>
      </trkpt>
      <trkpt lat="42.91191" lon="1.83906">
        <ele>600.48071289062</ele>
        <time>2014-04-20T07:44:36Z</time>
      </trkpt>
      <trkpt lat="42.91183" lon="1.83898">
        <ele>600.96118164062</ele>
        <time>2014-04-20T07:44:40Z</time>
      </trkpt>
      <trkpt lat="42.91174" lon="1.83882">
        <ele>601.44189453125</ele>
        <time>2014-04-20T07:44:45Z</time>
      </trkpt>
      <trkpt lat="42.91162" lon="1.8387">
        <ele>603.36450195312</ele>
        <time>2014-04-20T07:44:51Z</time>
      </trkpt>
      <trkpt lat="42.9115" lon="1.83861">
        <ele>605.28735351562</ele>
        <time>2014-04-20T07:44:56Z</time>
      </trkpt>
      <trkpt lat="42.91148" lon="1.83858">
        <ele>606.24853515625</ele>
        <time>2014-04-20T07:44:57Z</time>
      </trkpt>
      <trkpt lat="42.91134" lon="1.83846">
        <ele>607.2099609375</ele>
        <time>2014-04-20T07:45:03Z</time>
      </trkpt>
      <trkpt lat="42.91126" lon="1.83837">
        <ele>606.24853515625</ele>
        <time>2014-04-20T07:45:07Z</time>
      </trkpt>
      <trkpt lat="42.9112" lon="1.8383">
        <ele>606.24853515625</ele>
        <time>2014-04-20T07:45:10Z</time>
      </trkpt>
      <trkpt lat="42.91108" lon="1.83821">
        <ele>607.69067382812</ele>
        <time>2014-04-20T07:45:15Z</time>
      </trkpt>
      <trkpt lat="42.91106" lon="1.83819">
        <ele>607.2099609375</ele>
        <time>2014-04-20T07:45:16Z</time>
      </trkpt>
      <trkpt lat="42.91096" lon="1.83813">
        <ele>606.72924804688</ele>
        <time>2014-04-20T07:45:20Z</time>
      </trkpt>
      <trkpt lat="42.91092" lon="1.83807">
        <ele>606.24853515625</ele>
        <time>2014-04-20T07:45:22Z</time>
      </trkpt>
      <trkpt lat="42.91078" lon="1.83798">
        <ele>604.326171875</ele>
        <time>2014-04-20T07:45:27Z</time>
      </trkpt>
      <trkpt lat="42.91075" lon="1.83796">
        <ele>603.84521484375</ele>
        <time>2014-04-20T07:45:28Z</time>
      </trkpt>
      <trkpt lat="42.91069" lon="1.83797">
        <ele>603.36450195312</ele>
        <time>2014-04-20T07:45:30Z</time>
      </trkpt>
      <trkpt lat="42.91056" lon="1.83796">
        <ele>603.84521484375</ele>
        <time>2014-04-20T07:45:34Z</time>
      </trkpt>
      <trkpt lat="42.91042" lon="1.83789">
        <ele>601.92260742188</ele>
        <time>2014-04-20T07:45:38Z</time>
      </trkpt>
      <trkpt lat="42.91039" lon="1.83789">
        <ele>601.92260742188</ele>
        <time>2014-04-20T07:45:39Z</time>
      </trkpt>
      <trkpt lat="42.91022" lon="1.83794">
        <ele>602.40307617188</ele>
        <time>2014-04-20T07:45:44Z</time>
      </trkpt>
      <trkpt lat="42.91008" lon="1.83794">
        <ele>603.36450195312</ele>
        <time>2014-04-20T07:45:48Z</time>
      </trkpt>
      <trkpt lat="42.90993" lon="1.83788">
        <ele>601.92260742188</ele>
        <time>2014-04-20T07:45:53Z</time>
      </trkpt>
      <trkpt lat="42.90991" lon="1.83785">
        <ele>601.92260742188</ele>
        <time>2014-04-20T07:45:54Z</time>
      </trkpt>
      <trkpt lat="42.90971" lon="1.83773">
        <ele>603.36450195312</ele>
        <time>2014-04-20T07:46:01Z</time>
      </trkpt>
      <trkpt lat="42.90958" lon="1.8376">
        <ele>605.28735351562</ele>
        <time>2014-04-20T07:46:07Z</time>
      </trkpt>
      <trkpt lat="42.90948" lon="1.83753">
        <ele>608.17138671875</ele>
        <time>2014-04-20T07:46:11Z</time>
      </trkpt>
      <trkpt lat="42.90931" lon="1.83738">
        <ele>610.57446289062</ele>
        <time>2014-04-20T07:46:18Z</time>
      </trkpt>
      <trkpt lat="42.90929" lon="1.83736">
        <ele>610.09375</ele>
        <time>2014-04-20T07:46:19Z</time>
      </trkpt>
      <trkpt lat="42.90921" lon="1.83726">
        <ele>611.05517578125</ele>
        <time>2014-04-20T07:46:23Z</time>
      </trkpt>
      <trkpt lat="42.90913" lon="1.83717">
        <ele>611.05517578125</ele>
        <time>2014-04-20T07:46:27Z</time>
      </trkpt>
      <trkpt lat="42.909" lon="1.83708">
        <ele>612.0166015625</ele>
        <time>2014-04-20T07:46:32Z</time>
      </trkpt>
      <trkpt lat="42.90889" lon="1.83696">
        <ele>609.61328125</ele>
        <time>2014-04-20T07:46:37Z</time>
      </trkpt>
      <trkpt lat="42.90875" lon="1.83685">
        <ele>608.65185546875</ele>
        <time>2014-04-20T07:46:43Z</time>
      </trkpt>
      <trkpt lat="42.90862" lon="1.83679">
        <ele>607.2099609375</ele>
        <time>2014-04-20T07:46:49Z</time>
      </trkpt>
      <trkpt lat="42.9086" lon="1.83679">
        <ele>607.2099609375</ele>
        <time>2014-04-20T07:46:50Z</time>
      </trkpt>
      <trkpt lat="42.90861" lon="1.83682">
        <ele>606.24853515625</ele>
        <time>2014-04-20T07:46:52Z</time>
      </trkpt>
      <trkpt lat="42.90866" lon="1.83692">
        <ele>604.806640625</ele>
        <time>2014-04-20T07:46:58Z</time>
      </trkpt>
      <trkpt lat="42.90867" lon="1.83705">
        <ele>605.28735351562</ele>
        <time>2014-04-20T07:47:02Z</time>
      </trkpt>
      <trkpt lat="42.90868" lon="1.83713">
        <ele>605.28735351562</ele>
        <time>2014-04-20T07:47:05Z</time>
      </trkpt>
      <trkpt lat="42.90868" lon="1.83722">
        <ele>607.2099609375</ele>
        <time>2014-04-20T07:47:10Z</time>
      </trkpt>
      <trkpt lat="42.90868" lon="1.83738">
        <ele>610.57446289062</ele>
        <time>2014-04-20T07:47:17Z</time>
      </trkpt>
      <trkpt lat="42.90869" lon="1.83744">
        <ele>612.4970703125</ele>
        <time>2014-04-20T07:47:20Z</time>
      </trkpt>
      <trkpt lat="42.9087" lon="1.83751">
        <ele>614.41967773438</ele>
        <time>2014-04-20T07:47:23Z</time>
      </trkpt>
      <trkpt lat="42.9087" lon="1.83758">
        <ele>615.38110351562</ele>
        <time>2014-04-20T07:47:26Z</time>
      </trkpt>
      <trkpt lat="42.90868" lon="1.8377">
        <ele>617.3037109375</ele>
        <time>2014-04-20T07:47:32Z</time>
      </trkpt>
      <trkpt lat="42.90868" lon="1.83778">
        <ele>618.26489257812</ele>
        <time>2014-04-20T07:47:37Z</time>
      </trkpt>
      <trkpt lat="42.90868" lon="1.83787">
        <ele>618.74560546875</ele>
        <time>2014-04-20T07:47:42Z</time>
      </trkpt>
      <trkpt lat="42.90867" lon="1.83796">
        <ele>623.07177734375</ele>
        <time>2014-04-20T07:47:46Z</time>
      </trkpt>
      <trkpt lat="42.90868" lon="1.83808">
        <ele>624.03295898438</ele>
        <time>2014-04-20T07:47:53Z</time>
      </trkpt>
      <trkpt lat="42.9087" lon="1.83813">
        <ele>624.513671875</ele>
        <time>2014-04-20T07:47:57Z</time>
      </trkpt>
      <trkpt lat="42.90871" lon="1.83822">
        <ele>623.07177734375</ele>
        <time>2014-04-20T07:48:04Z</time>
      </trkpt>
      <trkpt lat="42.90872" lon="1.83831">
        <ele>622.59106445312</ele>
        <time>2014-04-20T07:48:09Z</time>
      </trkpt>
      <trkpt lat="42.90873" lon="1.83834">
        <ele>622.1103515625</ele>
        <time>2014-04-20T07:48:11Z</time>
      </trkpt>
      <trkpt lat="42.90872" lon="1.83845">
        <ele>624.03295898438</ele>
        <time>2014-04-20T07:48:18Z</time>
      </trkpt>
      <trkpt lat="42.90871" lon="1.8385">
        <ele>625.95556640625</ele>
        <time>2014-04-20T07:48:21Z</time>
      </trkpt>
      <trkpt lat="42.90871" lon="1.83861">
        <ele>626.43627929688</ele>
        <time>2014-04-20T07:48:28Z</time>
      </trkpt>
      <trkpt lat="42.90871" lon="1.8387">
        <ele>627.39770507812</ele>
        <time>2014-04-20T07:48:32Z</time>
      </trkpt>
      <trkpt lat="42.90871" lon="1.83879">
        <ele>629.32006835938</ele>
        <time>2014-04-20T07:48:37Z</time>
      </trkpt>
      <trkpt lat="42.90871" lon="1.83889">
        <ele>631.24291992188</ele>
        <time>2014-04-20T07:48:41Z</time>
      </trkpt>
      <trkpt lat="42.90871" lon="1.83899">
        <ele>634.12670898438</ele>
        <time>2014-04-20T07:48:45Z</time>
      </trkpt>
      <trkpt lat="42.90868" lon="1.83916">
        <ele>638.45288085938</ele>
        <time>2014-04-20T07:48:51Z</time>
      </trkpt>
      <trkpt lat="42.90865" lon="1.83931">
        <ele>642.29809570312</ele>
        <time>2014-04-20T07:48:56Z</time>
      </trkpt>
      <trkpt lat="42.90862" lon="1.83947">
        <ele>642.29809570312</ele>
        <time>2014-04-20T07:49:01Z</time>
      </trkpt>
      <trkpt lat="42.90862" lon="1.83953">
        <ele>641.8173828125</ele>
        <time>2014-04-20T07:49:03Z</time>
      </trkpt>
      <trkpt lat="42.90854" lon="1.83957">
        <ele>641.8173828125</ele>
        <time>2014-04-20T07:49:07Z</time>
      </trkpt>
      <trkpt lat="42.90849" lon="1.83954">
        <ele>640.85595703125</ele>
        <time>2014-04-20T07:49:09Z</time>
      </trkpt>
      <trkpt lat="42.90836" lon="1.83944">
        <ele>639.4140625</ele>
        <time>2014-04-20T07:49:15Z</time>
      </trkpt>
      <trkpt lat="42.90834" lon="1.83943">
        <ele>638.93359375</ele>
        <time>2014-04-20T07:49:16Z</time>
      </trkpt>
      <trkpt lat="42.90818" lon="1.83939">
        <ele>637.0107421875</ele>
        <time>2014-04-20T07:49:22Z</time>
      </trkpt>
      <trkpt lat="42.90808" lon="1.83939">
        <ele>637.97216796875</ele>
        <time>2014-04-20T07:49:25Z</time>
      </trkpt>
      <trkpt lat="42.90796" lon="1.8393">
        <ele>637.49145507812</ele>
        <time>2014-04-20T07:49:31Z</time>
      </trkpt>
      <trkpt lat="42.90786" lon="1.83922">
        <ele>639.4140625</ele>
        <time>2014-04-20T07:49:36Z</time>
      </trkpt>
      <trkpt lat="42.90778" lon="1.83919">
        <ele>639.4140625</ele>
        <time>2014-04-20T07:49:40Z</time>
      </trkpt>
      <trkpt lat="42.90771" lon="1.8391">
        <ele>638.93359375</ele>
        <time>2014-04-20T07:49:45Z</time>
      </trkpt>
      <trkpt lat="42.90766" lon="1.83905">
        <ele>638.93359375</ele>
        <time>2014-04-20T07:49:49Z</time>
      </trkpt>
      <trkpt lat="42.90759" lon="1.839">
        <ele>639.89477539062</ele>
        <time>2014-04-20T07:49:53Z</time>
      </trkpt>
      <trkpt lat="42.90756" lon="1.83897">
        <ele>640.85595703125</ele>
        <time>2014-04-20T07:49:56Z</time>
      </trkpt>
      <trkpt lat="42.90748" lon="1.83887">
        <ele>641.33666992188</ele>
        <time>2014-04-20T07:50:01Z</time>
      </trkpt>
      <trkpt lat="42.90746" lon="1.83885">
        <ele>641.33666992188</ele>
        <time>2014-04-20T07:50:02Z</time>
      </trkpt>
      <trkpt lat="42.9074" lon="1.83881">
        <ele>642.77880859375</ele>
        <time>2014-04-20T07:50:07Z</time>
      </trkpt>
      <trkpt lat="42.90734" lon="1.83875">
        <ele>644.220703125</ele>
        <time>2014-04-20T07:50:13Z</time>
      </trkpt>
      <trkpt lat="42.90731" lon="1.8387">
        <ele>644.220703125</ele>
        <time>2014-04-20T07:50:18Z</time>
      </trkpt>
      <trkpt lat="42.90726" lon="1.83867">
        <ele>645.66259765625</ele>
        <time>2014-04-20T07:50:24Z</time>
      </trkpt>
      <trkpt lat="42.9072" lon="1.8386">
        <ele>646.14331054688</ele>
        <time>2014-04-20T07:50:30Z</time>
      </trkpt>
      <trkpt lat="42.90714" lon="1.83855">
        <ele>644.701171875</ele>
        <time>2014-04-20T07:50:37Z</time>
      </trkpt>
      <trkpt lat="42.90711" lon="1.83852">
        <ele>644.701171875</ele>
        <time>2014-04-20T07:50:40Z</time>
      </trkpt>
      <trkpt lat="42.90702" lon="1.83843">
        <ele>649.5078125</ele>
        <time>2014-04-20T07:50:49Z</time>
      </trkpt>
      <trkpt lat="42.90696" lon="1.83839">
        <ele>651.43041992188</ele>
        <time>2014-04-20T07:50:53Z</time>
      </trkpt>
      <trkpt lat="42.90684" lon="1.83834">
        <ele>652.39184570312</ele>
        <time>2014-04-20T07:50:58Z</time>
      </trkpt>
      <trkpt lat="42.90672" lon="1.8383">
        <ele>651.9111328125</ele>
        <time>2014-04-20T07:51:02Z</time>
      </trkpt>
      <trkpt lat="42.90659" lon="1.83825">
        <ele>649.02709960938</ele>
        <time>2014-04-20T07:51:07Z</time>
      </trkpt>
      <trkpt lat="42.90644" lon="1.83821">
        <ele>643.73999023438</ele>
        <time>2014-04-20T07:51:13Z</time>
      </trkpt>
      <trkpt lat="42.90636" lon="1.83818">
        <ele>639.4140625</ele>
        <time>2014-04-20T07:51:17Z</time>
      </trkpt>
      <trkpt lat="42.90625" lon="1.83814">
        <ele>633.64599609375</ele>
        <time>2014-04-20T07:51:22Z</time>
      </trkpt>
      <trkpt lat="42.90614" lon="1.83811">
        <ele>632.2041015625</ele>
        <time>2014-04-20T07:51:26Z</time>
      </trkpt>
      <trkpt lat="42.90602" lon="1.83807">
        <ele>630.28149414062</ele>
        <time>2014-04-20T07:51:31Z</time>
      </trkpt>
      <trkpt lat="42.90594" lon="1.83802">
        <ele>628.35888671875</ele>
        <time>2014-04-20T07:51:36Z</time>
      </trkpt>
      <trkpt lat="42.90582" lon="1.838">
        <ele>625.95556640625</ele>
        <time>2014-04-20T07:51:42Z</time>
      </trkpt>
      <trkpt lat="42.90572" lon="1.83798">
        <ele>623.55249023438</ele>
        <time>2014-04-20T07:51:47Z</time>
      </trkpt>
      <trkpt lat="42.90563" lon="1.83795">
        <ele>622.59106445312</ele>
        <time>2014-04-20T07:51:50Z</time>
      </trkpt>
      <trkpt lat="42.90547" lon="1.83791">
        <ele>620.18774414062</ele>
        <time>2014-04-20T07:51:55Z</time>
      </trkpt>
      <trkpt lat="42.90538" lon="1.83787">
        <ele>619.70703125</ele>
        <time>2014-04-20T07:51:58Z</time>
      </trkpt>
      <trkpt lat="42.90517" lon="1.83782">
        <ele>620.66845703125</ele>
        <time>2014-04-20T07:52:05Z</time>
      </trkpt>
      <trkpt lat="42.90509" lon="1.83781">
        <ele>620.66845703125</ele>
        <time>2014-04-20T07:52:08Z</time>
      </trkpt>
      <trkpt lat="42.90506" lon="1.83774">
        <ele>621.14916992188</ele>
        <time>2014-04-20T07:52:12Z</time>
      </trkpt>
      <trkpt lat="42.90508" lon="1.83756">
        <ele>623.07177734375</ele>
        <time>2014-04-20T07:52:16Z</time>
      </trkpt>
      <trkpt lat="42.90512" lon="1.83742">
        <ele>624.03295898438</ele>
        <time>2014-04-20T07:52:20Z</time>
      </trkpt>
      <trkpt lat="42.90514" lon="1.83738">
        <ele>624.03295898438</ele>
        <time>2014-04-20T07:52:21Z</time>
      </trkpt>
      <trkpt lat="42.90524" lon="1.83714">
        <ele>625.95556640625</ele>
        <time>2014-04-20T07:52:28Z</time>
      </trkpt>
      <trkpt lat="42.90525" lon="1.8371">
        <ele>625.95556640625</ele>
        <time>2014-04-20T07:52:29Z</time>
      </trkpt>
      <trkpt lat="42.90522" lon="1.837">
        <ele>626.9169921875</ele>
        <time>2014-04-20T07:52:33Z</time>
      </trkpt>
      <trkpt lat="42.90512" lon="1.83702">
        <ele>627.39770507812</ele>
        <time>2014-04-20T07:52:37Z</time>
      </trkpt>
      <trkpt lat="42.90509" lon="1.83703">
        <ele>627.39770507812</ele>
        <time>2014-04-20T07:52:38Z</time>
      </trkpt>
      <trkpt lat="42.90497" lon="1.83711">
        <ele>628.35888671875</ele>
        <time>2014-04-20T07:52:43Z</time>
      </trkpt>
      <trkpt lat="42.90483" lon="1.83716">
        <ele>627.39770507812</ele>
        <time>2014-04-20T07:52:49Z</time>
      </trkpt>
      <trkpt lat="42.90472" lon="1.8372">
        <ele>627.39770507812</ele>
        <time>2014-04-20T07:52:54Z</time>
      </trkpt>
      <trkpt lat="42.90461" lon="1.83728">
        <ele>628.83959960938</ele>
        <time>2014-04-20T07:52:59Z</time>
      </trkpt>
      <trkpt lat="42.9045" lon="1.83735">
        <ele>631.24291992188</ele>
        <time>2014-04-20T07:53:04Z</time>
      </trkpt>
      <trkpt lat="42.90437" lon="1.83741">
        <ele>632.68481445312</ele>
        <time>2014-04-20T07:53:10Z</time>
      </trkpt>
      <trkpt lat="42.90426" lon="1.83746">
        <ele>634.12670898438</ele>
        <time>2014-04-20T07:53:15Z</time>
      </trkpt>
      <trkpt lat="42.90413" lon="1.83751">
        <ele>635.56860351562</ele>
        <time>2014-04-20T07:53:21Z</time>
      </trkpt>
      <trkpt lat="42.90405" lon="1.83752">
        <ele>636.5302734375</ele>
        <time>2014-04-20T07:53:25Z</time>
      </trkpt>
      <trkpt lat="42.90396" lon="1.83756">
        <ele>637.49145507812</ele>
        <time>2014-04-20T07:53:29Z</time>
      </trkpt>
      <trkpt lat="42.90387" lon="1.8376">
        <ele>637.97216796875</ele>
        <time>2014-04-20T07:53:33Z</time>
      </trkpt>
      <trkpt lat="42.90373" lon="1.83765">
        <ele>638.93359375</ele>
        <time>2014-04-20T07:53:39Z</time>
      </trkpt>
      <trkpt lat="42.90358" lon="1.83772">
        <ele>640.37548828125</ele>
        <time>2014-04-20T07:53:45Z</time>
      </trkpt>
      <trkpt lat="42.90345" lon="1.83776">
        <ele>641.33666992188</ele>
        <time>2014-04-20T07:53:50Z</time>
      </trkpt>
      <trkpt lat="42.90343" lon="1.83776">
        <ele>641.33666992188</ele>
        <time>2014-04-20T07:53:51Z</time>
      </trkpt>
      <trkpt lat="42.90333" lon="1.83782">
        <ele>643.73999023438</ele>
        <time>2014-04-20T07:53:56Z</time>
      </trkpt>
      <trkpt lat="42.90322" lon="1.83784">
        <ele>645.66259765625</ele>
        <time>2014-04-20T07:54:01Z</time>
      </trkpt>
      <trkpt lat="42.90308" lon="1.83784">
        <ele>647.58520507812</ele>
        <time>2014-04-20T07:54:07Z</time>
      </trkpt>
      <trkpt lat="42.90293" lon="1.83784">
        <ele>649.5078125</ele>
        <time>2014-04-20T07:54:14Z</time>
      </trkpt>
      <trkpt lat="42.9028" lon="1.83784">
        <ele>650.94970703125</ele>
        <time>2014-04-20T07:54:20Z</time>
      </trkpt>
      <trkpt lat="42.90274" lon="1.83783">
        <ele>651.43041992188</ele>
        <time>2014-04-20T07:54:23Z</time>
      </trkpt>
      <trkpt lat="42.90264" lon="1.83783">
        <ele>651.9111328125</ele>
        <time>2014-04-20T07:54:28Z</time>
      </trkpt>
      <trkpt lat="42.90258" lon="1.83779">
        <ele>651.43041992188</ele>
        <time>2014-04-20T07:54:33Z</time>
      </trkpt>
      <trkpt lat="42.90254" lon="1.83777">
        <ele>649.98852539062</ele>
        <time>2014-04-20T07:54:37Z</time>
      </trkpt>
      <trkpt lat="42.90246" lon="1.83776">
        <ele>649.5078125</ele>
        <time>2014-04-20T07:54:46Z</time>
      </trkpt>
      <trkpt lat="42.90242" lon="1.83775">
        <ele>649.5078125</ele>
        <time>2014-04-20T07:54:49Z</time>
      </trkpt>
      <trkpt lat="42.90232" lon="1.83775">
        <ele>648.54638671875</ele>
        <time>2014-04-20T07:54:54Z</time>
      </trkpt>
      <trkpt lat="42.90226" lon="1.83774">
        <ele>647.1044921875</ele>
        <time>2014-04-20T07:54:57Z</time>
      </trkpt>
      <trkpt lat="42.90216" lon="1.83771">
        <ele>647.58520507812</ele>
        <time>2014-04-20T07:55:03Z</time>
      </trkpt>
      <trkpt lat="42.90213" lon="1.8377">
        <ele>648.54638671875</ele>
        <time>2014-04-20T07:55:05Z</time>
      </trkpt>
      <trkpt lat="42.90209" lon="1.83769">
        <ele>649.02709960938</ele>
        <time>2014-04-20T07:55:07Z</time>
      </trkpt>
      <trkpt lat="42.90203" lon="1.83767">
        <ele>651.43041992188</ele>
        <time>2014-04-20T07:55:12Z</time>
      </trkpt>
      <trkpt lat="42.90193" lon="1.83766">
        <ele>653.833984375</ele>
        <time>2014-04-20T07:55:20Z</time>
      </trkpt>
      <trkpt lat="42.90186" lon="1.83762">
        <ele>649.98852539062</ele>
        <time>2014-04-20T07:55:26Z</time>
      </trkpt>
      <trkpt lat="42.90178" lon="1.83755">
        <ele>651.43041992188</ele>
        <time>2014-04-20T07:55:33Z</time>
      </trkpt>
      <trkpt lat="42.90174" lon="1.83753">
        <ele>652.87255859375</ele>
        <time>2014-04-20T07:55:36Z</time>
      </trkpt>
      <trkpt lat="42.90165" lon="1.83748">
        <ele>655.27587890625</ele>
        <time>2014-04-20T07:55:43Z</time>
      </trkpt>
      <trkpt lat="42.9016" lon="1.83744">
        <ele>656.7177734375</ele>
        <time>2014-04-20T07:55:47Z</time>
      </trkpt>
      <trkpt lat="42.90152" lon="1.83742">
        <ele>656.23706054688</ele>
        <time>2014-04-20T07:55:53Z</time>
      </trkpt>
      <trkpt lat="42.90145" lon="1.83737">
        <ele>657.67919921875</ele>
        <time>2014-04-20T07:56:00Z</time>
      </trkpt>
      <trkpt lat="42.90142" lon="1.83736">
        <ele>658.15991210938</ele>
        <time>2014-04-20T07:56:02Z</time>
      </trkpt>
      <trkpt lat="42.90137" lon="1.83728">
        <ele>658.15991210938</ele>
        <time>2014-04-20T07:56:08Z</time>
      </trkpt>
      <trkpt lat="42.90136" lon="1.83725">
        <ele>657.19848632812</ele>
        <time>2014-04-20T07:56:11Z</time>
      </trkpt>
      <trkpt lat="42.9013" lon="1.83717">
        <ele>652.87255859375</ele>
        <time>2014-04-20T07:56:19Z</time>
      </trkpt>
      <trkpt lat="42.90125" lon="1.83712">
        <ele>654.79516601562</ele>
        <time>2014-04-20T07:56:26Z</time>
      </trkpt>
      <trkpt lat="42.90121" lon="1.83709">
        <ele>657.19848632812</ele>
        <time>2014-04-20T07:56:30Z</time>
      </trkpt>
      <trkpt lat="42.90112" lon="1.83705">
        <ele>657.67919921875</ele>
        <time>2014-04-20T07:56:36Z</time>
      </trkpt>
      <trkpt lat="42.90107" lon="1.83701">
        <ele>660.08227539062</ele>
        <time>2014-04-20T07:56:41Z</time>
      </trkpt>
      <trkpt lat="42.90105" lon="1.83693">
        <ele>662.00512695312</ele>
        <time>2014-04-20T07:56:46Z</time>
      </trkpt>
      <trkpt lat="42.90107" lon="1.83688">
        <ele>665.36962890625</ele>
        <time>2014-04-20T07:56:50Z</time>
      </trkpt>
      <trkpt lat="42.90112" lon="1.83687">
        <ele>670.65698242188</ele>
        <time>2014-04-20T07:56:58Z</time>
      </trkpt>
      <trkpt lat="42.90118" lon="1.83681">
        <ele>670.17626953125</ele>
        <time>2014-04-20T07:57:04Z</time>
      </trkpt>
      <trkpt lat="42.90121" lon="1.83671">
        <ele>668.734375</ele>
        <time>2014-04-20T07:57:10Z</time>
      </trkpt>
      <trkpt lat="42.90121" lon="1.83665">
        <ele>668.25366210938</ele>
        <time>2014-04-20T07:57:15Z</time>
      </trkpt>
      <trkpt lat="42.90117" lon="1.83657">
        <ele>670.17626953125</ele>
        <time>2014-04-20T07:57:23Z</time>
      </trkpt>
      <trkpt lat="42.90116" lon="1.83655">
        <ele>670.17626953125</ele>
        <time>2014-04-20T07:57:24Z</time>
      </trkpt>
      <trkpt lat="42.90115" lon="1.83649">
        <ele>669.21508789062</ele>
        <time>2014-04-20T07:57:29Z</time>
      </trkpt>
      <trkpt lat="42.90114" lon="1.83647">
        <ele>669.21508789062</ele>
        <time>2014-04-20T07:57:31Z</time>
      </trkpt>
      <trkpt lat="42.9011" lon="1.83645">
        <ele>675.94409179688</ele>
        <time>2014-04-20T07:57:34Z</time>
      </trkpt>
      <trkpt lat="42.90105" lon="1.83643">
        <ele>679.30859375</ele>
        <time>2014-04-20T07:57:38Z</time>
      </trkpt>
      <trkpt lat="42.901" lon="1.83634">
        <ele>677.38623046875</ele>
        <time>2014-04-20T07:57:47Z</time>
      </trkpt>
      <trkpt lat="42.90097" lon="1.83632">
        <ele>678.34741210938</ele>
        <time>2014-04-20T07:57:50Z</time>
      </trkpt>
      <trkpt lat="42.90093" lon="1.83631">
        <ele>677.86669921875</ele>
        <time>2014-04-20T07:57:54Z</time>
      </trkpt>
      <trkpt lat="42.90088" lon="1.83627">
        <ele>676.4248046875</ele>
        <time>2014-04-20T07:57:59Z</time>
      </trkpt>
      <trkpt lat="42.90081" lon="1.83623">
        <ele>681.7119140625</ele>
        <time>2014-04-20T07:58:04Z</time>
      </trkpt>
      <trkpt lat="42.90079" lon="1.83621">
        <ele>683.63452148438</ele>
        <time>2014-04-20T07:58:06Z</time>
      </trkpt>
      <trkpt lat="42.90077" lon="1.83619">
        <ele>685.07690429688</ele>
        <time>2014-04-20T07:58:08Z</time>
      </trkpt>
      <trkpt lat="42.90073" lon="1.83614">
        <ele>686.99926757812</ele>
        <time>2014-04-20T07:58:14Z</time>
      </trkpt>
      <trkpt lat="42.90069" lon="1.83612">
        <ele>686.0380859375</ele>
        <time>2014-04-20T07:58:20Z</time>
      </trkpt>
      <trkpt lat="42.90062" lon="1.83608">
        <ele>685.07690429688</ele>
        <time>2014-04-20T07:58:27Z</time>
      </trkpt>
      <trkpt lat="42.9006" lon="1.83607">
        <ele>686.51879882812</ele>
        <time>2014-04-20T07:58:30Z</time>
      </trkpt>
      <trkpt lat="42.90055" lon="1.83601">
        <ele>689.40258789062</ele>
        <time>2014-04-20T07:58:37Z</time>
      </trkpt>
      <trkpt lat="42.90051" lon="1.83591">
        <ele>693.24780273438</ele>
        <time>2014-04-20T07:58:44Z</time>
      </trkpt>
      <trkpt lat="42.90051" lon="1.8359">
        <ele>694.20922851562</ele>
        <time>2014-04-20T07:58:45Z</time>
      </trkpt>
      <trkpt lat="42.90052" lon="1.83585">
        <ele>695.17041015625</ele>
        <time>2014-04-20T07:58:49Z</time>
      </trkpt>
      <trkpt lat="42.90052" lon="1.83578">
        <ele>696.61254882812</ele>
        <time>2014-04-20T07:58:53Z</time>
      </trkpt>
      <trkpt lat="42.90051" lon="1.83574">
        <ele>695.65112304688</ele>
        <time>2014-04-20T07:58:55Z</time>
      </trkpt>
      <trkpt lat="42.9005" lon="1.83567">
        <ele>693.728515625</ele>
        <time>2014-04-20T07:59:00Z</time>
      </trkpt>
      <trkpt lat="42.90049" lon="1.83553">
        <ele>687.96069335938</ele>
        <time>2014-04-20T07:59:07Z</time>
      </trkpt>
      <trkpt lat="42.90047" lon="1.83548">
        <ele>685.55737304688</ele>
        <time>2014-04-20T07:59:10Z</time>
      </trkpt>
      <trkpt lat="42.90046" lon="1.83547">
        <ele>684.59619140625</ele>
        <time>2014-04-20T07:59:11Z</time>
      </trkpt>
      <trkpt lat="42.9004" lon="1.8354">
        <ele>685.55737304688</ele>
        <time>2014-04-20T07:59:17Z</time>
      </trkpt>
      <trkpt lat="42.90033" lon="1.83534">
        <ele>689.40258789062</ele>
        <time>2014-04-20T07:59:22Z</time>
      </trkpt>
      <trkpt lat="42.90032" lon="1.83534">
        <ele>689.40258789062</ele>
        <time>2014-04-20T07:59:23Z</time>
      </trkpt>
      <trkpt lat="42.90024" lon="1.83529">
        <ele>688.44140625</ele>
        <time>2014-04-20T07:59:30Z</time>
      </trkpt>
      <trkpt lat="42.9002" lon="1.83529">
        <ele>688.44140625</ele>
        <time>2014-04-20T07:59:33Z</time>
      </trkpt>
      <trkpt lat="42.90013" lon="1.83528">
        <ele>690.36401367188</ele>
        <time>2014-04-20T07:59:39Z</time>
      </trkpt>
      <trkpt lat="42.90009" lon="1.83527">
        <ele>690.36401367188</ele>
        <time>2014-04-20T07:59:43Z</time>
      </trkpt>
      <trkpt lat="42.90002" lon="1.83523">
        <ele>699.015625</ele>
        <time>2014-04-20T07:59:48Z</time>
      </trkpt>
      <trkpt lat="42.89997" lon="1.83524">
        <ele>706.70629882812</ele>
        <time>2014-04-20T07:59:51Z</time>
      </trkpt>
      <trkpt lat="42.89987" lon="1.83517">
        <ele>711.51293945312</ele>
        <time>2014-04-20T07:59:59Z</time>
      </trkpt>
      <trkpt lat="42.89977" lon="1.83507">
        <ele>714.87744140625</ele>
        <time>2014-04-20T08:00:07Z</time>
      </trkpt>
      <trkpt lat="42.8997" lon="1.835">
        <ele>716.31958007812</ele>
        <time>2014-04-20T08:00:14Z</time>
      </trkpt>
      <trkpt lat="42.89968" lon="1.835">
        <ele>716.80029296875</ele>
        <time>2014-04-20T08:00:15Z</time>
      </trkpt>
      <trkpt lat="42.89964" lon="1.83495">
        <ele>716.31958007812</ele>
        <time>2014-04-20T08:00:20Z</time>
      </trkpt>
      <trkpt lat="42.89959" lon="1.83493">
        <ele>716.80029296875</ele>
        <time>2014-04-20T08:00:25Z</time>
      </trkpt>
      <trkpt lat="42.89949" lon="1.83487">
        <ele>719.20361328125</ele>
        <time>2014-04-20T08:00:33Z</time>
      </trkpt>
      <trkpt lat="42.89947" lon="1.83485">
        <ele>717.76147460938</ele>
        <time>2014-04-20T08:00:35Z</time>
      </trkpt>
      <trkpt lat="42.89947" lon="1.83478">
        <ele>717.28100585938</ele>
        <time>2014-04-20T08:00:39Z</time>
      </trkpt>
      <trkpt lat="42.89949" lon="1.83475">
        <ele>720.6455078125</ele>
        <time>2014-04-20T08:00:42Z</time>
      </trkpt>
      <trkpt lat="42.8995" lon="1.83472">
        <ele>724.49072265625</ele>
        <time>2014-04-20T08:00:47Z</time>
      </trkpt>
      <trkpt lat="42.89953" lon="1.83468">
        <ele>727.37475585938</ele>
        <time>2014-04-20T08:00:52Z</time>
      </trkpt>
      <trkpt lat="42.89955" lon="1.83463">
        <ele>725.9326171875</ele>
        <time>2014-04-20T08:00:55Z</time>
      </trkpt>
      <trkpt lat="42.89956" lon="1.8346">
        <ele>726.41333007812</ele>
        <time>2014-04-20T08:00:57Z</time>
      </trkpt>
      <trkpt lat="42.89953" lon="1.83453">
        <ele>724.01000976562</ele>
        <time>2014-04-20T08:01:05Z</time>
      </trkpt>
      <trkpt lat="42.89949" lon="1.83447">
        <ele>723.52954101562</ele>
        <time>2014-04-20T08:01:11Z</time>
      </trkpt>
      <trkpt lat="42.89948" lon="1.83445">
        <ele>722.56811523438</ele>
        <time>2014-04-20T08:01:13Z</time>
      </trkpt>
      <trkpt lat="42.89943" lon="1.83439">
        <ele>722.56811523438</ele>
        <time>2014-04-20T08:01:19Z</time>
      </trkpt>
      <trkpt lat="42.89939" lon="1.83437">
        <ele>725.45190429688</ele>
        <time>2014-04-20T08:01:24Z</time>
      </trkpt>
      <trkpt lat="42.89935" lon="1.83431">
        <ele>724.49072265625</ele>
        <time>2014-04-20T08:01:31Z</time>
      </trkpt>
      <trkpt lat="42.89931" lon="1.83426">
        <ele>723.048828125</ele>
        <time>2014-04-20T08:01:36Z</time>
      </trkpt>
      <trkpt lat="42.89928" lon="1.8342">
        <ele>722.56811523438</ele>
        <time>2014-04-20T08:01:40Z</time>
      </trkpt>
      <trkpt lat="42.89925" lon="1.83415">
        <ele>724.01000976562</ele>
        <time>2014-04-20T08:01:45Z</time>
      </trkpt>
      <trkpt lat="42.89925" lon="1.83402">
        <ele>724.49072265625</ele>
        <time>2014-04-20T08:01:53Z</time>
      </trkpt>
      <trkpt lat="42.89924" lon="1.83396">
        <ele>730.7392578125</ele>
        <time>2014-04-20T08:01:59Z</time>
      </trkpt>
      <trkpt lat="42.89917" lon="1.83385">
        <ele>738.42993164062</ele>
        <time>2014-04-20T08:02:06Z</time>
      </trkpt>
      <trkpt lat="42.89916" lon="1.83383">
        <ele>738.42993164062</ele>
        <time>2014-04-20T08:02:07Z</time>
      </trkpt>
      <trkpt lat="42.89913" lon="1.83377">
        <ele>737.46850585938</ele>
        <time>2014-04-20T08:02:11Z</time>
      </trkpt>
      <trkpt lat="42.89907" lon="1.83371">
        <ele>737.46850585938</ele>
        <time>2014-04-20T08:02:19Z</time>
      </trkpt>
      <trkpt lat="42.89903" lon="1.83367">
        <ele>738.42993164062</ele>
        <time>2014-04-20T08:02:24Z</time>
      </trkpt>
      <trkpt lat="42.89897" lon="1.83365">
        <ele>741.79443359375</ele>
        <time>2014-04-20T08:02:30Z</time>
      </trkpt>
      <trkpt lat="42.89891" lon="1.83362">
        <ele>745.6396484375</ele>
        <time>2014-04-20T08:02:37Z</time>
      </trkpt>
      <trkpt lat="42.89886" lon="1.83364">
        <ele>748.52368164062</ele>
        <time>2014-04-20T08:02:41Z</time>
      </trkpt>
      <trkpt lat="42.89881" lon="1.83362">
        <ele>748.52368164062</ele>
        <time>2014-04-20T08:02:48Z</time>
      </trkpt>
      <trkpt lat="42.89875" lon="1.83359">
        <ele>749.00439453125</ele>
        <time>2014-04-20T08:02:55Z</time>
      </trkpt>
      <trkpt lat="42.89873" lon="1.83354">
        <ele>748.52368164062</ele>
        <time>2014-04-20T08:03:01Z</time>
      </trkpt>
      <trkpt lat="42.8987" lon="1.8335">
        <ele>749.00439453125</ele>
        <time>2014-04-20T08:03:06Z</time>
      </trkpt>
      <trkpt lat="42.89866" lon="1.83343">
        <ele>754.29174804688</ele>
        <time>2014-04-20T08:03:12Z</time>
      </trkpt>
      <trkpt lat="42.89865" lon="1.83343">
        <ele>754.29174804688</ele>
        <time>2014-04-20T08:03:13Z</time>
      </trkpt>
      <trkpt lat="42.89862" lon="1.8334">
        <ele>753.81103515625</ele>
        <time>2014-04-20T08:03:17Z</time>
      </trkpt>
      <trkpt lat="42.89856" lon="1.83338">
        <ele>756.69482421875</ele>
        <time>2014-04-20T08:03:24Z</time>
      </trkpt>
      <trkpt lat="42.89851" lon="1.83338">
        <ele>756.69482421875</ele>
        <time>2014-04-20T08:03:30Z</time>
      </trkpt>
      <trkpt lat="42.89845" lon="1.83335">
        <ele>757.65625</ele>
        <time>2014-04-20T08:03:36Z</time>
      </trkpt>
      <trkpt lat="42.89841" lon="1.83335">
        <ele>761.02075195312</ele>
        <time>2014-04-20T08:03:41Z</time>
      </trkpt>
      <trkpt lat="42.89833" lon="1.83335">
        <ele>764.38549804688</ele>
        <time>2014-04-20T08:03:49Z</time>
      </trkpt>
      <trkpt lat="42.89828" lon="1.83334">
        <ele>767.26953125</ele>
        <time>2014-04-20T08:03:55Z</time>
      </trkpt>
      <trkpt lat="42.89823" lon="1.83332">
        <ele>769.19213867188</ele>
        <time>2014-04-20T08:04:01Z</time>
      </trkpt>
      <trkpt lat="42.89817" lon="1.83332">
        <ele>771.59521484375</ele>
        <time>2014-04-20T08:04:07Z</time>
      </trkpt>
      <trkpt lat="42.89812" lon="1.83332">
        <ele>773.03735351562</ele>
        <time>2014-04-20T08:04:11Z</time>
      </trkpt>
      <trkpt lat="42.89804" lon="1.83336">
        <ele>777.84375</ele>
        <time>2014-04-20T08:04:17Z</time>
      </trkpt>
      <trkpt lat="42.89796" lon="1.83339">
        <ele>783.13110351562</ele>
        <time>2014-04-20T08:04:24Z</time>
      </trkpt>
      <trkpt lat="42.89794" lon="1.83336">
        <ele>783.13110351562</ele>
        <time>2014-04-20T08:04:29Z</time>
      </trkpt>
      <trkpt lat="42.89791" lon="1.83333">
        <ele>780.72802734375</ele>
        <time>2014-04-20T08:04:32Z</time>
      </trkpt>
      <trkpt lat="42.89787" lon="1.8333">
        <ele>784.5732421875</ele>
        <time>2014-04-20T08:04:39Z</time>
      </trkpt>
      <trkpt lat="42.89782" lon="1.83326">
        <ele>780.72802734375</ele>
        <time>2014-04-20T08:04:44Z</time>
      </trkpt>
      <trkpt lat="42.89779" lon="1.83326">
        <ele>781.20874023438</ele>
        <time>2014-04-20T08:04:48Z</time>
      </trkpt>
      <trkpt lat="42.89776" lon="1.83325">
        <ele>783.61181640625</ele>
        <time>2014-04-20T08:04:50Z</time>
      </trkpt>
      <trkpt lat="42.89772" lon="1.83326">
        <ele>786.49584960938</ele>
        <time>2014-04-20T08:04:54Z</time>
      </trkpt>
      <trkpt lat="42.89768" lon="1.83327">
        <ele>786.97631835938</ele>
        <time>2014-04-20T08:04:58Z</time>
      </trkpt>
      <trkpt lat="42.89762" lon="1.83328">
        <ele>788.89916992188</ele>
        <time>2014-04-20T08:05:05Z</time>
      </trkpt>
      <trkpt lat="42.89756" lon="1.8333">
        <ele>792.74438476562</ele>
        <time>2014-04-20T08:05:10Z</time>
      </trkpt>
      <trkpt lat="42.89749" lon="1.8333">
        <ele>796.10913085938</ele>
        <time>2014-04-20T08:05:18Z</time>
      </trkpt>
      <trkpt lat="42.89746" lon="1.83332">
        <ele>798.03173828125</ele>
        <time>2014-04-20T08:05:20Z</time>
      </trkpt>
      <trkpt lat="42.89742" lon="1.8333">
        <ele>799.95434570312</ele>
        <time>2014-04-20T08:05:24Z</time>
      </trkpt>
      <trkpt lat="42.89736" lon="1.83329">
        <ele>800.43505859375</ele>
        <time>2014-04-20T08:05:30Z</time>
      </trkpt>
      <trkpt lat="42.89734" lon="1.83328">
        <ele>799.95434570312</ele>
        <time>2014-04-20T08:05:32Z</time>
      </trkpt>
      <trkpt lat="42.89727" lon="1.83325">
        <ele>800.43505859375</ele>
        <time>2014-04-20T08:05:38Z</time>
      </trkpt>
      <trkpt lat="42.89719" lon="1.83325">
        <ele>802.83813476562</ele>
        <time>2014-04-20T08:05:44Z</time>
      </trkpt>
      <trkpt lat="42.89716" lon="1.83325">
        <ele>806.68334960938</ele>
        <time>2014-04-20T08:05:48Z</time>
      </trkpt>
      <trkpt lat="42.89708" lon="1.8333">
        <ele>808.12548828125</ele>
        <time>2014-04-20T08:05:55Z</time>
      </trkpt>
      <trkpt lat="42.89705" lon="1.83334">
        <ele>808.60595703125</ele>
        <time>2014-04-20T08:05:59Z</time>
      </trkpt>
      <trkpt lat="42.89695" lon="1.83337">
        <ele>806.68334960938</ele>
        <time>2014-04-20T08:06:06Z</time>
      </trkpt>
      <trkpt lat="42.89689" lon="1.83337">
        <ele>805.72216796875</ele>
        <time>2014-04-20T08:06:11Z</time>
      </trkpt>
      <trkpt lat="42.89685" lon="1.83338">
        <ele>807.1640625</ele>
        <time>2014-04-20T08:06:15Z</time>
      </trkpt>
      <trkpt lat="42.89677" lon="1.83339">
        <ele>806.20263671875</ele>
        <time>2014-04-20T08:06:22Z</time>
      </trkpt>
      <trkpt lat="42.89673" lon="1.83339">
        <ele>807.1640625</ele>
        <time>2014-04-20T08:06:25Z</time>
      </trkpt>
      <trkpt lat="42.89665" lon="1.83337">
        <ele>804.7607421875</ele>
        <time>2014-04-20T08:06:31Z</time>
      </trkpt>
      <trkpt lat="42.89657" lon="1.83333">
        <ele>803.31884765625</ele>
        <time>2014-04-20T08:06:38Z</time>
      </trkpt>
      <trkpt lat="42.89654" lon="1.8333">
        <ele>803.31884765625</ele>
        <time>2014-04-20T08:06:41Z</time>
      </trkpt>
      <trkpt lat="42.8965" lon="1.83325">
        <ele>801.876953125</ele>
        <time>2014-04-20T08:06:45Z</time>
      </trkpt>
      <trkpt lat="42.89643" lon="1.83314">
        <ele>803.79956054688</ele>
        <time>2014-04-20T08:06:53Z</time>
      </trkpt>
      <trkpt lat="42.8964" lon="1.8331">
        <ele>804.2802734375</ele>
        <time>2014-04-20T08:06:56Z</time>
      </trkpt>
      <trkpt lat="42.89634" lon="1.83303">
        <ele>803.79956054688</ele>
        <time>2014-04-20T08:07:03Z</time>
      </trkpt>
      <trkpt lat="42.89631" lon="1.83302">
        <ele>802.83813476562</ele>
        <time>2014-04-20T08:07:05Z</time>
      </trkpt>
      <trkpt lat="42.89625" lon="1.833">
        <ele>802.83813476562</ele>
        <time>2014-04-20T08:07:10Z</time>
      </trkpt>
      <trkpt lat="42.8962" lon="1.83296">
        <ele>804.2802734375</ele>
        <time>2014-04-20T08:07:16Z</time>
      </trkpt>
      <trkpt lat="42.89617" lon="1.83291">
        <ele>806.68334960938</ele>
        <time>2014-04-20T08:07:22Z</time>
      </trkpt>
      <trkpt lat="42.89614" lon="1.83287">
        <ele>811.00927734375</ele>
        <time>2014-04-20T08:07:26Z</time>
      </trkpt>
      <trkpt lat="42.89607" lon="1.83282">
        <ele>812.93212890625</ele>
        <time>2014-04-20T08:07:33Z</time>
      </trkpt>
      <trkpt lat="42.89604" lon="1.8328">
        <ele>815.33544921875</ele>
        <time>2014-04-20T08:07:36Z</time>
      </trkpt>
      <trkpt lat="42.89599" lon="1.83277">
        <ele>815.81616210938</ele>
        <time>2014-04-20T08:07:41Z</time>
      </trkpt>
      <trkpt lat="42.89596" lon="1.83274">
        <ele>816.77734375</ele>
        <time>2014-04-20T08:07:43Z</time>
      </trkpt>
      <trkpt lat="42.89589" lon="1.83268">
        <ele>816.29663085938</ele>
        <time>2014-04-20T08:07:49Z</time>
      </trkpt>
      <trkpt lat="42.89581" lon="1.83263">
        <ele>818.69995117188</ele>
        <time>2014-04-20T08:07:57Z</time>
      </trkpt>
      <trkpt lat="42.8958" lon="1.83263">
        <ele>819.66137695312</ele>
        <time>2014-04-20T08:07:58Z</time>
      </trkpt>
      <trkpt lat="42.89573" lon="1.83259">
        <ele>824.4677734375</ele>
        <time>2014-04-20T08:08:06Z</time>
      </trkpt>
      <trkpt lat="42.89565" lon="1.83258">
        <ele>826.87109375</ele>
        <time>2014-04-20T08:08:13Z</time>
      </trkpt>
      <trkpt lat="42.89562" lon="1.83257">
        <ele>826.39038085938</ele>
        <time>2014-04-20T08:08:16Z</time>
      </trkpt>
      <trkpt lat="42.89555" lon="1.83254">
        <ele>825.42895507812</ele>
        <time>2014-04-20T08:08:23Z</time>
      </trkpt>
      <trkpt lat="42.89552" lon="1.83252">
        <ele>826.39038085938</ele>
        <time>2014-04-20T08:08:26Z</time>
      </trkpt>
      <trkpt lat="42.89547" lon="1.83248">
        <ele>827.35180664062</ele>
        <time>2014-04-20T08:08:33Z</time>
      </trkpt>
      <trkpt lat="42.89545" lon="1.83247">
        <ele>827.35180664062</ele>
        <time>2014-04-20T08:08:35Z</time>
      </trkpt>
      <trkpt lat="42.89539" lon="1.83242">
        <ele>824.94848632812</ele>
        <time>2014-04-20T08:08:41Z</time>
      </trkpt>
      <trkpt lat="42.8953" lon="1.83238">
        <ele>828.31323242188</ele>
        <time>2014-04-20T08:08:49Z</time>
      </trkpt>
      <trkpt lat="42.89528" lon="1.83237">
        <ele>827.83227539062</ele>
        <time>2014-04-20T08:08:51Z</time>
      </trkpt>
      <trkpt lat="42.89523" lon="1.83228">
        <ele>827.35180664062</ele>
        <time>2014-04-20T08:08:58Z</time>
      </trkpt>
      <trkpt lat="42.89517" lon="1.83226">
        <ele>826.39038085938</ele>
        <time>2014-04-20T08:09:03Z</time>
      </trkpt>
      <trkpt lat="42.89517" lon="1.83226">
        <ele>826.39038085938</ele>
        <time>2014-04-20T08:09:04Z</time>
      </trkpt>
      <trkpt lat="42.89511" lon="1.83223">
        <ele>829.2744140625</ele>
        <time>2014-04-20T08:09:10Z</time>
      </trkpt>
      <trkpt lat="42.89507" lon="1.83221">
        <ele>831.197265625</ele>
        <time>2014-04-20T08:09:14Z</time>
      </trkpt>
      <trkpt lat="42.89501" lon="1.83216">
        <ele>832.63916015625</ele>
        <time>2014-04-20T08:09:19Z</time>
      </trkpt>
      <trkpt lat="42.89497" lon="1.8321">
        <ele>830.71655273438</ele>
        <time>2014-04-20T08:09:24Z</time>
      </trkpt>
      <trkpt lat="42.89496" lon="1.83209">
        <ele>830.71655273438</ele>
        <time>2014-04-20T08:09:26Z</time>
      </trkpt>
      <trkpt lat="42.89495" lon="1.83208">
        <ele>831.197265625</ele>
        <time>2014-04-20T08:09:28Z</time>
      </trkpt>
      <trkpt lat="42.89489" lon="1.83206">
        <ele>830.23583984375</ele>
        <time>2014-04-20T08:09:34Z</time>
      </trkpt>
      <trkpt lat="42.89484" lon="1.83201">
        <ele>834.56176757812</ele>
        <time>2014-04-20T08:09:40Z</time>
      </trkpt>
      <trkpt lat="42.89479" lon="1.83191">
        <ele>843.21337890625</ele>
        <time>2014-04-20T08:09:47Z</time>
      </trkpt>
      <trkpt lat="42.89474" lon="1.83181">
        <ele>842.73291015625</ele>
        <time>2014-04-20T08:09:54Z</time>
      </trkpt>
      <trkpt lat="42.8947" lon="1.83174">
        <ele>842.73291015625</ele>
        <time>2014-04-20T08:10:01Z</time>
      </trkpt>
      <trkpt lat="42.89468" lon="1.83167">
        <ele>845.61694335938</ele>
        <time>2014-04-20T08:10:08Z</time>
      </trkpt>
      <trkpt lat="42.89463" lon="1.83161">
        <ele>848.50073242188</ele>
        <time>2014-04-20T08:10:15Z</time>
      </trkpt>
      <trkpt lat="42.89459" lon="1.83152">
        <ele>848.50073242188</ele>
        <time>2014-04-20T08:10:20Z</time>
      </trkpt>
      <trkpt lat="42.89457" lon="1.8315">
        <ele>848.50073242188</ele>
        <time>2014-04-20T08:10:23Z</time>
      </trkpt>
      <trkpt lat="42.89451" lon="1.83144">
        <ele>850.42358398438</ele>
        <time>2014-04-20T08:10:28Z</time>
      </trkpt>
      <trkpt lat="42.89444" lon="1.83134">
        <ele>849.46215820312</ele>
        <time>2014-04-20T08:10:35Z</time>
      </trkpt>
      <trkpt lat="42.89439" lon="1.83129">
        <ele>849.94287109375</ele>
        <time>2014-04-20T08:10:40Z</time>
      </trkpt>
      <trkpt lat="42.89433" lon="1.8312">
        <ele>851.86547851562</ele>
        <time>2014-04-20T08:10:47Z</time>
      </trkpt>
      <trkpt lat="42.89431" lon="1.83118">
        <ele>851.384765625</ele>
        <time>2014-04-20T08:10:49Z</time>
      </trkpt>
      <trkpt lat="42.89429" lon="1.83114">
        <ele>851.384765625</ele>
        <time>2014-04-20T08:10:52Z</time>
      </trkpt>
      <trkpt lat="42.89422" lon="1.83108">
        <ele>853.30737304688</ele>
        <time>2014-04-20T08:10:58Z</time>
      </trkpt>
      <trkpt lat="42.89418" lon="1.83101">
        <ele>855.71069335938</ele>
        <time>2014-04-20T08:11:04Z</time>
      </trkpt>
      <trkpt lat="42.89417" lon="1.831">
        <ele>855.71069335938</ele>
        <time>2014-04-20T08:11:05Z</time>
      </trkpt>
      <trkpt lat="42.89413" lon="1.83092">
        <ele>861.47875976562</ele>
        <time>2014-04-20T08:11:11Z</time>
      </trkpt>
      <trkpt lat="42.89412" lon="1.8309">
        <ele>862.43994140625</ele>
        <time>2014-04-20T08:11:13Z</time>
      </trkpt>
      <trkpt lat="42.89409" lon="1.83082">
        <ele>865.32397460938</ele>
        <time>2014-04-20T08:11:20Z</time>
      </trkpt>
      <trkpt lat="42.89408" lon="1.83077">
        <ele>873.4951171875</ele>
        <time>2014-04-20T08:11:23Z</time>
      </trkpt>
      <trkpt lat="42.89405" lon="1.8307">
        <ele>876.85986328125</ele>
        <time>2014-04-20T08:11:28Z</time>
      </trkpt>
      <trkpt lat="42.89402" lon="1.83064">
        <ele>876.37915039062</ele>
        <time>2014-04-20T08:11:34Z</time>
      </trkpt>
      <trkpt lat="42.89399" lon="1.83058">
        <ele>874.93701171875</ele>
        <time>2014-04-20T08:11:40Z</time>
      </trkpt>
      <trkpt lat="42.89398" lon="1.83057">
        <ele>873.9755859375</ele>
        <time>2014-04-20T08:11:41Z</time>
      </trkpt>
      <trkpt lat="42.89392" lon="1.83049">
        <ele>871.091796875</ele>
        <time>2014-04-20T08:11:48Z</time>
      </trkpt>
      <trkpt lat="42.8939" lon="1.83045">
        <ele>871.091796875</ele>
        <time>2014-04-20T08:11:53Z</time>
      </trkpt>
      <trkpt lat="42.89385" lon="1.83037">
        <ele>873.4951171875</ele>
        <time>2014-04-20T08:11:59Z</time>
      </trkpt>
      <trkpt lat="42.89385" lon="1.83036">
        <ele>874.45629882812</ele>
        <time>2014-04-20T08:12:00Z</time>
      </trkpt>
      <trkpt lat="42.89383" lon="1.83032">
        <ele>874.45629882812</ele>
        <time>2014-04-20T08:12:05Z</time>
      </trkpt>
      <trkpt lat="42.89378" lon="1.83024">
        <ele>877.34057617188</ele>
        <time>2014-04-20T08:12:10Z</time>
      </trkpt>
      <trkpt lat="42.89375" lon="1.83016">
        <ele>879.26293945312</ele>
        <time>2014-04-20T08:12:16Z</time>
      </trkpt>
      <trkpt lat="42.89373" lon="1.83012">
        <ele>880.705078125</ele>
        <time>2014-04-20T08:12:20Z</time>
      </trkpt>
      <trkpt lat="42.89372" lon="1.83009">
        <ele>881.18579101562</ele>
        <time>2014-04-20T08:12:22Z</time>
      </trkpt>
      <trkpt lat="42.89371" lon="1.83006">
        <ele>880.705078125</ele>
        <time>2014-04-20T08:12:24Z</time>
      </trkpt>
      <trkpt lat="42.89367" lon="1.82993">
        <ele>882.14697265625</ele>
        <time>2014-04-20T08:12:32Z</time>
      </trkpt>
      <trkpt lat="42.89365" lon="1.82989">
        <ele>882.62768554688</ele>
        <time>2014-04-20T08:12:36Z</time>
      </trkpt>
      <trkpt lat="42.89365" lon="1.82986">
        <ele>882.62768554688</ele>
        <time>2014-04-20T08:12:38Z</time>
      </trkpt>
      <trkpt lat="42.89362" lon="1.82977">
        <ele>886.47290039062</ele>
        <time>2014-04-20T08:12:43Z</time>
      </trkpt>
      <trkpt lat="42.89359" lon="1.8297">
        <ele>885.9921875</ele>
        <time>2014-04-20T08:12:47Z</time>
      </trkpt>
      <trkpt lat="42.89357" lon="1.8297">
        <ele>886.95336914062</ele>
        <time>2014-04-20T08:12:49Z</time>
      </trkpt>
      <trkpt lat="42.89351" lon="1.82982">
        <ele>895.12475585938</ele>
        <time>2014-04-20T08:12:55Z</time>
      </trkpt>
      <trkpt lat="42.89349" lon="1.82987">
        <ele>897.04736328125</ele>
        <time>2014-04-20T08:12:57Z</time>
      </trkpt>
      <trkpt lat="42.89347" lon="1.82998">
        <ele>901.37329101562</ele>
        <time>2014-04-20T08:13:02Z</time>
      </trkpt>
      <trkpt lat="42.89344" lon="1.83013">
        <ele>906.66040039062</ele>
        <time>2014-04-20T08:13:07Z</time>
      </trkpt>
      <trkpt lat="42.89338" lon="1.83031">
        <ele>910.505859375</ele>
        <time>2014-04-20T08:13:13Z</time>
      </trkpt>
      <trkpt lat="42.89337" lon="1.83034">
        <ele>910.505859375</ele>
        <time>2014-04-20T08:13:15Z</time>
      </trkpt>
      <trkpt lat="42.89334" lon="1.83038">
        <ele>910.98657226562</ele>
        <time>2014-04-20T08:13:18Z</time>
      </trkpt>
      <trkpt lat="42.89333" lon="1.83043">
        <ele>911.46728515625</ele>
        <time>2014-04-20T08:13:21Z</time>
      </trkpt>
      <trkpt lat="42.89328" lon="1.83062">
        <ele>915.79321289062</ele>
        <time>2014-04-20T08:13:27Z</time>
      </trkpt>
      <trkpt lat="42.89326" lon="1.83064">
        <ele>915.79321289062</ele>
        <time>2014-04-20T08:13:28Z</time>
      </trkpt>
      <trkpt lat="42.89323" lon="1.83071">
        <ele>917.23510742188</ele>
        <time>2014-04-20T08:13:31Z</time>
      </trkpt>
      <trkpt lat="42.89315" lon="1.83086">
        <ele>918.67700195312</ele>
        <time>2014-04-20T08:13:37Z</time>
      </trkpt>
      <trkpt lat="42.89314" lon="1.83088">
        <ele>919.15771484375</ele>
        <time>2014-04-20T08:13:38Z</time>
      </trkpt>
      <trkpt lat="42.89309" lon="1.83101">
        <ele>922.52221679688</ele>
        <time>2014-04-20T08:13:43Z</time>
      </trkpt>
      <trkpt lat="42.89302" lon="1.83113">
        <ele>924.44506835938</ele>
        <time>2014-04-20T08:13:48Z</time>
      </trkpt>
      <trkpt lat="42.89289" lon="1.83122">
        <ele>924.44506835938</ele>
        <time>2014-04-20T08:13:53Z</time>
      </trkpt>
      <trkpt lat="42.89279" lon="1.83131">
        <ele>923.48364257812</ele>
        <time>2014-04-20T08:13:58Z</time>
      </trkpt>
      <trkpt lat="42.89272" lon="1.83144">
        <ele>923.96411132812</ele>
        <time>2014-04-20T08:14:04Z</time>
      </trkpt>
      <trkpt lat="42.89267" lon="1.83156">
        <ele>924.92578125</ele>
        <time>2014-04-20T08:14:08Z</time>
      </trkpt>
      <trkpt lat="42.89261" lon="1.83165">
        <ele>922.52221679688</ele>
        <time>2014-04-20T08:14:12Z</time>
      </trkpt>
      <trkpt lat="42.89252" lon="1.8318">
        <ele>920.599609375</ele>
        <time>2014-04-20T08:14:16Z</time>
      </trkpt>
      <trkpt lat="42.89247" lon="1.83192">
        <ele>919.15771484375</ele>
        <time>2014-04-20T08:14:20Z</time>
      </trkpt>
      <trkpt lat="42.89245" lon="1.83195">
        <ele>919.15771484375</ele>
        <time>2014-04-20T08:14:21Z</time>
      </trkpt>
      <trkpt lat="42.89237" lon="1.83218">
        <ele>921.08032226562</ele>
        <time>2014-04-20T08:14:27Z</time>
      </trkpt>
      <trkpt lat="42.89234" lon="1.83235">
        <ele>921.08032226562</ele>
        <time>2014-04-20T08:14:32Z</time>
      </trkpt>
      <trkpt lat="42.89229" lon="1.83247">
        <ele>917.71557617188</ele>
        <time>2014-04-20T08:14:36Z</time>
      </trkpt>
      <trkpt lat="42.89222" lon="1.83259">
        <ele>915.79321289062</ele>
        <time>2014-04-20T08:14:40Z</time>
      </trkpt>
      <trkpt lat="42.89214" lon="1.83276">
        <ele>915.3125</ele>
        <time>2014-04-20T08:14:45Z</time>
      </trkpt>
      <trkpt lat="42.89205" lon="1.83286">
        <ele>914.35107421875</ele>
        <time>2014-04-20T08:14:49Z</time>
      </trkpt>
      <trkpt lat="42.89204" lon="1.83288">
        <ele>914.35107421875</ele>
        <time>2014-04-20T08:14:50Z</time>
      </trkpt>
      <trkpt lat="42.89196" lon="1.83295">
        <ele>915.79321289062</ele>
        <time>2014-04-20T08:14:54Z</time>
      </trkpt>
      <trkpt lat="42.89186" lon="1.83303">
        <ele>914.83178710938</ele>
        <time>2014-04-20T08:14:59Z</time>
      </trkpt>
      <trkpt lat="42.89184" lon="1.83303">
        <ele>914.35107421875</ele>
        <time>2014-04-20T08:15:00Z</time>
      </trkpt>
      <trkpt lat="42.89174" lon="1.83314">
        <ele>910.505859375</ele>
        <time>2014-04-20T08:15:05Z</time>
      </trkpt>
      <trkpt lat="42.89162" lon="1.83326">
        <ele>908.10278320312</ele>
        <time>2014-04-20T08:15:10Z</time>
      </trkpt>
      <trkpt lat="42.89159" lon="1.83328">
        <ele>907.14111328125</ele>
        <time>2014-04-20T08:15:11Z</time>
      </trkpt>
      <trkpt lat="42.89146" lon="1.83348">
        <ele>909.06396484375</ele>
        <time>2014-04-20T08:15:16Z</time>
      </trkpt>
      <trkpt lat="42.89143" lon="1.83353">
        <ele>909.06396484375</ele>
        <time>2014-04-20T08:15:18Z</time>
      </trkpt>
      <trkpt lat="42.89131" lon="1.83357">
        <ele>906.66040039062</ele>
        <time>2014-04-20T08:15:23Z</time>
      </trkpt>
      <trkpt lat="42.89127" lon="1.83355">
        <ele>905.21850585938</ele>
        <time>2014-04-20T08:15:26Z</time>
      </trkpt>
      <trkpt lat="42.89119" lon="1.83347">
        <ele>898.0087890625</ele>
        <time>2014-04-20T08:15:33Z</time>
      </trkpt>
      <trkpt lat="42.89112" lon="1.83341">
        <ele>898.96997070312</ele>
        <time>2014-04-20T08:15:38Z</time>
      </trkpt>
      <trkpt lat="42.89104" lon="1.83333">
        <ele>898.96997070312</ele>
        <time>2014-04-20T08:15:43Z</time>
      </trkpt>
      <trkpt lat="42.89096" lon="1.8332">
        <ele>901.37329101562</ele>
        <time>2014-04-20T08:15:48Z</time>
      </trkpt>
      <trkpt lat="42.89089" lon="1.83311">
        <ele>901.37329101562</ele>
        <time>2014-04-20T08:15:52Z</time>
      </trkpt>
      <trkpt lat="42.89082" lon="1.83299">
        <ele>903.2958984375</ele>
        <time>2014-04-20T08:15:57Z</time>
      </trkpt>
      <trkpt lat="42.89073" lon="1.83291">
        <ele>905.69921875</ele>
        <time>2014-04-20T08:16:02Z</time>
      </trkpt>
      <trkpt lat="42.89066" lon="1.83288">
        <ele>907.14111328125</ele>
        <time>2014-04-20T08:16:06Z</time>
      </trkpt>
      <trkpt lat="42.89061" lon="1.83287">
        <ele>907.14111328125</ele>
        <time>2014-04-20T08:16:08Z</time>
      </trkpt>
      <trkpt lat="42.89053" lon="1.83276">
        <ele>908.10278320312</ele>
        <time>2014-04-20T08:16:13Z</time>
      </trkpt>
      <trkpt lat="42.89046" lon="1.83269">
        <ele>909.06396484375</ele>
        <time>2014-04-20T08:16:18Z</time>
      </trkpt>
      <trkpt lat="42.89042" lon="1.83265">
        <ele>908.10278320312</ele>
        <time>2014-04-20T08:16:20Z</time>
      </trkpt>
      <trkpt lat="42.89034" lon="1.83259">
        <ele>906.1796875</ele>
        <time>2014-04-20T08:16:24Z</time>
      </trkpt>
      <trkpt lat="42.89024" lon="1.83247">
        <ele>905.69921875</ele>
        <time>2014-04-20T08:16:29Z</time>
      </trkpt>
      <trkpt lat="42.89016" lon="1.83239">
        <ele>905.69921875</ele>
        <time>2014-04-20T08:16:33Z</time>
      </trkpt>
      <trkpt lat="42.89012" lon="1.83235">
        <ele>907.14111328125</ele>
        <time>2014-04-20T08:16:35Z</time>
      </trkpt>
      <trkpt lat="42.88993" lon="1.83228">
        <ele>909.06396484375</ele>
        <time>2014-04-20T08:16:42Z</time>
      </trkpt>
      <trkpt lat="42.88979" lon="1.83226">
        <ele>913.38989257812</ele>
        <time>2014-04-20T08:16:47Z</time>
      </trkpt>
      <trkpt lat="42.88967" lon="1.83227">
        <ele>916.27368164062</ele>
        <time>2014-04-20T08:16:52Z</time>
      </trkpt>
      <trkpt lat="42.88957" lon="1.83226">
        <ele>917.71557617188</ele>
        <time>2014-04-20T08:16:56Z</time>
      </trkpt>
      <trkpt lat="42.88945" lon="1.83223">
        <ele>920.11889648438</ele>
        <time>2014-04-20T08:17:01Z</time>
      </trkpt>
      <trkpt lat="42.88932" lon="1.8322">
        <ele>921.56079101562</ele>
        <time>2014-04-20T08:17:06Z</time>
      </trkpt>
      <trkpt lat="42.88918" lon="1.83219">
        <ele>923.96411132812</ele>
        <time>2014-04-20T08:17:12Z</time>
      </trkpt>
      <trkpt lat="42.88905" lon="1.83218">
        <ele>924.92578125</ele>
        <time>2014-04-20T08:17:17Z</time>
      </trkpt>
      <trkpt lat="42.8889" lon="1.83217">
        <ele>924.92578125</ele>
        <time>2014-04-20T08:17:23Z</time>
      </trkpt>
      <trkpt lat="42.88881" lon="1.83215">
        <ele>925.40625</ele>
        <time>2014-04-20T08:17:27Z</time>
      </trkpt>
      <trkpt lat="42.88876" lon="1.83214">
        <ele>925.88696289062</ele>
        <time>2014-04-20T08:17:29Z</time>
      </trkpt>
      <trkpt lat="42.88865" lon="1.83212">
        <ele>926.36767578125</ele>
        <time>2014-04-20T08:17:34Z</time>
      </trkpt>
      <trkpt lat="42.88857" lon="1.83214">
        <ele>926.36767578125</ele>
        <time>2014-04-20T08:17:38Z</time>
      </trkpt>
      <trkpt lat="42.88855" lon="1.83214">
        <ele>926.36767578125</ele>
        <time>2014-04-20T08:17:39Z</time>
      </trkpt>
      <trkpt lat="42.88839" lon="1.83216">
        <ele>924.44506835938</ele>
        <time>2014-04-20T08:17:46Z</time>
      </trkpt>
      <trkpt lat="42.88829" lon="1.83218">
        <ele>922.52221679688</ele>
        <time>2014-04-20T08:17:50Z</time>
      </trkpt>
      <trkpt lat="42.88812" lon="1.83217">
        <ele>919.15771484375</ele>
        <time>2014-04-20T08:17:57Z</time>
      </trkpt>
      <trkpt lat="42.88799" lon="1.83209">
        <ele>915.3125</ele>
        <time>2014-04-20T08:18:03Z</time>
      </trkpt>
      <trkpt lat="42.88789" lon="1.832">
        <ele>910.98657226562</ele>
        <time>2014-04-20T08:18:08Z</time>
      </trkpt>
      <trkpt lat="42.88781" lon="1.83191">
        <ele>909.06396484375</ele>
        <time>2014-04-20T08:18:12Z</time>
      </trkpt>
      <trkpt lat="42.8877" lon="1.83179">
        <ele>905.69921875</ele>
        <time>2014-04-20T08:18:17Z</time>
      </trkpt>
      <trkpt lat="42.88756" lon="1.83165">
        <ele>902.81518554688</ele>
        <time>2014-04-20T08:18:23Z</time>
      </trkpt>
      <trkpt lat="42.88747" lon="1.83157">
        <ele>899.93139648438</ele>
        <time>2014-04-20T08:18:28Z</time>
      </trkpt>
      <trkpt lat="42.88731" lon="1.8314">
        <ele>897.04736328125</ele>
        <time>2014-04-20T08:18:35Z</time>
      </trkpt>
      <trkpt lat="42.88723" lon="1.83127">
        <ele>894.64404296875</ele>
        <time>2014-04-20T08:18:39Z</time>
      </trkpt>
      <trkpt lat="42.88715" lon="1.83114">
        <ele>892.7216796875</ele>
        <time>2014-04-20T08:18:43Z</time>
      </trkpt>
      <trkpt lat="42.88707" lon="1.831">
        <ele>888.87622070312</ele>
        <time>2014-04-20T08:18:48Z</time>
      </trkpt>
      <trkpt lat="42.887" lon="1.83088">
        <ele>886.47290039062</ele>
        <time>2014-04-20T08:18:52Z</time>
      </trkpt>
      <trkpt lat="42.88687" lon="1.8307">
        <ele>884.06958007812</ele>
        <time>2014-04-20T08:18:58Z</time>
      </trkpt>
      <trkpt lat="42.88682" lon="1.83066">
        <ele>882.62768554688</ele>
        <time>2014-04-20T08:19:01Z</time>
      </trkpt>
      <trkpt lat="42.8867" lon="1.8307">
        <ele>878.78247070312</ele>
        <time>2014-04-20T08:19:06Z</time>
      </trkpt>
      <trkpt lat="42.8866" lon="1.83072">
        <ele>877.34057617188</ele>
        <time>2014-04-20T08:19:11Z</time>
      </trkpt>
      <trkpt lat="42.88649" lon="1.8308">
        <ele>876.85986328125</ele>
        <time>2014-04-20T08:19:16Z</time>
      </trkpt>
      <trkpt lat="42.88637" lon="1.83084">
        <ele>875.89819335938</ele>
        <time>2014-04-20T08:19:20Z</time>
      </trkpt>
      <trkpt lat="42.88623" lon="1.83084">
        <ele>874.45629882812</ele>
        <time>2014-04-20T08:19:24Z</time>
      </trkpt>
      <trkpt lat="42.88612" lon="1.8308">
        <ele>872.53369140625</ele>
        <time>2014-04-20T08:19:28Z</time>
      </trkpt>
      <trkpt lat="42.88609" lon="1.83079">
        <ele>871.572265625</ele>
        <time>2014-04-20T08:19:29Z</time>
      </trkpt>
      <trkpt lat="42.88596" lon="1.83081">
        <ele>869.16918945312</ele>
        <time>2014-04-20T08:19:34Z</time>
      </trkpt>
      <trkpt lat="42.88577" lon="1.83088">
        <ele>865.32397460938</ele>
        <time>2014-04-20T08:19:40Z</time>
      </trkpt>
      <trkpt lat="42.88562" lon="1.83097">
        <ele>865.32397460938</ele>
        <time>2014-04-20T08:19:45Z</time>
      </trkpt>
      <trkpt lat="42.88549" lon="1.831">
        <ele>865.8046875</ele>
        <time>2014-04-20T08:19:49Z</time>
      </trkpt>
      <trkpt lat="42.88538" lon="1.83101">
        <ele>865.8046875</ele>
        <time>2014-04-20T08:19:53Z</time>
      </trkpt>
      <trkpt lat="42.88535" lon="1.83101">
        <ele>866.28515625</ele>
        <time>2014-04-20T08:19:54Z</time>
      </trkpt>
      <trkpt lat="42.8852" lon="1.83109">
        <ele>867.24658203125</ele>
        <time>2014-04-20T08:19:59Z</time>
      </trkpt>
      <trkpt lat="42.88509" lon="1.83112">
        <ele>868.20776367188</ele>
        <time>2014-04-20T08:20:03Z</time>
      </trkpt>
      <trkpt lat="42.88497" lon="1.83115">
        <ele>869.16918945312</ele>
        <time>2014-04-20T08:20:08Z</time>
      </trkpt>
      <trkpt lat="42.88489" lon="1.8311">
        <ele>868.6884765625</ele>
        <time>2014-04-20T08:20:12Z</time>
      </trkpt>
      <trkpt lat="42.88481" lon="1.83109">
        <ele>867.72705078125</ele>
        <time>2014-04-20T08:20:15Z</time>
      </trkpt>
      <trkpt lat="42.88479" lon="1.83107">
        <ele>867.24658203125</ele>
        <time>2014-04-20T08:20:16Z</time>
      </trkpt>
      <trkpt lat="42.88472" lon="1.83102">
        <ele>866.76586914062</ele>
        <time>2014-04-20T08:20:20Z</time>
      </trkpt>
      <trkpt lat="42.88469" lon="1.83101">
        <ele>866.76586914062</ele>
        <time>2014-04-20T08:20:22Z</time>
      </trkpt>
      <trkpt lat="42.88464" lon="1.83101">
        <ele>866.28515625</ele>
        <time>2014-04-20T08:20:26Z</time>
      </trkpt>
      <trkpt lat="42.8846" lon="1.831">
        <ele>865.8046875</ele>
        <time>2014-04-20T08:20:30Z</time>
      </trkpt>
      <trkpt lat="42.88457" lon="1.83099">
        <ele>867.24658203125</ele>
        <time>2014-04-20T08:20:33Z</time>
      </trkpt>
      <trkpt lat="42.88449" lon="1.83098">
        <ele>867.72705078125</ele>
        <time>2014-04-20T08:20:40Z</time>
      </trkpt>
      <trkpt lat="42.88444" lon="1.83097">
        <ele>868.20776367188</ele>
        <time>2014-04-20T08:20:45Z</time>
      </trkpt>
      <trkpt lat="42.88437" lon="1.83094">
        <ele>871.572265625</ele>
        <time>2014-04-20T08:20:52Z</time>
      </trkpt>
      <trkpt lat="42.88432" lon="1.83089">
        <ele>873.9755859375</ele>
        <time>2014-04-20T08:20:57Z</time>
      </trkpt>
      <trkpt lat="42.88427" lon="1.83085">
        <ele>873.4951171875</ele>
        <time>2014-04-20T08:21:02Z</time>
      </trkpt>
      <trkpt lat="42.88419" lon="1.83079">
        <ele>872.05297851562</ele>
        <time>2014-04-20T08:21:07Z</time>
      </trkpt>
      <trkpt lat="42.8841" lon="1.83074">
        <ele>871.572265625</ele>
        <time>2014-04-20T08:21:11Z</time>
      </trkpt>
      <trkpt lat="42.88401" lon="1.83073">
        <ele>871.572265625</ele>
        <time>2014-04-20T08:21:15Z</time>
      </trkpt>
      <trkpt lat="42.884" lon="1.83071">
        <ele>872.05297851562</ele>
        <time>2014-04-20T08:21:16Z</time>
      </trkpt>
      <trkpt lat="42.88394" lon="1.83066">
        <ele>872.53369140625</ele>
        <time>2014-04-20T08:21:19Z</time>
      </trkpt>
      <trkpt lat="42.88387" lon="1.83058">
        <ele>872.05297851562</ele>
        <time>2014-04-20T08:21:23Z</time>
      </trkpt>
      <trkpt lat="42.88377" lon="1.83055">
        <ele>873.4951171875</ele>
        <time>2014-04-20T08:21:27Z</time>
      </trkpt>
      <trkpt lat="42.88363" lon="1.83054">
        <ele>876.37915039062</ele>
        <time>2014-04-20T08:21:34Z</time>
      </trkpt>
      <trkpt lat="42.88353" lon="1.83054">
        <ele>876.37915039062</ele>
        <time>2014-04-20T08:21:39Z</time>
      </trkpt>
      <trkpt lat="42.88343" lon="1.83056">
        <ele>874.93701171875</ele>
        <time>2014-04-20T08:21:44Z</time>
      </trkpt>
      <trkpt lat="42.88333" lon="1.83049">
        <ele>873.01440429688</ele>
        <time>2014-04-20T08:21:49Z</time>
      </trkpt>
      <trkpt lat="42.88326" lon="1.83042">
        <ele>873.9755859375</ele>
        <time>2014-04-20T08:21:53Z</time>
      </trkpt>
      <trkpt lat="42.88319" lon="1.83035">
        <ele>873.01440429688</ele>
        <time>2014-04-20T08:21:57Z</time>
      </trkpt>
      <trkpt lat="42.88317" lon="1.83028">
        <ele>874.93701171875</ele>
        <time>2014-04-20T08:21:59Z</time>
      </trkpt>
      <trkpt lat="42.88309" lon="1.8301">
        <ele>878.3017578125</ele>
        <time>2014-04-20T08:22:05Z</time>
      </trkpt>
      <trkpt lat="42.88305" lon="1.83">
        <ele>879.74365234375</ele>
        <time>2014-04-20T08:22:09Z</time>
      </trkpt>
      <trkpt lat="42.88303" lon="1.82992">
        <ele>876.85986328125</ele>
        <time>2014-04-20T08:22:13Z</time>
      </trkpt>
      <trkpt lat="42.88295" lon="1.82976">
        <ele>880.22436523438</ele>
        <time>2014-04-20T08:22:19Z</time>
      </trkpt>
      <trkpt lat="42.88291" lon="1.82962">
        <ele>886.95336914062</ele>
        <time>2014-04-20T08:22:24Z</time>
      </trkpt>
      <trkpt lat="42.88288" lon="1.82955">
        <ele>889.83740234375</ele>
        <time>2014-04-20T08:22:28Z</time>
      </trkpt>
      <trkpt lat="42.88285" lon="1.82947">
        <ele>892.7216796875</ele>
        <time>2014-04-20T08:22:33Z</time>
      </trkpt>
      <trkpt lat="42.88282" lon="1.82939">
        <ele>892.7216796875</ele>
        <time>2014-04-20T08:22:40Z</time>
      </trkpt>
      <trkpt lat="42.88281" lon="1.82935">
        <ele>892.7216796875</ele>
        <time>2014-04-20T08:22:42Z</time>
      </trkpt>
      <trkpt lat="42.88279" lon="1.82931">
        <ele>891.279296875</ele>
        <time>2014-04-20T08:22:46Z</time>
      </trkpt>
      <trkpt lat="42.88273" lon="1.82921">
        <ele>890.31811523438</ele>
        <time>2014-04-20T08:22:55Z</time>
      </trkpt>
      <trkpt lat="42.88272" lon="1.82917">
        <ele>889.35668945312</ele>
        <time>2014-04-20T08:22:57Z</time>
      </trkpt>
      <trkpt lat="42.88268" lon="1.82914">
        <ele>887.43408203125</ele>
        <time>2014-04-20T08:23:01Z</time>
      </trkpt>
      <trkpt lat="42.88265" lon="1.82908">
        <ele>886.95336914062</ele>
        <time>2014-04-20T08:23:05Z</time>
      </trkpt>
      <trkpt lat="42.88264" lon="1.82903">
        <ele>886.47290039062</ele>
        <time>2014-04-20T08:23:08Z</time>
      </trkpt>
      <trkpt lat="42.8826" lon="1.82894">
        <ele>880.22436523438</ele>
        <time>2014-04-20T08:23:17Z</time>
      </trkpt>
      <trkpt lat="42.88257" lon="1.82889">
        <ele>875.89819335938</ele>
        <time>2014-04-20T08:23:23Z</time>
      </trkpt>
      <trkpt lat="42.88255" lon="1.82888">
        <ele>872.53369140625</ele>
        <time>2014-04-20T08:23:27Z</time>
      </trkpt>
      <trkpt lat="42.88252" lon="1.82885">
        <ele>869.16918945312</ele>
        <time>2014-04-20T08:23:32Z</time>
      </trkpt>
      <trkpt lat="42.88247" lon="1.82882">
        <ele>868.6884765625</ele>
        <time>2014-04-20T08:23:37Z</time>
      </trkpt>
      <trkpt lat="42.88242" lon="1.82879">
        <ele>868.20776367188</ele>
        <time>2014-04-20T08:23:41Z</time>
      </trkpt>
      <trkpt lat="42.8824" lon="1.82877">
        <ele>868.20776367188</ele>
        <time>2014-04-20T08:23:44Z</time>
      </trkpt>
      <trkpt lat="42.88231" lon="1.82871">
        <ele>874.45629882812</ele>
        <time>2014-04-20T08:23:50Z</time>
      </trkpt>
      <trkpt lat="42.88228" lon="1.8287">
        <ele>874.45629882812</ele>
        <time>2014-04-20T08:23:53Z</time>
      </trkpt>
      <trkpt lat="42.88218" lon="1.82868">
        <ele>882.14697265625</ele>
        <time>2014-04-20T08:24:00Z</time>
      </trkpt>
      <trkpt lat="42.88209" lon="1.82864">
        <ele>892.7216796875</ele>
        <time>2014-04-20T08:24:06Z</time>
      </trkpt>
      <trkpt lat="42.882" lon="1.82862">
        <ele>901.37329101562</ele>
        <time>2014-04-20T08:24:13Z</time>
      </trkpt>
      <trkpt lat="42.88196" lon="1.8286">
        <ele>904.25732421875</ele>
        <time>2014-04-20T08:24:18Z</time>
      </trkpt>
      <trkpt lat="42.88189" lon="1.82856">
        <ele>910.02514648438</ele>
        <time>2014-04-20T08:24:26Z</time>
      </trkpt>
      <trkpt lat="42.88188" lon="1.82856">
        <ele>910.02514648438</ele>
        <time>2014-04-20T08:24:27Z</time>
      </trkpt>
      <trkpt lat="42.88181" lon="1.82854">
        <ele>912.9091796875</ele>
        <time>2014-04-20T08:24:34Z</time>
      </trkpt>
      <trkpt lat="42.88175" lon="1.82854">
        <ele>914.35107421875</ele>
        <time>2014-04-20T08:24:41Z</time>
      </trkpt>
      <trkpt lat="42.8817" lon="1.82851">
        <ele>915.79321289062</ele>
        <time>2014-04-20T08:24:46Z</time>
      </trkpt>
      <trkpt lat="42.88169" lon="1.82851">
        <ele>915.79321289062</ele>
        <time>2014-04-20T08:24:47Z</time>
      </trkpt>
      <trkpt lat="42.88162" lon="1.82848">
        <ele>916.75439453125</ele>
        <time>2014-04-20T08:24:52Z</time>
      </trkpt>
      <trkpt lat="42.88154" lon="1.82845">
        <ele>916.27368164062</ele>
        <time>2014-04-20T08:24:56Z</time>
      </trkpt>
      <trkpt lat="42.88152" lon="1.82843">
        <ele>917.71557617188</ele>
        <time>2014-04-20T08:24:57Z</time>
      </trkpt>
      <trkpt lat="42.88144" lon="1.82836">
        <ele>919.63842773438</ele>
        <time>2014-04-20T08:25:01Z</time>
      </trkpt>
      <trkpt lat="42.88131" lon="1.82834">
        <ele>922.04150390625</ele>
        <time>2014-04-20T08:25:05Z</time>
      </trkpt>
      <trkpt lat="42.88126" lon="1.82829">
        <ele>925.88696289062</ele>
        <time>2014-04-20T08:25:08Z</time>
      </trkpt>
      <trkpt lat="42.88121" lon="1.82827">
        <ele>927.8095703125</ele>
        <time>2014-04-20T08:25:11Z</time>
      </trkpt>
      <trkpt lat="42.8811" lon="1.82823">
        <ele>929.73217773438</ele>
        <time>2014-04-20T08:25:15Z</time>
      </trkpt>
      <trkpt lat="42.881" lon="1.82819">
        <ele>931.65478515625</ele>
        <time>2014-04-20T08:25:19Z</time>
      </trkpt>
      <trkpt lat="42.88097" lon="1.8282">
        <ele>931.65478515625</ele>
        <time>2014-04-20T08:25:20Z</time>
      </trkpt>
      <trkpt lat="42.88081" lon="1.82825">
        <ele>933.57739257812</ele>
        <time>2014-04-20T08:25:26Z</time>
      </trkpt>
      <trkpt lat="42.88073" lon="1.82827">
        <ele>934.53881835938</ele>
        <time>2014-04-20T08:25:29Z</time>
      </trkpt>
      <trkpt lat="42.88062" lon="1.82825">
        <ele>935.5</ele>
        <time>2014-04-20T08:25:35Z</time>
      </trkpt>
      <trkpt lat="42.88055" lon="1.82822">
        <ele>934.53881835938</ele>
        <time>2014-04-20T08:25:42Z</time>
      </trkpt>
      <trkpt lat="42.88052" lon="1.82821">
        <ele>933.57739257812</ele>
        <time>2014-04-20T08:25:45Z</time>
      </trkpt>
      <trkpt lat="42.88047" lon="1.82821">
        <ele>933.0966796875</ele>
        <time>2014-04-20T08:25:49Z</time>
      </trkpt>
      <trkpt lat="42.88041" lon="1.82823">
        <ele>933.0966796875</ele>
        <time>2014-04-20T08:25:53Z</time>
      </trkpt>
      <trkpt lat="42.88034" lon="1.82814">
        <ele>933.57739257812</ele>
        <time>2014-04-20T08:26:01Z</time>
      </trkpt>
      <trkpt lat="42.88034" lon="1.82813">
        <ele>933.57739257812</ele>
        <time>2014-04-20T08:26:02Z</time>
      </trkpt>
      <trkpt lat="42.88033" lon="1.82811">
        <ele>933.0966796875</ele>
        <time>2014-04-20T08:26:04Z</time>
      </trkpt>
      <trkpt lat="42.88028" lon="1.82811">
        <ele>932.6162109375</ele>
        <time>2014-04-20T08:26:08Z</time>
      </trkpt>
      <trkpt lat="42.88026" lon="1.8281">
        <ele>932.13549804688</ele>
        <time>2014-04-20T08:26:09Z</time>
      </trkpt>
      <trkpt lat="42.88023" lon="1.82807">
        <ele>931.17431640625</ele>
        <time>2014-04-20T08:26:12Z</time>
      </trkpt>
      <trkpt lat="42.88013" lon="1.82796">
        <ele>931.17431640625</ele>
        <time>2014-04-20T08:26:17Z</time>
      </trkpt>
      <trkpt lat="42.8801" lon="1.82792">
        <ele>930.69360351562</ele>
        <time>2014-04-20T08:26:19Z</time>
      </trkpt>
      <trkpt lat="42.88004" lon="1.82779">
        <ele>932.6162109375</ele>
        <time>2014-04-20T08:26:24Z</time>
      </trkpt>
      <trkpt lat="42.88003" lon="1.82776">
        <ele>933.57739257812</ele>
        <time>2014-04-20T08:26:25Z</time>
      </trkpt>
      <trkpt lat="42.87994" lon="1.82766">
        <ele>934.05810546875</ele>
        <time>2014-04-20T08:26:30Z</time>
      </trkpt>
      <trkpt lat="42.87988" lon="1.82761">
        <ele>935.01953125</ele>
        <time>2014-04-20T08:26:33Z</time>
      </trkpt>
      <trkpt lat="42.87981" lon="1.82749">
        <ele>935.01953125</ele>
        <time>2014-04-20T08:26:37Z</time>
      </trkpt>
      <trkpt lat="42.87973" lon="1.82729">
        <ele>936.94189453125</ele>
        <time>2014-04-20T08:26:43Z</time>
      </trkpt>
      <trkpt lat="42.87964" lon="1.82715">
        <ele>937.9033203125</ele>
        <time>2014-04-20T08:26:48Z</time>
      </trkpt>
      <trkpt lat="42.87959" lon="1.82705">
        <ele>938.86474609375</ele>
        <time>2014-04-20T08:26:51Z</time>
      </trkpt>
      <trkpt lat="42.87951" lon="1.82689">
        <ele>942.2294921875</ele>
        <time>2014-04-20T08:26:55Z</time>
      </trkpt>
      <trkpt lat="42.87949" lon="1.82684">
        <ele>943.67138671875</ele>
        <time>2014-04-20T08:26:56Z</time>
      </trkpt>
      <trkpt lat="42.87941" lon="1.82669">
        <ele>944.63256835938</ele>
        <time>2014-04-20T08:27:01Z</time>
      </trkpt>
      <trkpt lat="42.87935" lon="1.82659">
        <ele>943.67138671875</ele>
        <time>2014-04-20T08:27:06Z</time>
      </trkpt>
      <trkpt lat="42.87932" lon="1.82656">
        <ele>943.67138671875</ele>
        <time>2014-04-20T08:27:08Z</time>
      </trkpt>
      <trkpt lat="42.87929" lon="1.82645">
        <ele>943.19067382812</ele>
        <time>2014-04-20T08:27:12Z</time>
      </trkpt>
      <trkpt lat="42.8792" lon="1.82629">
        <ele>945.11328125</ele>
        <time>2014-04-20T08:27:17Z</time>
      </trkpt>
      <trkpt lat="42.87915" lon="1.82612">
        <ele>944.15209960938</ele>
        <time>2014-04-20T08:27:22Z</time>
      </trkpt>
      <trkpt lat="42.87913" lon="1.82607">
        <ele>942.71020507812</ele>
        <time>2014-04-20T08:27:24Z</time>
      </trkpt>
      <trkpt lat="42.87904" lon="1.82594">
        <ele>941.74877929688</ele>
        <time>2014-04-20T08:27:29Z</time>
      </trkpt>
      <trkpt lat="42.87899" lon="1.82584">
        <ele>940.30688476562</ele>
        <time>2014-04-20T08:27:32Z</time>
      </trkpt>
      <trkpt lat="42.8789" lon="1.82578">
        <ele>939.34521484375</ele>
        <time>2014-04-20T08:27:36Z</time>
      </trkpt>
      <trkpt lat="42.8788" lon="1.82574">
        <ele>939.82592773438</ele>
        <time>2014-04-20T08:27:42Z</time>
      </trkpt>
      <trkpt lat="42.87872" lon="1.82567">
        <ele>940.30688476562</ele>
        <time>2014-04-20T08:27:47Z</time>
      </trkpt>
      <trkpt lat="42.8787" lon="1.82566">
        <ele>939.82592773438</ele>
        <time>2014-04-20T08:27:48Z</time>
      </trkpt>
      <trkpt lat="42.87859" lon="1.82567">
        <ele>938.86474609375</ele>
        <time>2014-04-20T08:27:54Z</time>
      </trkpt>
      <trkpt lat="42.87853" lon="1.82577">
        <ele>940.30688476562</ele>
        <time>2014-04-20T08:27:58Z</time>
      </trkpt>
      <trkpt lat="42.8785" lon="1.8258">
        <ele>941.26806640625</ele>
        <time>2014-04-20T08:28:00Z</time>
      </trkpt>
      <trkpt lat="42.87845" lon="1.82587">
        <ele>945.59399414062</ele>
        <time>2014-04-20T08:28:07Z</time>
      </trkpt>
      <trkpt lat="42.87841" lon="1.82594">
        <ele>948.47778320312</ele>
        <time>2014-04-20T08:28:14Z</time>
      </trkpt>
      <trkpt lat="42.87834" lon="1.82599">
        <ele>947.5166015625</ele>
        <time>2014-04-20T08:28:22Z</time>
      </trkpt>
      <trkpt lat="42.87828" lon="1.82603">
        <ele>949.919921875</ele>
        <time>2014-04-20T08:28:29Z</time>
      </trkpt>
      <trkpt lat="42.87824" lon="1.82604">
        <ele>950.40063476562</ele>
        <time>2014-04-20T08:28:34Z</time>
      </trkpt>
      <trkpt lat="42.8782" lon="1.82609">
        <ele>951.36181640625</ele>
        <time>2014-04-20T08:28:39Z</time>
      </trkpt>
      <trkpt lat="42.87816" lon="1.82611">
        <ele>951.36181640625</ele>
        <time>2014-04-20T08:28:44Z</time>
      </trkpt>
      <trkpt lat="42.87812" lon="1.82615">
        <ele>952.8037109375</ele>
        <time>2014-04-20T08:28:49Z</time>
      </trkpt>
      <trkpt lat="42.87807" lon="1.82621">
        <ele>953.76513671875</ele>
        <time>2014-04-20T08:28:53Z</time>
      </trkpt>
      <trkpt lat="42.87799" lon="1.82633">
        <ele>955.20703125</ele>
        <time>2014-04-20T08:28:58Z</time>
      </trkpt>
      <trkpt lat="42.87798" lon="1.82635">
        <ele>955.68774414062</ele>
        <time>2014-04-20T08:28:59Z</time>
      </trkpt>
      <trkpt lat="42.87791" lon="1.82645">
        <ele>956.64916992188</ele>
        <time>2014-04-20T08:29:04Z</time>
      </trkpt>
      <trkpt lat="42.87783" lon="1.82652">
        <ele>956.16845703125</ele>
        <time>2014-04-20T08:29:08Z</time>
      </trkpt>
      <trkpt lat="42.87771" lon="1.82665">
        <ele>954.72631835938</ele>
        <time>2014-04-20T08:29:13Z</time>
      </trkpt>
      <trkpt lat="42.87761" lon="1.8268">
        <ele>954.72631835938</ele>
        <time>2014-04-20T08:29:18Z</time>
      </trkpt>
      <trkpt lat="42.87756" lon="1.82687">
        <ele>955.20703125</ele>
        <time>2014-04-20T08:29:21Z</time>
      </trkpt>
      <trkpt lat="42.8775" lon="1.82695">
        <ele>954.72631835938</ele>
        <time>2014-04-20T08:29:24Z</time>
      </trkpt>
      <trkpt lat="42.87742" lon="1.82706">
        <ele>954.24584960938</ele>
        <time>2014-04-20T08:29:29Z</time>
      </trkpt>
      <trkpt lat="42.87737" lon="1.82715">
        <ele>955.20703125</ele>
        <time>2014-04-20T08:29:34Z</time>
      </trkpt>
      <trkpt lat="42.87733" lon="1.82728">
        <ele>956.16845703125</ele>
        <time>2014-04-20T08:29:39Z</time>
      </trkpt>
      <trkpt lat="42.8773" lon="1.82732">
        <ele>956.64916992188</ele>
        <time>2014-04-20T08:29:41Z</time>
      </trkpt>
      <trkpt lat="42.87721" lon="1.82741">
        <ele>956.16845703125</ele>
        <time>2014-04-20T08:29:46Z</time>
      </trkpt>
      <trkpt lat="42.87719" lon="1.82741">
        <ele>955.20703125</ele>
        <time>2014-04-20T08:29:48Z</time>
      </trkpt>
      <trkpt lat="42.87706" lon="1.82747">
        <ele>954.24584960938</ele>
        <time>2014-04-20T08:29:57Z</time>
      </trkpt>
      <trkpt lat="42.87704" lon="1.82747">
        <ele>954.24584960938</ele>
        <time>2014-04-20T08:29:58Z</time>
      </trkpt>
      <trkpt lat="42.87697" lon="1.8275">
        <ele>960.013671875</ele>
        <time>2014-04-20T08:30:05Z</time>
      </trkpt>
      <trkpt lat="42.87694" lon="1.82751">
        <ele>964.33959960938</ele>
        <time>2014-04-20T08:30:09Z</time>
      </trkpt>
      <trkpt lat="42.87699" lon="1.82753">
        <ele>966.74291992188</ele>
        <time>2014-04-20T08:30:14Z</time>
      </trkpt>
      <trkpt lat="42.87703" lon="1.82754">
        <ele>968.66552734375</ele>
        <time>2014-04-20T08:30:19Z</time>
      </trkpt>
      <trkpt lat="42.87705" lon="1.82765">
        <ele>975.39477539062</ele>
        <time>2014-04-20T08:30:24Z</time>
      </trkpt>
      <trkpt lat="42.87705" lon="1.8277">
        <ele>978.27880859375</ele>
        <time>2014-04-20T08:30:26Z</time>
      </trkpt>
      <trkpt lat="42.87708" lon="1.82787">
        <ele>983.56591796875</ele>
        <time>2014-04-20T08:30:34Z</time>
      </trkpt>
      <trkpt lat="42.87709" lon="1.82794">
        <ele>985.96923828125</ele>
        <time>2014-04-20T08:30:38Z</time>
      </trkpt>
      <trkpt lat="42.87712" lon="1.82799">
        <ele>988.853515625</ele>
        <time>2014-04-20T08:30:42Z</time>
      </trkpt>
      <trkpt lat="42.87716" lon="1.82808">
        <ele>989.81469726562</ele>
        <time>2014-04-20T08:30:48Z</time>
      </trkpt>
      <trkpt lat="42.87716" lon="1.82816">
        <ele>993.17919921875</ele>
        <time>2014-04-20T08:30:54Z</time>
      </trkpt>
      <trkpt lat="42.87716" lon="1.8282">
        <ele>993.17919921875</ele>
        <time>2014-04-20T08:30:56Z</time>
      </trkpt>
      <trkpt lat="42.87717" lon="1.82829">
        <ele>990.77587890625</ele>
        <time>2014-04-20T08:31:02Z</time>
      </trkpt>
      <trkpt lat="42.87715" lon="1.8283">
        <ele>989.81469726562</ele>
        <time>2014-04-20T08:31:04Z</time>
      </trkpt>
      <trkpt lat="42.8771" lon="1.82826">
        <ele>984.52734375</ele>
        <time>2014-04-20T08:31:11Z</time>
      </trkpt>
      <trkpt lat="42.87707" lon="1.82822">
        <ele>981.64331054688</ele>
        <time>2014-04-20T08:31:16Z</time>
      </trkpt>
      <trkpt lat="42.87701" lon="1.82817">
        <ele>979.23999023438</ele>
        <time>2014-04-20T08:31:22Z</time>
      </trkpt>
      <trkpt lat="42.87696" lon="1.82812">
        <ele>978.27880859375</ele>
        <time>2014-04-20T08:31:27Z</time>
      </trkpt>
      <trkpt lat="42.87692" lon="1.82806">
        <ele>976.35620117188</ele>
        <time>2014-04-20T08:31:33Z</time>
      </trkpt>
      <trkpt lat="42.8769" lon="1.82804">
        <ele>977.31762695312</ele>
        <time>2014-04-20T08:31:35Z</time>
      </trkpt>
      <trkpt lat="42.87687" lon="1.82797">
        <ele>974.91430664062</ele>
        <time>2014-04-20T08:31:41Z</time>
      </trkpt>
      <trkpt lat="42.87681" lon="1.82792">
        <ele>973.47241210938</ele>
        <time>2014-04-20T08:31:48Z</time>
      </trkpt>
      <trkpt lat="42.87675" lon="1.8279">
        <ele>972.51098632812</ele>
        <time>2014-04-20T08:31:54Z</time>
      </trkpt>
      <trkpt lat="42.87667" lon="1.82785">
        <ele>972.99169921875</ele>
        <time>2014-04-20T08:31:59Z</time>
      </trkpt>
      <trkpt lat="42.87662" lon="1.82781">
        <ele>975.39477539062</ele>
        <time>2014-04-20T08:32:02Z</time>
      </trkpt>
      <trkpt lat="42.87654" lon="1.82775">
        <ele>978.27880859375</ele>
        <time>2014-04-20T08:32:08Z</time>
      </trkpt>
      <trkpt lat="42.87651" lon="1.82774">
        <ele>979.720703125</ele>
        <time>2014-04-20T08:32:10Z</time>
      </trkpt>
      <trkpt lat="42.87646" lon="1.82779">
        <ele>986.44995117188</ele>
        <time>2014-04-20T08:32:17Z</time>
      </trkpt>
      <trkpt lat="42.87648" lon="1.82782">
        <ele>990.77587890625</ele>
        <time>2014-04-20T08:32:21Z</time>
      </trkpt>
      <trkpt lat="42.87651" lon="1.82786">
        <ele>993.65991210938</ele>
        <time>2014-04-20T08:32:24Z</time>
      </trkpt>
      <trkpt lat="42.87658" lon="1.82792">
        <ele>997.50512695312</ele>
        <time>2014-04-20T08:32:29Z</time>
      </trkpt>
      <trkpt lat="42.87661" lon="1.82798">
        <ele>999.90844726562</ele>
        <time>2014-04-20T08:32:33Z</time>
      </trkpt>
      <trkpt lat="42.87661" lon="1.82804">
        <ele>1001.8310546875</ele>
        <time>2014-04-20T08:32:38Z</time>
      </trkpt>
      <trkpt lat="42.87663" lon="1.82812">
        <ele>1007.5991210938</ele>
        <time>2014-04-20T08:32:43Z</time>
      </trkpt>
      <trkpt lat="42.87664" lon="1.82822">
        <ele>1011.4443359375</ele>
        <time>2014-04-20T08:32:49Z</time>
      </trkpt>
      <trkpt lat="42.87663" lon="1.82823">
        <ele>1011.4443359375</ele>
        <time>2014-04-20T08:32:50Z</time>
      </trkpt>
      <trkpt lat="42.87661" lon="1.82824">
        <ele>1010.0021972656</ele>
        <time>2014-04-20T08:32:53Z</time>
      </trkpt>
      <trkpt lat="42.87657" lon="1.82824">
        <ele>1004.7150878906</ele>
        <time>2014-04-20T08:32:57Z</time>
      </trkpt>
      <trkpt lat="42.8765" lon="1.82821">
        <ele>1000.8696289062</ele>
        <time>2014-04-20T08:33:05Z</time>
      </trkpt>
      <trkpt lat="42.87646" lon="1.82818">
        <ele>998.46630859375</ele>
        <time>2014-04-20T08:33:12Z</time>
      </trkpt>
      <trkpt lat="42.87643" lon="1.82815">
        <ele>997.0244140625</ele>
        <time>2014-04-20T08:33:17Z</time>
      </trkpt>
      <trkpt lat="42.8764" lon="1.82812">
        <ele>990.29541015625</ele>
        <time>2014-04-20T08:33:23Z</time>
      </trkpt>
      <trkpt lat="42.87635" lon="1.82813">
        <ele>987.89184570312</ele>
        <time>2014-04-20T08:33:28Z</time>
      </trkpt>
      <trkpt lat="42.87631" lon="1.82814">
        <ele>984.04663085938</ele>
        <time>2014-04-20T08:33:34Z</time>
      </trkpt>
      <trkpt lat="42.87627" lon="1.82815">
        <ele>980.20141601562</ele>
        <time>2014-04-20T08:33:39Z</time>
      </trkpt>
      <trkpt lat="42.87622" lon="1.82814">
        <ele>978.27880859375</ele>
        <time>2014-04-20T08:33:45Z</time>
      </trkpt>
      <trkpt lat="42.87617" lon="1.82814">
        <ele>975.39477539062</ele>
        <time>2014-04-20T08:33:52Z</time>
      </trkpt>
      <trkpt lat="42.87613" lon="1.8281">
        <ele>970.58813476562</ele>
        <time>2014-04-20T08:33:58Z</time>
      </trkpt>
      <trkpt lat="42.8761" lon="1.82808">
        <ele>964.8203125</ele>
        <time>2014-04-20T08:34:03Z</time>
      </trkpt>
      <trkpt lat="42.87604" lon="1.82809">
        <ele>958.57177734375</ele>
        <time>2014-04-20T08:34:09Z</time>
      </trkpt>
      <trkpt lat="42.87599" lon="1.82808">
        <ele>955.20703125</ele>
        <time>2014-04-20T08:34:13Z</time>
      </trkpt>
      <trkpt lat="42.8759" lon="1.82808">
        <ele>953.76513671875</ele>
        <time>2014-04-20T08:34:20Z</time>
      </trkpt>
      <trkpt lat="42.87587" lon="1.82811">
        <ele>953.28442382812</ele>
        <time>2014-04-20T08:34:23Z</time>
      </trkpt>
      <trkpt lat="42.87584" lon="1.82813">
        <ele>950.40063476562</ele>
        <time>2014-04-20T08:34:27Z</time>
      </trkpt>
      <trkpt lat="42.87578" lon="1.82815">
        <ele>948.95849609375</ele>
        <time>2014-04-20T08:34:34Z</time>
      </trkpt>
      <trkpt lat="42.87574" lon="1.82813">
        <ele>946.07470703125</ele>
        <time>2014-04-20T08:34:40Z</time>
      </trkpt>
      <trkpt lat="42.87572" lon="1.82813">
        <ele>946.07470703125</ele>
        <time>2014-04-20T08:34:42Z</time>
      </trkpt>
      <trkpt lat="42.87562" lon="1.82809">
        <ele>956.64916992188</ele>
        <time>2014-04-20T08:34:48Z</time>
      </trkpt>
      <trkpt lat="42.87544" lon="1.828">
        <ele>990.77587890625</ele>
        <time>2014-04-20T08:34:54Z</time>
      </trkpt>
      <trkpt lat="42.87531" lon="1.82791">
        <ele>1015.7702636719</ele>
        <time>2014-04-20T08:35:00Z</time>
      </trkpt>
      <trkpt lat="42.87524" lon="1.82789">
        <ele>1022.9802246094</ele>
        <time>2014-04-20T08:35:05Z</time>
      </trkpt>
      <trkpt lat="42.87516" lon="1.82787">
        <ele>1028.748046875</ele>
        <time>2014-04-20T08:35:12Z</time>
      </trkpt>
      <trkpt lat="42.87508" lon="1.82787">
        <ele>1033.0737304688</ele>
        <time>2014-04-20T08:35:18Z</time>
      </trkpt>
      <trkpt lat="42.87503" lon="1.82785">
        <ele>1036.4387207031</ele>
        <time>2014-04-20T08:35:22Z</time>
      </trkpt>
      <trkpt lat="42.87491" lon="1.82788">
        <ele>1038.361328125</ele>
        <time>2014-04-20T08:35:31Z</time>
      </trkpt>
      <trkpt lat="42.87489" lon="1.82789">
        <ele>1038.8420410156</ele>
        <time>2014-04-20T08:35:33Z</time>
      </trkpt>
      <trkpt lat="42.87488" lon="1.82803">
        <ele>1039.3225097656</ele>
        <time>2014-04-20T08:35:38Z</time>
      </trkpt>
      <trkpt lat="42.87487" lon="1.82822">
        <ele>1039.3225097656</ele>
        <time>2014-04-20T08:35:43Z</time>
      </trkpt>
      <trkpt lat="42.87486" lon="1.8283">
        <ele>1038.8420410156</ele>
        <time>2014-04-20T08:35:45Z</time>
      </trkpt>
      <trkpt lat="42.87485" lon="1.82847">
        <ele>1039.8032226562</ele>
        <time>2014-04-20T08:35:50Z</time>
      </trkpt>
      <trkpt lat="42.87484" lon="1.82856">
        <ele>1041.7258300781</ele>
        <time>2014-04-20T08:35:53Z</time>
      </trkpt>
      <trkpt lat="42.87482" lon="1.82861">
        <ele>1041.7258300781</ele>
        <time>2014-04-20T08:35:55Z</time>
      </trkpt>
      <trkpt lat="42.87479" lon="1.82861">
        <ele>1041.2451171875</ele>
        <time>2014-04-20T08:36:00Z</time>
      </trkpt>
      <trkpt lat="42.8748" lon="1.82862">
        <ele>1041.7258300781</ele>
        <time>2014-04-20T08:36:01Z</time>
      </trkpt>
      <trkpt lat="42.87483" lon="1.8287">
        <ele>1043.1677246094</ele>
        <time>2014-04-20T08:36:06Z</time>
      </trkpt>
      <trkpt lat="42.87486" lon="1.8288">
        <ele>1043.1677246094</ele>
        <time>2014-04-20T08:36:13Z</time>
      </trkpt>
      <trkpt lat="42.87489" lon="1.82887">
        <ele>1043.6484375</ele>
        <time>2014-04-20T08:36:18Z</time>
      </trkpt>
      <trkpt lat="42.87491" lon="1.82895">
        <ele>1045.5710449219</ele>
        <time>2014-04-20T08:36:24Z</time>
      </trkpt>
      <trkpt lat="42.87494" lon="1.829">
        <ele>1047.9743652344</ele>
        <time>2014-04-20T08:36:29Z</time>
      </trkpt>
      <trkpt lat="42.87498" lon="1.82912">
        <ele>1051.3388671875</ele>
        <time>2014-04-20T08:36:38Z</time>
      </trkpt>
      <trkpt lat="42.875" lon="1.82917">
        <ele>1054.2231445312</ele>
        <time>2014-04-20T08:36:43Z</time>
      </trkpt>
      <trkpt lat="42.87504" lon="1.82923">
        <ele>1057.1069335938</ele>
        <time>2014-04-20T08:36:49Z</time>
      </trkpt>
      <trkpt lat="42.87509" lon="1.82926">
        <ele>1060.9521484375</ele>
        <time>2014-04-20T08:36:54Z</time>
      </trkpt>
      <trkpt lat="42.87512" lon="1.82926">
        <ele>1061.4328613281</ele>
        <time>2014-04-20T08:36:57Z</time>
      </trkpt>
      <trkpt lat="42.87516" lon="1.82929">
        <ele>1066.7199707031</ele>
        <time>2014-04-20T08:37:03Z</time>
      </trkpt>
      <trkpt lat="42.87519" lon="1.82931">
        <ele>1069.6042480469</ele>
        <time>2014-04-20T08:37:08Z</time>
      </trkpt>
      <trkpt lat="42.87524" lon="1.82936">
        <ele>1065.2780761719</ele>
        <time>2014-04-20T08:37:14Z</time>
      </trkpt>
      <trkpt lat="42.87525" lon="1.82941">
        <ele>1062.8747558594</ele>
        <time>2014-04-20T08:37:20Z</time>
      </trkpt>
      <trkpt lat="42.87526" lon="1.82945">
        <ele>1062.3940429688</ele>
        <time>2014-04-20T08:37:26Z</time>
      </trkpt>
      <trkpt lat="42.87531" lon="1.82943">
        <ele>1061.9135742188</ele>
        <time>2014-04-20T08:37:30Z</time>
      </trkpt>
      <trkpt lat="42.87533" lon="1.82943">
        <ele>1062.8747558594</ele>
        <time>2014-04-20T08:37:32Z</time>
      </trkpt>
      <trkpt lat="42.87541" lon="1.82946">
        <ele>1066.7199707031</ele>
        <time>2014-04-20T08:37:41Z</time>
      </trkpt>
      <trkpt lat="42.87545" lon="1.82948">
        <ele>1066.2392578125</ele>
        <time>2014-04-20T08:37:45Z</time>
      </trkpt>
      <trkpt lat="42.87547" lon="1.82952">
        <ele>1063.35546875</ele>
        <time>2014-04-20T08:37:48Z</time>
      </trkpt>
      <trkpt lat="42.87556" lon="1.82957">
        <ele>1063.35546875</ele>
        <time>2014-04-20T08:37:56Z</time>
      </trkpt>
      <trkpt lat="42.87559" lon="1.8296">
        <ele>1065.2780761719</ele>
        <time>2014-04-20T08:38:02Z</time>
      </trkpt>
      <trkpt lat="42.87557" lon="1.82963">
        <ele>1066.2392578125</ele>
        <time>2014-04-20T08:38:07Z</time>
      </trkpt>
      <trkpt lat="42.87555" lon="1.82965">
        <ele>1065.7587890625</ele>
        <time>2014-04-20T08:38:10Z</time>
      </trkpt>
      <trkpt lat="42.87551" lon="1.82972">
        <ele>1068.162109375</ele>
        <time>2014-04-20T08:38:15Z</time>
      </trkpt>
      <trkpt lat="42.87547" lon="1.82977">
        <ele>1066.2392578125</ele>
        <time>2014-04-20T08:38:20Z</time>
      </trkpt>
      <trkpt lat="42.87543" lon="1.82984">
        <ele>1067.2006835938</ele>
        <time>2014-04-20T08:38:27Z</time>
      </trkpt>
      <trkpt lat="42.8754" lon="1.82988">
        <ele>1067.2006835938</ele>
        <time>2014-04-20T08:38:32Z</time>
      </trkpt>
      <trkpt lat="42.87538" lon="1.82991">
        <ele>1069.6042480469</ele>
        <time>2014-04-20T08:38:37Z</time>
      </trkpt>
      <trkpt lat="42.87535" lon="1.82995">
        <ele>1066.2392578125</ele>
        <time>2014-04-20T08:38:41Z</time>
      </trkpt>
      <trkpt lat="42.87533" lon="1.82999">
        <ele>1066.7199707031</ele>
        <time>2014-04-20T08:38:45Z</time>
      </trkpt>
      <trkpt lat="42.87525" lon="1.83006">
        <ele>1077.2946777344</ele>
        <time>2014-04-20T08:38:53Z</time>
      </trkpt>
      <trkpt lat="42.87521" lon="1.83009">
        <ele>1081.1398925781</ele>
        <time>2014-04-20T08:38:59Z</time>
      </trkpt>
      <trkpt lat="42.87519" lon="1.83014">
        <ele>1082.5817871094</ele>
        <time>2014-04-20T08:39:04Z</time>
      </trkpt>
      <trkpt lat="42.87518" lon="1.83018">
        <ele>1084.9853515625</ele>
        <time>2014-04-20T08:39:10Z</time>
      </trkpt>
      <trkpt lat="42.87518" lon="1.83021">
        <ele>1087.869140625</ele>
        <time>2014-04-20T08:39:17Z</time>
      </trkpt>
      <trkpt lat="42.87519" lon="1.83025">
        <ele>1093.15625</ele>
        <time>2014-04-20T08:39:23Z</time>
      </trkpt>
      <trkpt lat="42.87517" lon="1.83028">
        <ele>1094.1176757812</ele>
        <time>2014-04-20T08:39:28Z</time>
      </trkpt>
      <trkpt lat="42.87512" lon="1.83037">
        <ele>1088.8305664062</ele>
        <time>2014-04-20T08:39:36Z</time>
      </trkpt>
      <trkpt lat="42.8751" lon="1.8304">
        <ele>1088.8305664062</ele>
        <time>2014-04-20T08:39:39Z</time>
      </trkpt>
      <trkpt lat="42.87504" lon="1.83045">
        <ele>1098.443359375</ele>
        <time>2014-04-20T08:39:46Z</time>
      </trkpt>
      <trkpt lat="42.87502" lon="1.83051">
        <ele>1098.9240722656</ele>
        <time>2014-04-20T08:39:52Z</time>
      </trkpt>
      <trkpt lat="42.87501" lon="1.83059">
        <ele>1097.0014648438</ele>
        <time>2014-04-20T08:39:57Z</time>
      </trkpt>
      <trkpt lat="42.875" lon="1.83065">
        <ele>1098.443359375</ele>
        <time>2014-04-20T08:40:05Z</time>
      </trkpt>
      <trkpt lat="42.87498" lon="1.83073">
        <ele>1096.0402832031</ele>
        <time>2014-04-20T08:40:10Z</time>
      </trkpt>
      <trkpt lat="42.87497" lon="1.83077">
        <ele>1095.5595703125</ele>
        <time>2014-04-20T08:40:14Z</time>
      </trkpt>
      <trkpt lat="42.87497" lon="1.8308">
        <ele>1094.5981445312</ele>
        <time>2014-04-20T08:40:16Z</time>
      </trkpt>
      <trkpt lat="42.87494" lon="1.83089">
        <ele>1094.1176757812</ele>
        <time>2014-04-20T08:40:24Z</time>
      </trkpt>
      <trkpt lat="42.87492" lon="1.8309">
        <ele>1097.4821777344</ele>
        <time>2014-04-20T08:40:28Z</time>
      </trkpt>
      <trkpt lat="42.87488" lon="1.83092">
        <ele>1100.3664550781</ele>
        <time>2014-04-20T08:40:31Z</time>
      </trkpt>
      <trkpt lat="42.87486" lon="1.83097">
        <ele>1108.5373535156</ele>
        <time>2014-04-20T08:40:38Z</time>
      </trkpt>
      <trkpt lat="42.87484" lon="1.83102">
        <ele>1108.0568847656</ele>
        <time>2014-04-20T08:40:43Z</time>
      </trkpt>
      <trkpt lat="42.87483" lon="1.83108">
        <ele>1110.4599609375</ele>
        <time>2014-04-20T08:40:49Z</time>
      </trkpt>
      <trkpt lat="42.87482" lon="1.83112">
        <ele>1110.9406738281</ele>
        <time>2014-04-20T08:40:53Z</time>
      </trkpt>
      <trkpt lat="42.87479" lon="1.83117">
        <ele>1113.8244628906</ele>
        <time>2014-04-20T08:40:59Z</time>
      </trkpt>
      <trkpt lat="42.87475" lon="1.83125">
        <ele>1118.1506347656</ele>
        <time>2014-04-20T08:41:05Z</time>
      </trkpt>
      <trkpt lat="42.87473" lon="1.83129">
        <ele>1119.1120605469</ele>
        <time>2014-04-20T08:41:07Z</time>
      </trkpt>
      <trkpt lat="42.87474" lon="1.83132">
        <ele>1120.0732421875</ele>
        <time>2014-04-20T08:41:09Z</time>
      </trkpt>
      <trkpt lat="42.87477" lon="1.83134">
        <ele>1121.0346679688</ele>
        <time>2014-04-20T08:41:15Z</time>
      </trkpt>
      <trkpt lat="42.87482" lon="1.83132">
        <ele>1121.9958496094</ele>
        <time>2014-04-20T08:41:21Z</time>
      </trkpt>
      <trkpt lat="42.87486" lon="1.83134">
        <ele>1123.4379882812</ele>
        <time>2014-04-20T08:41:27Z</time>
      </trkpt>
      <trkpt lat="42.87489" lon="1.83132">
        <ele>1124.8798828125</ele>
        <time>2014-04-20T08:41:31Z</time>
      </trkpt>
      <trkpt lat="42.87492" lon="1.83131">
        <ele>1126.8024902344</ele>
        <time>2014-04-20T08:41:36Z</time>
      </trkpt>
      <trkpt lat="42.87494" lon="1.83131">
        <ele>1126.8024902344</ele>
        <time>2014-04-20T08:41:39Z</time>
      </trkpt>
      <trkpt lat="42.87495" lon="1.83134">
        <ele>1127.763671875</ele>
        <time>2014-04-20T08:41:45Z</time>
      </trkpt>
      <trkpt lat="42.87495" lon="1.83137">
        <ele>1128.7250976562</ele>
        <time>2014-04-20T08:41:50Z</time>
      </trkpt>
      <trkpt lat="42.87495" lon="1.83141">
        <ele>1129.6862792969</ele>
        <time>2014-04-20T08:41:56Z</time>
      </trkpt>
      <trkpt lat="42.87499" lon="1.83139">
        <ele>1131.6088867188</ele>
        <time>2014-04-20T08:42:01Z</time>
      </trkpt>
      <trkpt lat="42.87502" lon="1.8314">
        <ele>1133.0510253906</ele>
        <time>2014-04-20T08:42:06Z</time>
      </trkpt>
      <trkpt lat="42.87505" lon="1.8314">
        <ele>1133.5317382812</ele>
        <time>2014-04-20T08:42:12Z</time>
      </trkpt>
      <trkpt lat="42.87507" lon="1.83144">
        <ele>1134.0124511719</ele>
        <time>2014-04-20T08:42:19Z</time>
      </trkpt>
      <trkpt lat="42.87507" lon="1.83149">
        <ele>1135.4543457031</ele>
        <time>2014-04-20T08:42:25Z</time>
      </trkpt>
      <trkpt lat="42.87506" lon="1.83153">
        <ele>1137.376953125</ele>
        <time>2014-04-20T08:42:30Z</time>
      </trkpt>
      <trkpt lat="42.87505" lon="1.83157">
        <ele>1138.3383789062</ele>
        <time>2014-04-20T08:42:36Z</time>
      </trkpt>
      <trkpt lat="42.87505" lon="1.83162">
        <ele>1138.8190917969</ele>
        <time>2014-04-20T08:42:41Z</time>
      </trkpt>
      <trkpt lat="42.87503" lon="1.83169">
        <ele>1140.7414550781</ele>
        <time>2014-04-20T08:42:48Z</time>
      </trkpt>
      <trkpt lat="42.875" lon="1.83179">
        <ele>1144.1062011719</ele>
        <time>2014-04-20T08:42:56Z</time>
      </trkpt>
      <trkpt lat="42.875" lon="1.83186">
        <ele>1146.5095214844</ele>
        <time>2014-04-20T08:43:02Z</time>
      </trkpt>
      <trkpt lat="42.87502" lon="1.83191">
        <ele>1147.9514160156</ele>
        <time>2014-04-20T08:43:08Z</time>
      </trkpt>
      <trkpt lat="42.87503" lon="1.83193">
        <ele>1148.9128417969</ele>
        <time>2014-04-20T08:43:12Z</time>
      </trkpt>
      <trkpt lat="42.87504" lon="1.83199">
        <ele>1150.8354492188</ele>
        <time>2014-04-20T08:43:18Z</time>
      </trkpt>
      <trkpt lat="42.87508" lon="1.83199">
        <ele>1152.27734375</ele>
        <time>2014-04-20T08:43:26Z</time>
      </trkpt>
      <trkpt lat="42.87513" lon="1.83197">
        <ele>1156.6032714844</ele>
        <time>2014-04-20T08:43:33Z</time>
      </trkpt>
      <trkpt lat="42.87516" lon="1.83197">
        <ele>1158.0454101562</ele>
        <time>2014-04-20T08:43:37Z</time>
      </trkpt>
      <trkpt lat="42.87518" lon="1.83198">
        <ele>1160.4484863281</ele>
        <time>2014-04-20T08:43:42Z</time>
      </trkpt>
      <trkpt lat="42.8752" lon="1.83191">
        <ele>1162.37109375</ele>
        <time>2014-04-20T08:43:46Z</time>
      </trkpt>
      <trkpt lat="42.87523" lon="1.83187">
        <ele>1162.8518066406</ele>
        <time>2014-04-20T08:43:52Z</time>
      </trkpt>
      <trkpt lat="42.87525" lon="1.83186">
        <ele>1163.3325195312</ele>
        <time>2014-04-20T08:43:56Z</time>
      </trkpt>
      <trkpt lat="42.87528" lon="1.83183">
        <ele>1164.2939453125</ele>
        <time>2014-04-20T08:44:03Z</time>
      </trkpt>
      <trkpt lat="42.87532" lon="1.83179">
        <ele>1166.2165527344</ele>
        <time>2014-04-20T08:44:09Z</time>
      </trkpt>
      <trkpt lat="42.87537" lon="1.83177">
        <ele>1166.697265625</ele>
        <time>2014-04-20T08:44:15Z</time>
      </trkpt>
      <trkpt lat="42.87542" lon="1.83172">
        <ele>1169.5812988281</ele>
        <time>2014-04-20T08:44:21Z</time>
      </trkpt>
      <trkpt lat="42.87545" lon="1.83166">
        <ele>1171.5036621094</ele>
        <time>2014-04-20T08:44:28Z</time>
      </trkpt>
      <trkpt lat="42.87547" lon="1.83169">
        <ele>1172.4650878906</ele>
        <time>2014-04-20T08:44:34Z</time>
      </trkpt>
      <trkpt lat="42.87546" lon="1.83173">
        <ele>1173.9069824219</ele>
        <time>2014-04-20T08:44:42Z</time>
      </trkpt>
      <trkpt lat="42.87547" lon="1.83178">
        <ele>1171.0231933594</ele>
        <time>2014-04-20T08:44:47Z</time>
      </trkpt>
      <trkpt lat="42.87546" lon="1.8318">
        <ele>1172.4650878906</ele>
        <time>2014-04-20T08:44:52Z</time>
      </trkpt>
      <trkpt lat="42.87545" lon="1.83183">
        <ele>1173.4265136719</ele>
        <time>2014-04-20T08:44:57Z</time>
      </trkpt>
      <trkpt lat="42.87544" lon="1.83188">
        <ele>1174.8684082031</ele>
        <time>2014-04-20T08:45:02Z</time>
      </trkpt>
      <trkpt lat="42.87545" lon="1.83188">
        <ele>1178.7136230469</ele>
        <time>2014-04-20T08:45:08Z</time>
      </trkpt>
      <trkpt lat="42.87549" lon="1.83185">
        <ele>1181.59765625</ele>
        <time>2014-04-20T08:45:15Z</time>
      </trkpt>
      <trkpt lat="42.8755" lon="1.83182">
        <ele>1181.59765625</ele>
        <time>2014-04-20T08:45:19Z</time>
      </trkpt>
      <trkpt lat="42.87553" lon="1.8318">
        <ele>1181.59765625</ele>
        <time>2014-04-20T08:45:23Z</time>
      </trkpt>
      <trkpt lat="42.87555" lon="1.83181">
        <ele>1182.0783691406</ele>
        <time>2014-04-20T08:45:27Z</time>
      </trkpt>
      <trkpt lat="42.87555" lon="1.83186">
        <ele>1182.0783691406</ele>
        <time>2014-04-20T08:45:31Z</time>
      </trkpt>
      <trkpt lat="42.87553" lon="1.8319">
        <ele>1184.0009765625</ele>
        <time>2014-04-20T08:45:37Z</time>
      </trkpt>
      <trkpt lat="42.87554" lon="1.83195">
        <ele>1184.9624023438</ele>
        <time>2014-04-20T08:45:43Z</time>
      </trkpt>
      <trkpt lat="42.87555" lon="1.83199">
        <ele>1186.884765625</ele>
        <time>2014-04-20T08:45:49Z</time>
      </trkpt>
      <trkpt lat="42.87555" lon="1.83202">
        <ele>1189.2880859375</ele>
        <time>2014-04-20T08:45:53Z</time>
      </trkpt>
      <trkpt lat="42.87556" lon="1.83206">
        <ele>1191.69140625</ele>
        <time>2014-04-20T08:45:58Z</time>
      </trkpt>
      <trkpt lat="42.87555" lon="1.83211">
        <ele>1192.1721191406</ele>
        <time>2014-04-20T08:46:04Z</time>
      </trkpt>
      <trkpt lat="42.87555" lon="1.83217">
        <ele>1192.6528320312</ele>
        <time>2014-04-20T08:46:10Z</time>
      </trkpt>
      <trkpt lat="42.87553" lon="1.83225">
        <ele>1193.6140136719</ele>
        <time>2014-04-20T08:46:17Z</time>
      </trkpt>
      <trkpt lat="42.87554" lon="1.83229">
        <ele>1192.6528320312</ele>
        <time>2014-04-20T08:46:21Z</time>
      </trkpt>
      <trkpt lat="42.87553" lon="1.83236">
        <ele>1191.2106933594</ele>
        <time>2014-04-20T08:46:26Z</time>
      </trkpt>
      <trkpt lat="42.87552" lon="1.83241">
        <ele>1189.2880859375</ele>
        <time>2014-04-20T08:46:31Z</time>
      </trkpt>
      <trkpt lat="42.8755" lon="1.83245">
        <ele>1188.3269042969</ele>
        <time>2014-04-20T08:46:36Z</time>
      </trkpt>
      <trkpt lat="42.87553" lon="1.83246">
        <ele>1187.3654785156</ele>
        <time>2014-04-20T08:46:39Z</time>
      </trkpt>
      <trkpt lat="42.87557" lon="1.8325">
        <ele>1193.1333007812</ele>
        <time>2014-04-20T08:46:49Z</time>
      </trkpt>
      <trkpt lat="42.87561" lon="1.83247">
        <ele>1194.5751953125</ele>
        <time>2014-04-20T08:46:54Z</time>
      </trkpt>
      <trkpt lat="42.87563" lon="1.83244">
        <ele>1194.5751953125</ele>
        <time>2014-04-20T08:46:56Z</time>
      </trkpt>
      <trkpt lat="42.87566" lon="1.83241">
        <ele>1196.017578125</ele>
        <time>2014-04-20T08:47:02Z</time>
      </trkpt>
      <trkpt lat="42.87564" lon="1.83248">
        <ele>1196.9787597656</ele>
        <time>2014-04-20T08:47:11Z</time>
      </trkpt>
      <trkpt lat="42.87568" lon="1.83255">
        <ele>1194.5751953125</ele>
        <time>2014-04-20T08:47:16Z</time>
      </trkpt>
      <trkpt lat="42.87569" lon="1.83262">
        <ele>1202.7465820312</ele>
        <time>2014-04-20T08:47:21Z</time>
      </trkpt>
      <trkpt lat="42.87569" lon="1.83264">
        <ele>1202.7465820312</ele>
        <time>2014-04-20T08:47:22Z</time>
      </trkpt>
      <trkpt lat="42.87574" lon="1.83267">
        <ele>1201.3046875</ele>
        <time>2014-04-20T08:47:27Z</time>
      </trkpt>
      <trkpt lat="42.87576" lon="1.83262">
        <ele>1201.3046875</ele>
        <time>2014-04-20T08:47:29Z</time>
      </trkpt>
      <trkpt lat="42.87579" lon="1.83256">
        <ele>1201.3046875</ele>
        <time>2014-04-20T08:47:31Z</time>
      </trkpt>
      <trkpt lat="42.87579" lon="1.83249">
        <ele>1202.7465820312</ele>
        <time>2014-04-20T08:47:36Z</time>
      </trkpt>
      <trkpt lat="42.87583" lon="1.83242">
        <ele>1204.1887207031</ele>
        <time>2014-04-20T08:47:42Z</time>
      </trkpt>
      <trkpt lat="42.87585" lon="1.83239">
        <ele>1205.1499023438</ele>
        <time>2014-04-20T08:47:46Z</time>
      </trkpt>
      <trkpt lat="42.87587" lon="1.83235">
        <ele>1205.6306152344</ele>
        <time>2014-04-20T08:47:50Z</time>
      </trkpt>
      <trkpt lat="42.87596" lon="1.83226">
        <ele>1207.0725097656</ele>
        <time>2014-04-20T08:47:55Z</time>
      </trkpt>
      <trkpt lat="42.87593" lon="1.83217">
        <ele>1207.0725097656</ele>
        <time>2014-04-20T08:47:59Z</time>
      </trkpt>
      <trkpt lat="42.87585" lon="1.83217">
        <ele>1207.5532226562</ele>
        <time>2014-04-20T08:48:03Z</time>
      </trkpt>
      <trkpt lat="42.87581" lon="1.83219">
        <ele>1207.5532226562</ele>
        <time>2014-04-20T08:48:07Z</time>
      </trkpt>
      <trkpt lat="42.87579" lon="1.83218">
        <ele>1206.591796875</ele>
        <time>2014-04-20T08:48:13Z</time>
      </trkpt>
      <trkpt lat="42.87576" lon="1.83217">
        <ele>1203.7080078125</ele>
        <time>2014-04-20T08:48:19Z</time>
      </trkpt>
      <trkpt lat="42.87572" lon="1.83218">
        <ele>1201.7854003906</ele>
        <time>2014-04-20T08:48:23Z</time>
      </trkpt>
      <trkpt lat="42.87566" lon="1.83232">
        <ele>1197.9401855469</ele>
        <time>2014-04-20T08:48:29Z</time>
      </trkpt>
      <trkpt lat="42.87565" lon="1.83238">
        <ele>1195.0559082031</ele>
        <time>2014-04-20T08:48:33Z</time>
      </trkpt>
      <trkpt lat="42.8756" lon="1.83246">
        <ele>1194.0947265625</ele>
        <time>2014-04-20T08:48:38Z</time>
      </trkpt>
      <trkpt lat="42.87558" lon="1.83247">
        <ele>1192.1721191406</ele>
        <time>2014-04-20T08:48:40Z</time>
      </trkpt>
      <trkpt lat="42.87553" lon="1.83242">
        <ele>1190.7299804688</ele>
        <time>2014-04-20T08:48:45Z</time>
      </trkpt>
      <trkpt lat="42.87552" lon="1.83242">
        <ele>1191.2106933594</ele>
        <time>2014-04-20T08:48:46Z</time>
      </trkpt>
      <trkpt lat="42.87555" lon="1.83235">
        <ele>1191.2106933594</ele>
        <time>2014-04-20T08:48:50Z</time>
      </trkpt>
      <trkpt lat="42.87555" lon="1.83232">
        <ele>1190.7299804688</ele>
        <time>2014-04-20T08:48:55Z</time>
      </trkpt>
      <trkpt lat="42.87555" lon="1.83231">
        <ele>1189.7687988281</ele>
        <time>2014-04-20T08:48:56Z</time>
      </trkpt>
      <trkpt lat="42.87555" lon="1.8322">
        <ele>1188.8076171875</ele>
        <time>2014-04-20T08:49:02Z</time>
      </trkpt>
      <trkpt lat="42.87555" lon="1.83216">
        <ele>1187.3654785156</ele>
        <time>2014-04-20T08:49:06Z</time>
      </trkpt>
      <trkpt lat="42.87556" lon="1.83214">
        <ele>1187.3654785156</ele>
        <time>2014-04-20T08:49:07Z</time>
      </trkpt>
      <trkpt lat="42.87557" lon="1.83208">
        <ele>1185.9235839844</ele>
        <time>2014-04-20T08:49:13Z</time>
      </trkpt>
      <trkpt lat="42.87556" lon="1.83202">
        <ele>1185.4428710938</ele>
        <time>2014-04-20T08:49:18Z</time>
      </trkpt>
      <trkpt lat="42.87558" lon="1.83199">
        <ele>1184.0009765625</ele>
        <time>2014-04-20T08:49:23Z</time>
      </trkpt>
      <trkpt lat="42.87556" lon="1.83195">
        <ele>1183.5202636719</ele>
        <time>2014-04-20T08:49:29Z</time>
      </trkpt>
      <trkpt lat="42.87556" lon="1.8319">
        <ele>1181.1171875</ele>
        <time>2014-04-20T08:49:34Z</time>
      </trkpt>
      <trkpt lat="42.87557" lon="1.83185">
        <ele>1178.7136230469</ele>
        <time>2014-04-20T08:49:39Z</time>
      </trkpt>
      <trkpt lat="42.87556" lon="1.83182">
        <ele>1177.2717285156</ele>
        <time>2014-04-20T08:49:44Z</time>
      </trkpt>
      <trkpt lat="42.87553" lon="1.83183">
        <ele>1176.3103027344</ele>
        <time>2014-04-20T08:49:49Z</time>
      </trkpt>
      <trkpt lat="42.87551" lon="1.83187">
        <ele>1176.3103027344</ele>
        <time>2014-04-20T08:49:53Z</time>
      </trkpt>
      <trkpt lat="42.87548" lon="1.8319">
        <ele>1174.8684082031</ele>
        <time>2014-04-20T08:49:55Z</time>
      </trkpt>
      <trkpt lat="42.87545" lon="1.8319">
        <ele>1172.4650878906</ele>
        <time>2014-04-20T08:50:00Z</time>
      </trkpt>
      <trkpt lat="42.87546" lon="1.83189">
        <ele>1169.5812988281</ele>
        <time>2014-04-20T08:50:04Z</time>
      </trkpt>
      <trkpt lat="42.87547" lon="1.83182">
        <ele>1169.1005859375</ele>
        <time>2014-04-20T08:50:09Z</time>
      </trkpt>
      <trkpt lat="42.87548" lon="1.83175">
        <ele>1168.6198730469</ele>
        <time>2014-04-20T08:50:14Z</time>
      </trkpt>
      <trkpt lat="42.87548" lon="1.83172">
        <ele>1168.1391601562</ele>
        <time>2014-04-20T08:50:19Z</time>
      </trkpt>
      <trkpt lat="42.87548" lon="1.83167">
        <ele>1167.1779785156</ele>
        <time>2014-04-20T08:50:25Z</time>
      </trkpt>
      <trkpt lat="42.87547" lon="1.83165">
        <ele>1165.2553710938</ele>
        <time>2014-04-20T08:50:29Z</time>
      </trkpt>
      <trkpt lat="42.87543" lon="1.83169">
        <ele>1164.2939453125</ele>
        <time>2014-04-20T08:50:33Z</time>
      </trkpt>
      <trkpt lat="42.87543" lon="1.83172">
        <ele>1163.3325195312</ele>
        <time>2014-04-20T08:50:35Z</time>
      </trkpt>
      <trkpt lat="42.87535" lon="1.83179">
        <ele>1158.5258789062</ele>
        <time>2014-04-20T08:50:41Z</time>
      </trkpt>
      <trkpt lat="42.87534" lon="1.8318">
        <ele>1158.0454101562</ele>
        <time>2014-04-20T08:50:42Z</time>
      </trkpt>
      <trkpt lat="42.87529" lon="1.83184">
        <ele>1155.1613769531</ele>
        <time>2014-04-20T08:50:47Z</time>
      </trkpt>
      <trkpt lat="42.87525" lon="1.83187">
        <ele>1154.2001953125</ele>
        <time>2014-04-20T08:50:53Z</time>
      </trkpt>
      <trkpt lat="42.87524" lon="1.8319">
        <ele>1152.27734375</ele>
        <time>2014-04-20T08:50:57Z</time>
      </trkpt>
      <trkpt lat="42.87521" lon="1.83191">
        <ele>1152.27734375</ele>
        <time>2014-04-20T08:51:03Z</time>
      </trkpt>
      <trkpt lat="42.87519" lon="1.83193">
        <ele>1151.3161621094</ele>
        <time>2014-04-20T08:51:05Z</time>
      </trkpt>
      <trkpt lat="42.87516" lon="1.83196">
        <ele>1148.4321289062</ele>
        <time>2014-04-20T08:51:09Z</time>
      </trkpt>
      <trkpt lat="42.87513" lon="1.83198">
        <ele>1146.9899902344</ele>
        <time>2014-04-20T08:51:14Z</time>
      </trkpt>
      <trkpt lat="42.87511" lon="1.83197">
        <ele>1145.0673828125</ele>
        <time>2014-04-20T08:51:18Z</time>
      </trkpt>
      <trkpt lat="42.87508" lon="1.83199">
        <ele>1142.6643066406</ele>
        <time>2014-04-20T08:51:22Z</time>
      </trkpt>
      <trkpt lat="42.87507" lon="1.83195">
        <ele>1140.2609863281</ele>
        <time>2014-04-20T08:51:26Z</time>
      </trkpt>
      <trkpt lat="42.87504" lon="1.83189">
        <ele>1137.8576660156</ele>
        <time>2014-04-20T08:51:30Z</time>
      </trkpt>
      <trkpt lat="42.87503" lon="1.8318">
        <ele>1134.9738769531</ele>
        <time>2014-04-20T08:51:36Z</time>
      </trkpt>
      <trkpt lat="42.87505" lon="1.83174">
        <ele>1134.4931640625</ele>
        <time>2014-04-20T08:51:39Z</time>
      </trkpt>
      <trkpt lat="42.87506" lon="1.83169">
        <ele>1134.0124511719</ele>
        <time>2014-04-20T08:51:43Z</time>
      </trkpt>
      <trkpt lat="42.87506" lon="1.83165">
        <ele>1133.5317382812</ele>
        <time>2014-04-20T08:51:49Z</time>
      </trkpt>
      <trkpt lat="42.87508" lon="1.83161">
        <ele>1133.5317382812</ele>
        <time>2014-04-20T08:51:54Z</time>
      </trkpt>
      <trkpt lat="42.87509" lon="1.83155">
        <ele>1132.08984375</ele>
        <time>2014-04-20T08:52:00Z</time>
      </trkpt>
      <trkpt lat="42.8751" lon="1.83148">
        <ele>1131.1284179688</ele>
        <time>2014-04-20T08:52:05Z</time>
      </trkpt>
      <trkpt lat="42.87508" lon="1.83145">
        <ele>1129.2055664062</ele>
        <time>2014-04-20T08:52:08Z</time>
      </trkpt>
      <trkpt lat="42.87506" lon="1.83144">
        <ele>1129.2055664062</ele>
        <time>2014-04-20T08:52:10Z</time>
      </trkpt>
      <trkpt lat="42.87502" lon="1.83145">
        <ele>1126.3217773438</ele>
        <time>2014-04-20T08:52:16Z</time>
      </trkpt>
      <trkpt lat="42.875" lon="1.83143">
        <ele>1124.3991699219</ele>
        <time>2014-04-20T08:52:21Z</time>
      </trkpt>
      <trkpt lat="42.87501" lon="1.83138">
        <ele>1123.4379882812</ele>
        <time>2014-04-20T08:52:26Z</time>
      </trkpt>
      <trkpt lat="42.87498" lon="1.83136">
        <ele>1121.9958496094</ele>
        <time>2014-04-20T08:52:30Z</time>
      </trkpt>
      <trkpt lat="42.87494" lon="1.83131">
        <ele>1119.1120605469</ele>
        <time>2014-04-20T08:52:35Z</time>
      </trkpt>
      <trkpt lat="42.87493" lon="1.8313">
        <ele>1121.0346679688</ele>
        <time>2014-04-20T08:52:36Z</time>
      </trkpt>
      <trkpt lat="42.87491" lon="1.8313">
        <ele>1120.5539550781</ele>
        <time>2014-04-20T08:52:39Z</time>
      </trkpt>
      <trkpt lat="42.87485" lon="1.8313">
        <ele>1117.669921875</ele>
        <time>2014-04-20T08:52:45Z</time>
      </trkpt>
      <trkpt lat="42.87484" lon="1.83129">
        <ele>1118.1506347656</ele>
        <time>2014-04-20T08:52:46Z</time>
      </trkpt>
      <trkpt lat="42.87477" lon="1.83132">
        <ele>1117.669921875</ele>
        <time>2014-04-20T08:52:52Z</time>
      </trkpt>
      <trkpt lat="42.87474" lon="1.83129">
        <ele>1118.1506347656</ele>
        <time>2014-04-20T08:52:56Z</time>
      </trkpt>
      <trkpt lat="42.87479" lon="1.83117">
        <ele>1117.669921875</ele>
        <time>2014-04-20T08:53:02Z</time>
      </trkpt>
      <trkpt lat="42.87479" lon="1.83116">
        <ele>1117.669921875</ele>
        <time>2014-04-20T08:53:03Z</time>
      </trkpt>
      <trkpt lat="42.87481" lon="1.83107">
        <ele>1116.2280273438</ele>
        <time>2014-04-20T08:53:08Z</time>
      </trkpt>
      <trkpt lat="42.87482" lon="1.83099">
        <ele>1113.8244628906</ele>
        <time>2014-04-20T08:53:12Z</time>
      </trkpt>
      <trkpt lat="42.87487" lon="1.83088">
        <ele>1110.4599609375</ele>
        <time>2014-04-20T08:53:18Z</time>
      </trkpt>
      <trkpt lat="42.87489" lon="1.83087">
        <ele>1109.9792480469</ele>
        <time>2014-04-20T08:53:19Z</time>
      </trkpt>
      <trkpt lat="42.87491" lon="1.83085">
        <ele>1107.0954589844</ele>
        <time>2014-04-20T08:53:25Z</time>
      </trkpt>
      <trkpt lat="42.87494" lon="1.8308">
        <ele>1105.1728515625</ele>
        <time>2014-04-20T08:53:29Z</time>
      </trkpt>
      <trkpt lat="42.87496" lon="1.83074">
        <ele>1102.2888183594</ele>
        <time>2014-04-20T08:53:33Z</time>
      </trkpt>
      <trkpt lat="42.87499" lon="1.83067">
        <ele>1099.8854980469</ele>
        <time>2014-04-20T08:53:38Z</time>
      </trkpt>
      <trkpt lat="42.875" lon="1.83064">
        <ele>1098.443359375</ele>
        <time>2014-04-20T08:53:41Z</time>
      </trkpt>
      <trkpt lat="42.875" lon="1.83061">
        <ele>1096.0402832031</ele>
        <time>2014-04-20T08:53:44Z</time>
      </trkpt>
      <trkpt lat="42.87504" lon="1.83052">
        <ele>1092.67578125</ele>
        <time>2014-04-20T08:53:50Z</time>
      </trkpt>
      <trkpt lat="42.87514" lon="1.83042">
        <ele>1087.869140625</ele>
        <time>2014-04-20T08:53:57Z</time>
      </trkpt>
      <trkpt lat="42.87521" lon="1.83037">
        <ele>1085.4658203125</ele>
        <time>2014-04-20T08:54:01Z</time>
      </trkpt>
      <trkpt lat="42.87521" lon="1.83029">
        <ele>1083.54296875</ele>
        <time>2014-04-20T08:54:08Z</time>
      </trkpt>
      <trkpt lat="42.87521" lon="1.83028">
        <ele>1082.5817871094</ele>
        <time>2014-04-20T08:54:09Z</time>
      </trkpt>
      <trkpt lat="42.87523" lon="1.83019">
        <ele>1080.6591796875</ele>
        <time>2014-04-20T08:54:15Z</time>
      </trkpt>
      <trkpt lat="42.87525" lon="1.83015">
        <ele>1079.6977539062</ele>
        <time>2014-04-20T08:54:19Z</time>
      </trkpt>
      <trkpt lat="42.87527" lon="1.83004">
        <ele>1077.2946777344</ele>
        <time>2014-04-20T08:54:25Z</time>
      </trkpt>
      <trkpt lat="42.87534" lon="1.82996">
        <ele>1074.8913574219</ele>
        <time>2014-04-20T08:54:29Z</time>
      </trkpt>
      <trkpt lat="42.8754" lon="1.82991">
        <ele>1071.5266113281</ele>
        <time>2014-04-20T08:54:34Z</time>
      </trkpt>
      <trkpt lat="42.87545" lon="1.82986">
        <ele>1065.2780761719</ele>
        <time>2014-04-20T08:54:39Z</time>
      </trkpt>
      <trkpt lat="42.87553" lon="1.82978">
        <ele>1062.8747558594</ele>
        <time>2014-04-20T08:54:44Z</time>
      </trkpt>
      <trkpt lat="42.8756" lon="1.82975">
        <ele>1062.8747558594</ele>
        <time>2014-04-20T08:54:47Z</time>
      </trkpt>
      <trkpt lat="42.8756" lon="1.82972">
        <ele>1062.3940429688</ele>
        <time>2014-04-20T08:54:49Z</time>
      </trkpt>
      <trkpt lat="42.87557" lon="1.82969">
        <ele>1061.4328613281</ele>
        <time>2014-04-20T08:54:51Z</time>
      </trkpt>
      <trkpt lat="42.87551" lon="1.82962">
        <ele>1058.548828125</ele>
        <time>2014-04-20T08:54:55Z</time>
      </trkpt>
      <trkpt lat="42.87549" lon="1.82961">
        <ele>1057.1069335938</ele>
        <time>2014-04-20T08:54:57Z</time>
      </trkpt>
      <trkpt lat="42.87543" lon="1.82958">
        <ele>1053.26171875</ele>
        <time>2014-04-20T08:55:03Z</time>
      </trkpt>
      <trkpt lat="42.87538" lon="1.82955">
        <ele>1051.3388671875</ele>
        <time>2014-04-20T08:55:07Z</time>
      </trkpt>
      <trkpt lat="42.87531" lon="1.82954">
        <ele>1049.8969726562</ele>
        <time>2014-04-20T08:55:11Z</time>
      </trkpt>
      <trkpt lat="42.87528" lon="1.82953">
        <ele>1048.4548339844</ele>
        <time>2014-04-20T08:55:14Z</time>
      </trkpt>
      <trkpt lat="42.87528" lon="1.8295">
        <ele>1048.935546875</ele>
        <time>2014-04-20T08:55:17Z</time>
      </trkpt>
      <trkpt lat="42.87523" lon="1.82944">
        <ele>1046.5324707031</ele>
        <time>2014-04-20T08:55:24Z</time>
      </trkpt>
      <trkpt lat="42.87516" lon="1.82939">
        <ele>1046.0517578125</ele>
        <time>2014-04-20T08:55:29Z</time>
      </trkpt>
      <trkpt lat="42.87513" lon="1.82938">
        <ele>1046.0517578125</ele>
        <time>2014-04-20T08:55:30Z</time>
      </trkpt>
      <trkpt lat="42.87508" lon="1.82933">
        <ele>1045.5710449219</ele>
        <time>2014-04-20T08:55:32Z</time>
      </trkpt>
      <trkpt lat="42.87506" lon="1.82927">
        <ele>1043.6484375</ele>
        <time>2014-04-20T08:55:36Z</time>
      </trkpt>
      <trkpt lat="42.87511" lon="1.82935">
        <ele>1043.6484375</ele>
        <time>2014-04-20T08:55:41Z</time>
      </trkpt>
      <trkpt lat="42.87518" lon="1.82939">
        <ele>1045.5710449219</ele>
        <time>2014-04-20T08:55:46Z</time>
      </trkpt>
      <trkpt lat="42.87519" lon="1.82937">
        <ele>1047.9743652344</ele>
        <time>2014-04-20T08:55:50Z</time>
      </trkpt>
      <trkpt lat="42.87518" lon="1.82936">
        <ele>1048.4548339844</ele>
        <time>2014-04-20T08:55:51Z</time>
      </trkpt>
      <trkpt lat="42.87507" lon="1.82936">
        <ele>1047.4936523438</ele>
        <time>2014-04-20T08:55:56Z</time>
      </trkpt>
      <trkpt lat="42.875" lon="1.82923">
        <ele>1044.1291503906</ele>
        <time>2014-04-20T08:56:00Z</time>
      </trkpt>
      <trkpt lat="42.87498" lon="1.82915">
        <ele>1042.6872558594</ele>
        <time>2014-04-20T08:56:02Z</time>
      </trkpt>
      <trkpt lat="42.87488" lon="1.82883">
        <ele>1040.2839355469</ele>
        <time>2014-04-20T08:56:08Z</time>
      </trkpt>
      <trkpt lat="42.87483" lon="1.82855">
        <ele>1038.361328125</ele>
        <time>2014-04-20T08:56:13Z</time>
      </trkpt>
      <trkpt lat="42.87483" lon="1.82849">
        <ele>1037.8806152344</ele>
        <time>2014-04-20T08:56:14Z</time>
      </trkpt>
      <trkpt lat="42.87481" lon="1.82832">
        <ele>1036.9191894531</ele>
        <time>2014-04-20T08:56:18Z</time>
      </trkpt>
      <trkpt lat="42.87482" lon="1.82811">
        <ele>1036.4387207031</ele>
        <time>2014-04-20T08:56:23Z</time>
      </trkpt>
      <trkpt lat="42.87482" lon="1.82791">
        <ele>1037.3999023438</ele>
        <time>2014-04-20T08:56:28Z</time>
      </trkpt>
      <trkpt lat="42.87486" lon="1.82779">
        <ele>1036.9191894531</ele>
        <time>2014-04-20T08:56:32Z</time>
      </trkpt>
      <trkpt lat="42.8749" lon="1.82772">
        <ele>1036.4387207031</ele>
        <time>2014-04-20T08:56:35Z</time>
      </trkpt>
      <trkpt lat="42.87497" lon="1.82759">
        <ele>1036.4387207031</ele>
        <time>2014-04-20T08:56:41Z</time>
      </trkpt>
      <trkpt lat="42.87503" lon="1.8275">
        <ele>1036.9191894531</ele>
        <time>2014-04-20T08:56:46Z</time>
      </trkpt>
      <trkpt lat="42.87508" lon="1.8274">
        <ele>1038.8420410156</ele>
        <time>2014-04-20T08:56:50Z</time>
      </trkpt>
      <trkpt lat="42.87516" lon="1.82725">
        <ele>1040.7644042969</ele>
        <time>2014-04-20T08:56:55Z</time>
      </trkpt>
      <trkpt lat="42.87521" lon="1.82712">
        <ele>1041.7258300781</ele>
        <time>2014-04-20T08:56:59Z</time>
      </trkpt>
      <trkpt lat="42.87529" lon="1.82692">
        <ele>1043.6484375</ele>
        <time>2014-04-20T08:57:05Z</time>
      </trkpt>
      <trkpt lat="42.87534" lon="1.82678">
        <ele>1042.2065429688</ele>
        <time>2014-04-20T08:57:10Z</time>
      </trkpt>
      <trkpt lat="42.8754" lon="1.82665">
        <ele>1040.7644042969</ele>
        <time>2014-04-20T08:57:14Z</time>
      </trkpt>
      <trkpt lat="42.87543" lon="1.82652">
        <ele>1039.3225097656</ele>
        <time>2014-04-20T08:57:18Z</time>
      </trkpt>
      <trkpt lat="42.87545" lon="1.82636">
        <ele>1036.9191894531</ele>
        <time>2014-04-20T08:57:23Z</time>
      </trkpt>
      <trkpt lat="42.87547" lon="1.82622">
        <ele>1035.4770507812</ele>
        <time>2014-04-20T08:57:27Z</time>
      </trkpt>
      <trkpt lat="42.87552" lon="1.82605">
        <ele>1033.5544433594</ele>
        <time>2014-04-20T08:57:32Z</time>
      </trkpt>
      <trkpt lat="42.8756" lon="1.82592">
        <ele>1034.9965820312</ele>
        <time>2014-04-20T08:57:37Z</time>
      </trkpt>
      <trkpt lat="42.87569" lon="1.82577">
        <ele>1038.8420410156</ele>
        <time>2014-04-20T08:57:43Z</time>
      </trkpt>
      <trkpt lat="42.87577" lon="1.82562">
        <ele>1039.8032226562</ele>
        <time>2014-04-20T08:57:48Z</time>
      </trkpt>
      <trkpt lat="42.87586" lon="1.82554">
        <ele>1038.8420410156</ele>
        <time>2014-04-20T08:57:53Z</time>
      </trkpt>
      <trkpt lat="42.87601" lon="1.8255">
        <ele>1038.8420410156</ele>
        <time>2014-04-20T08:57:59Z</time>
      </trkpt>
      <trkpt lat="42.87611" lon="1.82546">
        <ele>1040.2839355469</ele>
        <time>2014-04-20T08:58:03Z</time>
      </trkpt>
      <trkpt lat="42.87617" lon="1.82544">
        <ele>1040.2839355469</ele>
        <time>2014-04-20T08:58:06Z</time>
      </trkpt>
      <trkpt lat="42.87624" lon="1.82538">
        <ele>1042.2065429688</ele>
        <time>2014-04-20T08:58:10Z</time>
      </trkpt>
      <trkpt lat="42.87632" lon="1.82529">
        <ele>1045.5710449219</ele>
        <time>2014-04-20T08:58:15Z</time>
      </trkpt>
      <trkpt lat="42.87637" lon="1.82523">
        <ele>1045.0903320312</ele>
        <time>2014-04-20T08:58:18Z</time>
      </trkpt>
      <trkpt lat="42.87646" lon="1.82508">
        <ele>1042.6872558594</ele>
        <time>2014-04-20T08:58:25Z</time>
      </trkpt>
      <trkpt lat="42.87651" lon="1.82498">
        <ele>1040.7644042969</ele>
        <time>2014-04-20T08:58:29Z</time>
      </trkpt>
      <trkpt lat="42.87656" lon="1.82483">
        <ele>1044.6096191406</ele>
        <time>2014-04-20T08:58:34Z</time>
      </trkpt>
      <trkpt lat="42.87661" lon="1.82468">
        <ele>1047.9743652344</ele>
        <time>2014-04-20T08:58:40Z</time>
      </trkpt>
      <trkpt lat="42.87665" lon="1.82459">
        <ele>1047.4936523438</ele>
        <time>2014-04-20T08:58:44Z</time>
      </trkpt>
      <trkpt lat="42.87669" lon="1.82448">
        <ele>1047.0129394531</ele>
        <time>2014-04-20T08:58:48Z</time>
      </trkpt>
      <trkpt lat="42.87677" lon="1.82437">
        <ele>1047.4936523438</ele>
        <time>2014-04-20T08:58:52Z</time>
      </trkpt>
      <trkpt lat="42.87686" lon="1.82422">
        <ele>1052.7810058594</ele>
        <time>2014-04-20T08:58:58Z</time>
      </trkpt>
      <trkpt lat="42.87688" lon="1.82417">
        <ele>1053.26171875</ele>
        <time>2014-04-20T08:59:00Z</time>
      </trkpt>
      <trkpt lat="42.87698" lon="1.82405">
        <ele>1054.2231445312</ele>
        <time>2014-04-20T08:59:06Z</time>
      </trkpt>
      <trkpt lat="42.87703" lon="1.824">
        <ele>1054.7036132812</ele>
        <time>2014-04-20T08:59:09Z</time>
      </trkpt>
      <trkpt lat="42.87708" lon="1.824">
        <ele>1054.7036132812</ele>
        <time>2014-04-20T08:59:12Z</time>
      </trkpt>
      <trkpt lat="42.87714" lon="1.82389">
        <ele>1053.7424316406</ele>
        <time>2014-04-20T08:59:17Z</time>
      </trkpt>
      <trkpt lat="42.87715" lon="1.82385">
        <ele>1053.26171875</ele>
        <time>2014-04-20T08:59:19Z</time>
      </trkpt>
      <trkpt lat="42.87722" lon="1.82373">
        <ele>1050.8581542969</ele>
        <time>2014-04-20T08:59:25Z</time>
      </trkpt>
      <trkpt lat="42.87727" lon="1.82362">
        <ele>1047.9743652344</ele>
        <time>2014-04-20T08:59:30Z</time>
      </trkpt>
      <trkpt lat="42.87736" lon="1.82348">
        <ele>1042.2065429688</ele>
        <time>2014-04-20T08:59:36Z</time>
      </trkpt>
      <trkpt lat="42.87742" lon="1.82338">
        <ele>1038.8420410156</ele>
        <time>2014-04-20T08:59:40Z</time>
      </trkpt>
      <trkpt lat="42.87748" lon="1.82333">
        <ele>1034.9965820312</ele>
        <time>2014-04-20T08:59:43Z</time>
      </trkpt>
      <trkpt lat="42.87755" lon="1.82318">
        <ele>1025.8640136719</ele>
        <time>2014-04-20T08:59:49Z</time>
      </trkpt>
      <trkpt lat="42.87756" lon="1.82316">
        <ele>1024.4221191406</ele>
        <time>2014-04-20T08:59:50Z</time>
      </trkpt>
      <trkpt lat="42.87762" lon="1.82308">
        <ele>1019.134765625</ele>
        <time>2014-04-20T08:59:54Z</time>
      </trkpt>
      <trkpt lat="42.87769" lon="1.82297">
        <ele>1011.9250488281</ele>
        <time>2014-04-20T08:59:59Z</time>
      </trkpt>
      <trkpt lat="42.87772" lon="1.82283">
        <ele>1003.7536621094</ele>
        <time>2014-04-20T09:00:04Z</time>
      </trkpt>
      <trkpt lat="42.87777" lon="1.82266">
        <ele>997.0244140625</ele>
        <time>2014-04-20T09:00:09Z</time>
      </trkpt>
      <trkpt lat="42.87781" lon="1.82255">
        <ele>991.7373046875</ele>
        <time>2014-04-20T09:00:13Z</time>
      </trkpt>
      <trkpt lat="42.87789" lon="1.82243">
        <ele>986.44995117188</ele>
        <time>2014-04-20T09:00:18Z</time>
      </trkpt>
      <trkpt lat="42.87795" lon="1.8223">
        <ele>980.68212890625</ele>
        <time>2014-04-20T09:00:23Z</time>
      </trkpt>
      <trkpt lat="42.87797" lon="1.82221">
        <ele>977.31762695312</ele>
        <time>2014-04-20T09:00:26Z</time>
      </trkpt>
      <trkpt lat="42.87803" lon="1.82211">
        <ele>971.06884765625</ele>
        <time>2014-04-20T09:00:31Z</time>
      </trkpt>
      <trkpt lat="42.87809" lon="1.82199">
        <ele>962.89770507812</ele>
        <time>2014-04-20T09:00:36Z</time>
      </trkpt>
      <trkpt lat="42.87813" lon="1.82186">
        <ele>954.24584960938</ele>
        <time>2014-04-20T09:00:40Z</time>
      </trkpt>
      <trkpt lat="42.87815" lon="1.82176">
        <ele>949.919921875</ele>
        <time>2014-04-20T09:00:43Z</time>
      </trkpt>
      <trkpt lat="42.87817" lon="1.82167">
        <ele>945.59399414062</ele>
        <time>2014-04-20T09:00:47Z</time>
      </trkpt>
      <trkpt lat="42.8782" lon="1.82154">
        <ele>945.59399414062</ele>
        <time>2014-04-20T09:00:51Z</time>
      </trkpt>
      <trkpt lat="42.87815" lon="1.82134">
        <ele>946.55541992188</ele>
        <time>2014-04-20T09:00:56Z</time>
      </trkpt>
      <trkpt lat="42.87814" lon="1.8213">
        <ele>947.5166015625</ele>
        <time>2014-04-20T09:00:57Z</time>
      </trkpt>
      <trkpt lat="42.87811" lon="1.82117">
        <ele>949.919921875</ele>
        <time>2014-04-20T09:01:01Z</time>
      </trkpt>
      <trkpt lat="42.87808" lon="1.82103">
        <ele>953.28442382812</ele>
        <time>2014-04-20T09:01:05Z</time>
      </trkpt>
      <trkpt lat="42.87806" lon="1.821">
        <ele>952.32299804688</ele>
        <time>2014-04-20T09:01:06Z</time>
      </trkpt>
      <trkpt lat="42.87806" lon="1.82074">
        <ele>971.54931640625</ele>
        <time>2014-04-20T09:01:11Z</time>
      </trkpt>
      <trkpt lat="42.87812" lon="1.82074">
        <ele>979.23999023438</ele>
        <time>2014-04-20T09:01:13Z</time>
      </trkpt>
      <trkpt lat="42.87826" lon="1.82084">
        <ele>985.00805664062</ele>
        <time>2014-04-20T09:01:18Z</time>
      </trkpt>
      <trkpt lat="42.87838" lon="1.82099">
        <ele>986.44995117188</ele>
        <time>2014-04-20T09:01:23Z</time>
      </trkpt>
      <trkpt lat="42.87851" lon="1.82118">
        <ele>987.89184570312</ele>
        <time>2014-04-20T09:01:29Z</time>
      </trkpt>
      <trkpt lat="42.8786" lon="1.8213">
        <ele>986.44995117188</ele>
        <time>2014-04-20T09:01:33Z</time>
      </trkpt>
      <trkpt lat="42.87872" lon="1.82129">
        <ele>988.37280273438</ele>
        <time>2014-04-20T09:01:37Z</time>
      </trkpt>
      <trkpt lat="42.87884" lon="1.82114">
        <ele>986.93041992188</ele>
        <time>2014-04-20T09:01:42Z</time>
      </trkpt>
      <trkpt lat="42.87895" lon="1.82091">
        <ele>985.48852539062</ele>
        <time>2014-04-20T09:01:48Z</time>
      </trkpt>
      <trkpt lat="42.87904" lon="1.82072">
        <ele>984.52734375</ele>
        <time>2014-04-20T09:01:53Z</time>
      </trkpt>
      <trkpt lat="42.87913" lon="1.82047">
        <ele>983.56591796875</ele>
        <time>2014-04-20T09:01:59Z</time>
      </trkpt>
      <trkpt lat="42.8792" lon="1.82023">
        <ele>983.56591796875</ele>
        <time>2014-04-20T09:02:05Z</time>
      </trkpt>
      <trkpt lat="42.87925" lon="1.81999">
        <ele>983.56591796875</ele>
        <time>2014-04-20T09:02:10Z</time>
      </trkpt>
      <trkpt lat="42.8793" lon="1.81978">
        <ele>983.08520507812</ele>
        <time>2014-04-20T09:02:15Z</time>
      </trkpt>
      <trkpt lat="42.8794" lon="1.81977">
        <ele>981.64331054688</ele>
        <time>2014-04-20T09:02:19Z</time>
      </trkpt>
      <trkpt lat="42.87947" lon="1.81981">
        <ele>981.16284179688</ele>
        <time>2014-04-20T09:02:22Z</time>
      </trkpt>
      <trkpt lat="42.87959" lon="1.81975">
        <ele>982.60473632812</ele>
        <time>2014-04-20T09:02:28Z</time>
      </trkpt>
      <trkpt lat="42.87967" lon="1.81966">
        <ele>984.52734375</ele>
        <time>2014-04-20T09:02:33Z</time>
      </trkpt>
      <trkpt lat="42.87971" lon="1.81963">
        <ele>985.48852539062</ele>
        <time>2014-04-20T09:02:35Z</time>
      </trkpt>
      <trkpt lat="42.87983" lon="1.81951">
        <ele>989.333984375</ele>
        <time>2014-04-20T09:02:42Z</time>
      </trkpt>
      <trkpt lat="42.87996" lon="1.81937">
        <ele>989.81469726562</ele>
        <time>2014-04-20T09:02:50Z</time>
      </trkpt>
      <trkpt lat="42.88" lon="1.81935">
        <ele>989.333984375</ele>
        <time>2014-04-20T09:02:52Z</time>
      </trkpt>
      <trkpt lat="42.88007" lon="1.81925">
        <ele>991.7373046875</ele>
        <time>2014-04-20T09:02:58Z</time>
      </trkpt>
      <trkpt lat="42.88013" lon="1.8192">
        <ele>993.17919921875</ele>
        <time>2014-04-20T09:03:04Z</time>
      </trkpt>
      <trkpt lat="42.88017" lon="1.81916">
        <ele>992.69873046875</ele>
        <time>2014-04-20T09:03:08Z</time>
      </trkpt>
      <trkpt lat="42.88025" lon="1.81909">
        <ele>994.62109375</ele>
        <time>2014-04-20T09:03:16Z</time>
      </trkpt>
      <trkpt lat="42.88035" lon="1.81899">
        <ele>995.58251953125</ele>
        <time>2014-04-20T09:03:26Z</time>
      </trkpt>
      <trkpt lat="42.88036" lon="1.81897">
        <ele>995.58251953125</ele>
        <time>2014-04-20T09:03:27Z</time>
      </trkpt>
      <trkpt lat="42.88047" lon="1.81888">
        <ele>994.62109375</ele>
        <time>2014-04-20T09:03:38Z</time>
      </trkpt>
      <trkpt lat="42.88054" lon="1.81882">
        <ele>997.0244140625</ele>
        <time>2014-04-20T09:03:44Z</time>
      </trkpt>
      <trkpt lat="42.88063" lon="1.81874">
        <ele>999.90844726562</ele>
        <time>2014-04-20T09:03:52Z</time>
      </trkpt>
      <trkpt lat="42.88068" lon="1.81868">
        <ele>1001.3503417969</ele>
        <time>2014-04-20T09:03:57Z</time>
      </trkpt>
      <trkpt lat="42.88073" lon="1.81862">
        <ele>1003.2729492188</ele>
        <time>2014-04-20T09:04:02Z</time>
      </trkpt>
      <trkpt lat="42.88076" lon="1.8186">
        <ele>1003.2729492188</ele>
        <time>2014-04-20T09:04:04Z</time>
      </trkpt>
      <trkpt lat="42.88082" lon="1.81856">
        <ele>1003.2729492188</ele>
        <time>2014-04-20T09:04:09Z</time>
      </trkpt>
      <trkpt lat="42.8809" lon="1.81848">
        <ele>1005.1958007812</ele>
        <time>2014-04-20T09:04:16Z</time>
      </trkpt>
      <trkpt lat="42.88092" lon="1.81846">
        <ele>1006.1569824219</ele>
        <time>2014-04-20T09:04:18Z</time>
      </trkpt>
      <trkpt lat="42.88099" lon="1.81839">
        <ele>1008.0798339844</ele>
        <time>2014-04-20T09:04:24Z</time>
      </trkpt>
      <trkpt lat="42.88107" lon="1.8183">
        <ele>1007.5991210938</ele>
        <time>2014-04-20T09:04:32Z</time>
      </trkpt>
      <trkpt lat="42.88118" lon="1.8182">
        <ele>1009.5217285156</ele>
        <time>2014-04-20T09:04:41Z</time>
      </trkpt>
      <trkpt lat="42.8813" lon="1.81809">
        <ele>1010.0021972656</ele>
        <time>2014-04-20T09:04:51Z</time>
      </trkpt>
      <trkpt lat="42.88139" lon="1.81801">
        <ele>1010.4829101562</ele>
        <time>2014-04-20T09:04:59Z</time>
      </trkpt>
      <trkpt lat="42.88145" lon="1.81794">
        <ele>1011.9250488281</ele>
        <time>2014-04-20T09:05:05Z</time>
      </trkpt>
      <trkpt lat="42.88153" lon="1.81785">
        <ele>1010.4829101562</ele>
        <time>2014-04-20T09:05:13Z</time>
      </trkpt>
      <trkpt lat="42.88161" lon="1.81778">
        <ele>1009.5217285156</ele>
        <time>2014-04-20T09:05:20Z</time>
      </trkpt>
      <trkpt lat="42.88168" lon="1.8177">
        <ele>1012.8862304688</ele>
        <time>2014-04-20T09:05:27Z</time>
      </trkpt>
      <trkpt lat="42.88176" lon="1.81763">
        <ele>1011.9250488281</ele>
        <time>2014-04-20T09:05:34Z</time>
      </trkpt>
      <trkpt lat="42.88181" lon="1.81756">
        <ele>1012.4055175781</ele>
        <time>2014-04-20T09:05:40Z</time>
      </trkpt>
      <trkpt lat="42.88184" lon="1.81752">
        <ele>1014.8088378906</ele>
        <time>2014-04-20T09:05:44Z</time>
      </trkpt>
      <trkpt lat="42.88187" lon="1.81749">
        <ele>1014.328125</ele>
        <time>2014-04-20T09:05:47Z</time>
      </trkpt>
      <trkpt lat="42.88191" lon="1.81744">
        <ele>1015.2895507812</ele>
        <time>2014-04-20T09:05:52Z</time>
      </trkpt>
      <trkpt lat="42.88195" lon="1.81741">
        <ele>1015.7702636719</ele>
        <time>2014-04-20T09:05:57Z</time>
      </trkpt>
      <trkpt lat="42.88205" lon="1.81733">
        <ele>1021.0576171875</ele>
        <time>2014-04-20T09:06:06Z</time>
      </trkpt>
      <trkpt lat="42.88214" lon="1.81726">
        <ele>1025.3833007812</ele>
        <time>2014-04-20T09:06:14Z</time>
      </trkpt>
      <trkpt lat="42.88216" lon="1.81725">
        <ele>1025.3833007812</ele>
        <time>2014-04-20T09:06:15Z</time>
      </trkpt>
      <trkpt lat="42.88223" lon="1.81719">
        <ele>1026.8254394531</ele>
        <time>2014-04-20T09:06:21Z</time>
      </trkpt>
      <trkpt lat="42.88234" lon="1.81716">
        <ele>1027.3061523438</ele>
        <time>2014-04-20T09:06:29Z</time>
      </trkpt>
      <trkpt lat="42.8824" lon="1.81718">
        <ele>1029.228515625</ele>
        <time>2014-04-20T09:06:35Z</time>
      </trkpt>
      <trkpt lat="42.88243" lon="1.81717">
        <ele>1030.6706542969</ele>
        <time>2014-04-20T09:06:38Z</time>
      </trkpt>
      <trkpt lat="42.88245" lon="1.81717">
        <ele>1031.6318359375</ele>
        <time>2014-04-20T09:06:45Z</time>
      </trkpt>
      <trkpt lat="42.88247" lon="1.81717">
        <ele>1033.0737304688</ele>
        <time>2014-04-20T09:06:52Z</time>
      </trkpt>
      <trkpt lat="42.88247" lon="1.81717">
        <ele>1032.5932617188</ele>
        <time>2014-04-20T09:07:05Z</time>
      </trkpt>
      <trkpt lat="42.88247" lon="1.81717">
        <ele>1031.6318359375</ele>
        <time>2014-04-20T09:07:37Z</time>
      </trkpt>
      <trkpt lat="42.88248" lon="1.81718">
        <ele>1031.6318359375</ele>
        <time>2014-04-20T09:08:00Z</time>
      </trkpt>
      <trkpt lat="42.88248" lon="1.81718">
        <ele>1031.1513671875</ele>
        <time>2014-04-20T09:08:06Z</time>
      </trkpt>
      <trkpt lat="42.88252" lon="1.81719">
        <ele>1030.6706542969</ele>
        <time>2014-04-20T09:08:12Z</time>
      </trkpt>
      <trkpt lat="42.88256" lon="1.81719">
        <ele>1030.1899414062</ele>
        <time>2014-04-20T09:08:15Z</time>
      </trkpt>
      <trkpt lat="42.88265" lon="1.81714">
        <ele>1028.748046875</ele>
        <time>2014-04-20T09:08:19Z</time>
      </trkpt>
      <trkpt lat="42.88266" lon="1.81711">
        <ele>1028.748046875</ele>
        <time>2014-04-20T09:08:20Z</time>
      </trkpt>
      <trkpt lat="42.88268" lon="1.81693">
        <ele>1027.3061523438</ele>
        <time>2014-04-20T09:08:25Z</time>
      </trkpt>
      <trkpt lat="42.88269" lon="1.81682">
        <ele>1026.3447265625</ele>
        <time>2014-04-20T09:08:28Z</time>
      </trkpt>
      <trkpt lat="42.88284" lon="1.81664">
        <ele>1022.9802246094</ele>
        <time>2014-04-20T09:08:35Z</time>
      </trkpt>
      <trkpt lat="42.88291" lon="1.81656">
        <ele>1019.6154785156</ele>
        <time>2014-04-20T09:08:39Z</time>
      </trkpt>
      <trkpt lat="42.883" lon="1.81649">
        <ele>1016.7314453125</ele>
        <time>2014-04-20T09:08:43Z</time>
      </trkpt>
      <trkpt lat="42.88311" lon="1.81638">
        <ele>1011.9250488281</ele>
        <time>2014-04-20T09:08:48Z</time>
      </trkpt>
      <trkpt lat="42.88321" lon="1.8163">
        <ele>1009.5217285156</ele>
        <time>2014-04-20T09:08:53Z</time>
      </trkpt>
      <trkpt lat="42.88324" lon="1.81629">
        <ele>1009.041015625</ele>
        <time>2014-04-20T09:08:54Z</time>
      </trkpt>
      <trkpt lat="42.88337" lon="1.81616">
        <ele>1008.0798339844</ele>
        <time>2014-04-20T09:09:00Z</time>
      </trkpt>
      <trkpt lat="42.88347" lon="1.81605">
        <ele>1007.1184082031</ele>
        <time>2014-04-20T09:09:05Z</time>
      </trkpt>
      <trkpt lat="42.88358" lon="1.81599">
        <ele>1001.8310546875</ele>
        <time>2014-04-20T09:09:10Z</time>
      </trkpt>
      <trkpt lat="42.88367" lon="1.81597">
        <ele>1000.3891601562</ele>
        <time>2014-04-20T09:09:14Z</time>
      </trkpt>
      <trkpt lat="42.88376" lon="1.81593">
        <ele>999.90844726562</ele>
        <time>2014-04-20T09:09:18Z</time>
      </trkpt>
      <trkpt lat="42.88379" lon="1.81595">
        <ele>995.10180664062</ele>
        <time>2014-04-20T09:09:20Z</time>
      </trkpt>
      <trkpt lat="42.88381" lon="1.81608">
        <ele>986.44995117188</ele>
        <time>2014-04-20T09:09:24Z</time>
      </trkpt>
      <trkpt lat="42.8838" lon="1.81612">
        <ele>983.56591796875</ele>
        <time>2014-04-20T09:09:27Z</time>
      </trkpt>
      <trkpt lat="42.88377" lon="1.81624">
        <ele>978.75952148438</ele>
        <time>2014-04-20T09:09:32Z</time>
      </trkpt>
      <trkpt lat="42.88378" lon="1.81641">
        <ele>972.99169921875</ele>
        <time>2014-04-20T09:09:38Z</time>
      </trkpt>
      <trkpt lat="42.88378" lon="1.8165">
        <ele>971.06884765625</ele>
        <time>2014-04-20T09:09:41Z</time>
      </trkpt>
      <trkpt lat="42.88379" lon="1.81655">
        <ele>970.58813476562</ele>
        <time>2014-04-20T09:09:43Z</time>
      </trkpt>
      <trkpt lat="42.88388" lon="1.81645">
        <ele>972.51098632812</ele>
        <time>2014-04-20T09:09:48Z</time>
      </trkpt>
      <trkpt lat="42.88389" lon="1.81642">
        <ele>972.0302734375</ele>
        <time>2014-04-20T09:09:49Z</time>
      </trkpt>
      <trkpt lat="42.88399" lon="1.81637">
        <ele>973.95288085938</ele>
        <time>2014-04-20T09:09:53Z</time>
      </trkpt>
      <trkpt lat="42.88412" lon="1.8163">
        <ele>971.06884765625</ele>
        <time>2014-04-20T09:09:59Z</time>
      </trkpt>
      <trkpt lat="42.8842" lon="1.81618">
        <ele>973.47241210938</ele>
        <time>2014-04-20T09:10:04Z</time>
      </trkpt>
      <trkpt lat="42.88427" lon="1.816">
        <ele>978.75952148438</ele>
        <time>2014-04-20T09:10:09Z</time>
      </trkpt>
      <trkpt lat="42.88437" lon="1.8159">
        <ele>974.43359375</ele>
        <time>2014-04-20T09:10:14Z</time>
      </trkpt>
      <trkpt lat="42.88443" lon="1.81586">
        <ele>969.626953125</ele>
        <time>2014-04-20T09:10:17Z</time>
      </trkpt>
      <trkpt lat="42.88456" lon="1.8158">
        <ele>961.9365234375</ele>
        <time>2014-04-20T09:10:22Z</time>
      </trkpt>
      <trkpt lat="42.88459" lon="1.81578">
        <ele>960.97509765625</ele>
        <time>2014-04-20T09:10:23Z</time>
      </trkpt>
      <trkpt lat="42.88462" lon="1.81574">
        <ele>957.61059570312</ele>
        <time>2014-04-20T09:10:25Z</time>
      </trkpt>
      <trkpt lat="42.88469" lon="1.81573">
        <ele>954.24584960938</ele>
        <time>2014-04-20T09:10:29Z</time>
      </trkpt>
      <trkpt lat="42.88485" lon="1.81574">
        <ele>950.88110351562</ele>
        <time>2014-04-20T09:10:35Z</time>
      </trkpt>
      <trkpt lat="42.88499" lon="1.8157">
        <ele>948.47778320312</ele>
        <time>2014-04-20T09:10:39Z</time>
      </trkpt>
      <trkpt lat="42.88511" lon="1.81562">
        <ele>951.36181640625</ele>
        <time>2014-04-20T09:10:43Z</time>
      </trkpt>
      <trkpt lat="42.88521" lon="1.81553">
        <ele>950.40063476562</ele>
        <time>2014-04-20T09:10:47Z</time>
      </trkpt>
      <trkpt lat="42.88536" lon="1.81547">
        <ele>947.5166015625</ele>
        <time>2014-04-20T09:10:52Z</time>
      </trkpt>
      <trkpt lat="42.88548" lon="1.81541">
        <ele>944.63256835938</ele>
        <time>2014-04-20T09:10:57Z</time>
      </trkpt>
      <trkpt lat="42.8856" lon="1.81534">
        <ele>945.11328125</ele>
        <time>2014-04-20T09:11:02Z</time>
      </trkpt>
      <trkpt lat="42.88572" lon="1.81522">
        <ele>943.19067382812</ele>
        <time>2014-04-20T09:11:07Z</time>
      </trkpt>
      <trkpt lat="42.88587" lon="1.8151">
        <ele>941.26806640625</ele>
        <time>2014-04-20T09:11:13Z</time>
      </trkpt>
      <trkpt lat="42.88598" lon="1.81497">
        <ele>940.78735351562</ele>
        <time>2014-04-20T09:11:18Z</time>
      </trkpt>
      <trkpt lat="42.88605" lon="1.81488">
        <ele>939.82592773438</ele>
        <time>2014-04-20T09:11:21Z</time>
      </trkpt>
      <trkpt lat="42.88619" lon="1.81484">
        <ele>934.05810546875</ele>
        <time>2014-04-20T09:11:26Z</time>
      </trkpt>
      <trkpt lat="42.88623" lon="1.81485">
        <ele>930.69360351562</ele>
        <time>2014-04-20T09:11:28Z</time>
      </trkpt>
      <trkpt lat="42.88638" lon="1.81486">
        <ele>923.48364257812</ele>
        <time>2014-04-20T09:11:33Z</time>
      </trkpt>
      <trkpt lat="42.8865" lon="1.81481">
        <ele>920.11889648438</ele>
        <time>2014-04-20T09:11:37Z</time>
      </trkpt>
      <trkpt lat="42.88655" lon="1.81478">
        <ele>918.67700195312</ele>
        <time>2014-04-20T09:11:39Z</time>
      </trkpt>
      <trkpt lat="42.88669" lon="1.81483">
        <ele>912.42846679688</ele>
        <time>2014-04-20T09:11:45Z</time>
      </trkpt>
      <trkpt lat="42.88681" lon="1.81483">
        <ele>909.06396484375</ele>
        <time>2014-04-20T09:11:50Z</time>
      </trkpt>
      <trkpt lat="42.88692" lon="1.81479">
        <ele>909.06396484375</ele>
        <time>2014-04-20T09:11:54Z</time>
      </trkpt>
      <trkpt lat="42.88704" lon="1.8148">
        <ele>905.21850585938</ele>
        <time>2014-04-20T09:11:59Z</time>
      </trkpt>
      <trkpt lat="42.88718" lon="1.81477">
        <ele>901.85400390625</ele>
        <time>2014-04-20T09:12:05Z</time>
      </trkpt>
      <trkpt lat="42.8872" lon="1.81476">
        <ele>901.37329101562</ele>
        <time>2014-04-20T09:12:06Z</time>
      </trkpt>
      <trkpt lat="42.8873" lon="1.81474">
        <ele>898.4892578125</ele>
        <time>2014-04-20T09:12:11Z</time>
      </trkpt>
      <trkpt lat="42.88733" lon="1.81475">
        <ele>896.08618164062</ele>
        <time>2014-04-20T09:12:13Z</time>
      </trkpt>
      <trkpt lat="42.88744" lon="1.81476">
        <ele>890.79858398438</ele>
        <time>2014-04-20T09:12:19Z</time>
      </trkpt>
      <trkpt lat="42.88752" lon="1.81468">
        <ele>892.7216796875</ele>
        <time>2014-04-20T09:12:23Z</time>
      </trkpt>
      <trkpt lat="42.88761" lon="1.81459">
        <ele>890.31811523438</ele>
        <time>2014-04-20T09:12:28Z</time>
      </trkpt>
      <trkpt lat="42.88762" lon="1.81457">
        <ele>889.35668945312</ele>
        <time>2014-04-20T09:12:29Z</time>
      </trkpt>
      <trkpt lat="42.88766" lon="1.8145">
        <ele>887.91479492188</ele>
        <time>2014-04-20T09:12:32Z</time>
      </trkpt>
      <trkpt lat="42.88778" lon="1.81433">
        <ele>886.95336914062</ele>
        <time>2014-04-20T09:12:39Z</time>
      </trkpt>
      <trkpt lat="42.88787" lon="1.81421">
        <ele>901.37329101562</ele>
        <time>2014-04-20T09:12:43Z</time>
      </trkpt>
      <trkpt lat="42.88796" lon="1.81413">
        <ele>906.1796875</ele>
        <time>2014-04-20T09:12:47Z</time>
      </trkpt>
      <trkpt lat="42.88806" lon="1.81398">
        <ele>907.14111328125</ele>
        <time>2014-04-20T09:12:52Z</time>
      </trkpt>
      <trkpt lat="42.88813" lon="1.81386">
        <ele>908.58325195312</ele>
        <time>2014-04-20T09:12:56Z</time>
      </trkpt>
      <trkpt lat="42.8882" lon="1.81373">
        <ele>911.94799804688</ele>
        <time>2014-04-20T09:13:00Z</time>
      </trkpt>
      <trkpt lat="42.88825" lon="1.81355">
        <ele>913.38989257812</ele>
        <time>2014-04-20T09:13:06Z</time>
      </trkpt>
      <trkpt lat="42.88825" lon="1.81348">
        <ele>910.98657226562</ele>
        <time>2014-04-20T09:13:11Z</time>
      </trkpt>
      <trkpt lat="42.88824" lon="1.81339">
        <ele>907.62182617188</ele>
        <time>2014-04-20T09:13:17Z</time>
      </trkpt>
      <trkpt lat="42.88824" lon="1.81333">
        <ele>906.66040039062</ele>
        <time>2014-04-20T09:13:21Z</time>
      </trkpt>
      <trkpt lat="42.88824" lon="1.81328">
        <ele>904.25732421875</ele>
        <time>2014-04-20T09:13:26Z</time>
      </trkpt>
      <trkpt lat="42.88824" lon="1.81324">
        <ele>907.62182617188</ele>
        <time>2014-04-20T09:13:28Z</time>
      </trkpt>
      <trkpt lat="42.88826" lon="1.81317">
        <ele>906.66040039062</ele>
        <time>2014-04-20T09:13:33Z</time>
      </trkpt>
      <trkpt lat="42.88826" lon="1.81314">
        <ele>903.77661132812</ele>
        <time>2014-04-20T09:13:38Z</time>
      </trkpt>
      <trkpt lat="42.88834" lon="1.81303">
        <ele>912.9091796875</ele>
        <time>2014-04-20T09:13:43Z</time>
      </trkpt>
      <trkpt lat="42.88842" lon="1.81297">
        <ele>912.42846679688</ele>
        <time>2014-04-20T09:13:47Z</time>
      </trkpt>
      <trkpt lat="42.88853" lon="1.81293">
        <ele>908.10278320312</ele>
        <time>2014-04-20T09:13:52Z</time>
      </trkpt>
      <trkpt lat="42.88861" lon="1.81288">
        <ele>903.77661132812</ele>
        <time>2014-04-20T09:13:56Z</time>
      </trkpt>
      <trkpt lat="42.88871" lon="1.81284">
        <ele>899.45068359375</ele>
        <time>2014-04-20T09:14:00Z</time>
      </trkpt>
      <trkpt lat="42.88882" lon="1.81278">
        <ele>895.12475585938</ele>
        <time>2014-04-20T09:14:04Z</time>
      </trkpt>
      <trkpt lat="42.88894" lon="1.81275">
        <ele>888.3955078125</ele>
        <time>2014-04-20T09:14:08Z</time>
      </trkpt>
      <trkpt lat="42.88905" lon="1.81274">
        <ele>884.06958007812</ele>
        <time>2014-04-20T09:14:12Z</time>
      </trkpt>
      <trkpt lat="42.88916" lon="1.81277">
        <ele>879.26293945312</ele>
        <time>2014-04-20T09:14:16Z</time>
      </trkpt>
      <trkpt lat="42.88925" lon="1.81278">
        <ele>876.37915039062</ele>
        <time>2014-04-20T09:14:20Z</time>
      </trkpt>
      <trkpt lat="42.88937" lon="1.8128">
        <ele>870.13037109375</ele>
        <time>2014-04-20T09:14:24Z</time>
      </trkpt>
      <trkpt lat="42.88951" lon="1.81283">
        <ele>866.28515625</ele>
        <time>2014-04-20T09:14:29Z</time>
      </trkpt>
      <trkpt lat="42.88965" lon="1.81285">
        <ele>865.32397460938</ele>
        <time>2014-04-20T09:14:34Z</time>
      </trkpt>
      <trkpt lat="42.88985" lon="1.81282">
        <ele>867.24658203125</ele>
        <time>2014-04-20T09:14:40Z</time>
      </trkpt>
      <trkpt lat="42.89" lon="1.81276">
        <ele>870.13037109375</ele>
        <time>2014-04-20T09:14:45Z</time>
      </trkpt>
      <trkpt lat="42.89016" lon="1.81267">
        <ele>868.6884765625</ele>
        <time>2014-04-20T09:14:50Z</time>
      </trkpt>
      <trkpt lat="42.89034" lon="1.81258">
        <ele>867.24658203125</ele>
        <time>2014-04-20T09:14:56Z</time>
      </trkpt>
      <trkpt lat="42.89037" lon="1.81258">
        <ele>866.76586914062</ele>
        <time>2014-04-20T09:14:57Z</time>
      </trkpt>
      <trkpt lat="42.89051" lon="1.81249">
        <ele>865.32397460938</ele>
        <time>2014-04-20T09:15:02Z</time>
      </trkpt>
      <trkpt lat="42.89064" lon="1.8124">
        <ele>864.36254882812</ele>
        <time>2014-04-20T09:15:06Z</time>
      </trkpt>
      <trkpt lat="42.89071" lon="1.81237">
        <ele>863.8818359375</ele>
        <time>2014-04-20T09:15:08Z</time>
      </trkpt>
      <trkpt lat="42.89083" lon="1.8123">
        <ele>864.84326171875</ele>
        <time>2014-04-20T09:15:12Z</time>
      </trkpt>
      <trkpt lat="42.89097" lon="1.81211">
        <ele>866.28515625</ele>
        <time>2014-04-20T09:15:18Z</time>
      </trkpt>
      <trkpt lat="42.89101" lon="1.81204">
        <ele>865.32397460938</ele>
        <time>2014-04-20T09:15:20Z</time>
      </trkpt>
      <trkpt lat="42.89103" lon="1.81181">
        <ele>865.32397460938</ele>
        <time>2014-04-20T09:15:25Z</time>
      </trkpt>
      <trkpt lat="42.89111" lon="1.81154">
        <ele>865.8046875</ele>
        <time>2014-04-20T09:15:31Z</time>
      </trkpt>
      <trkpt lat="42.89121" lon="1.81135">
        <ele>868.20776367188</ele>
        <time>2014-04-20T09:15:36Z</time>
      </trkpt>
      <trkpt lat="42.89132" lon="1.81118">
        <ele>868.20776367188</ele>
        <time>2014-04-20T09:15:41Z</time>
      </trkpt>
      <trkpt lat="42.89141" lon="1.81107">
        <ele>866.76586914062</ele>
        <time>2014-04-20T09:15:45Z</time>
      </trkpt>
      <trkpt lat="42.89153" lon="1.81088">
        <ele>862.43994140625</ele>
        <time>2014-04-20T09:15:51Z</time>
      </trkpt>
      <trkpt lat="42.89161" lon="1.81076">
        <ele>859.0751953125</ele>
        <time>2014-04-20T09:15:55Z</time>
      </trkpt>
      <trkpt lat="42.89174" lon="1.81057">
        <ele>853.7880859375</ele>
        <time>2014-04-20T09:16:01Z</time>
      </trkpt>
      <trkpt lat="42.89184" lon="1.81036">
        <ele>851.86547851562</ele>
        <time>2014-04-20T09:16:07Z</time>
      </trkpt>
      <trkpt lat="42.89191" lon="1.81016">
        <ele>851.384765625</ele>
        <time>2014-04-20T09:16:12Z</time>
      </trkpt>
      <trkpt lat="42.89196" lon="1.80993">
        <ele>852.82666015625</ele>
        <time>2014-04-20T09:16:17Z</time>
      </trkpt>
      <trkpt lat="42.89202" lon="1.80973">
        <ele>852.82666015625</ele>
        <time>2014-04-20T09:16:22Z</time>
      </trkpt>
      <trkpt lat="42.8921" lon="1.80956">
        <ele>850.90405273438</ele>
        <time>2014-04-20T09:16:27Z</time>
      </trkpt>
      <trkpt lat="42.89219" lon="1.80939">
        <ele>849.94287109375</ele>
        <time>2014-04-20T09:16:32Z</time>
      </trkpt>
      <trkpt lat="42.8922" lon="1.80936">
        <ele>850.42358398438</ele>
        <time>2014-04-20T09:16:33Z</time>
      </trkpt>
      <trkpt lat="42.8924" lon="1.80924">
        <ele>848.02026367188</ele>
        <time>2014-04-20T09:16:40Z</time>
      </trkpt>
      <trkpt lat="42.89255" lon="1.80923">
        <ele>847.53955078125</ele>
        <time>2014-04-20T09:16:45Z</time>
      </trkpt>
      <trkpt lat="42.89262" lon="1.80927">
        <ele>845.13623046875</ele>
        <time>2014-04-20T09:16:49Z</time>
      </trkpt>
      <trkpt lat="42.89266" lon="1.80936">
        <ele>840.81005859375</ele>
        <time>2014-04-20T09:16:55Z</time>
      </trkpt>
      <trkpt lat="42.8927" lon="1.80939">
        <ele>841.29077148438</ele>
        <time>2014-04-20T09:16:58Z</time>
      </trkpt>
      <trkpt lat="42.8929" lon="1.80941">
        <ele>841.771484375</ele>
        <time>2014-04-20T09:17:05Z</time>
      </trkpt>
      <trkpt lat="42.89302" lon="1.8094">
        <ele>841.29077148438</ele>
        <time>2014-04-20T09:17:09Z</time>
      </trkpt>
      <trkpt lat="42.89315" lon="1.80942">
        <ele>839.3681640625</ele>
        <time>2014-04-20T09:17:13Z</time>
      </trkpt>
      <trkpt lat="42.89331" lon="1.80947">
        <ele>836.96484375</ele>
        <time>2014-04-20T09:17:18Z</time>
      </trkpt>
      <trkpt lat="42.89342" lon="1.80953">
        <ele>832.15844726562</ele>
        <time>2014-04-20T09:17:23Z</time>
      </trkpt>
      <trkpt lat="42.8935" lon="1.80954">
        <ele>829.2744140625</ele>
        <time>2014-04-20T09:17:26Z</time>
      </trkpt>
      <trkpt lat="42.89363" lon="1.80961">
        <ele>823.50659179688</ele>
        <time>2014-04-20T09:17:32Z</time>
      </trkpt>
      <trkpt lat="42.89375" lon="1.80969">
        <ele>817.73852539062</ele>
        <time>2014-04-20T09:17:37Z</time>
      </trkpt>
      <trkpt lat="42.89385" lon="1.8098">
        <ele>813.89331054688</ele>
        <time>2014-04-20T09:17:41Z</time>
      </trkpt>
      <trkpt lat="42.89391" lon="1.80996">
        <ele>809.08666992188</ele>
        <time>2014-04-20T09:17:46Z</time>
      </trkpt>
      <trkpt lat="42.89393" lon="1.8101">
        <ele>803.31884765625</ele>
        <time>2014-04-20T09:17:52Z</time>
      </trkpt>
      <trkpt lat="42.894" lon="1.81022">
        <ele>800.43505859375</ele>
        <time>2014-04-20T09:17:57Z</time>
      </trkpt>
      <trkpt lat="42.89404" lon="1.81031">
        <ele>795.1474609375</ele>
        <time>2014-04-20T09:18:01Z</time>
      </trkpt>
      <trkpt lat="42.89407" lon="1.81042">
        <ele>792.263671875</ele>
        <time>2014-04-20T09:18:05Z</time>
      </trkpt>
      <trkpt lat="42.89407" lon="1.81056">
        <ele>789.8603515625</ele>
        <time>2014-04-20T09:18:10Z</time>
      </trkpt>
      <trkpt lat="42.89411" lon="1.8107">
        <ele>786.01513671875</ele>
        <time>2014-04-20T09:18:15Z</time>
      </trkpt>
      <trkpt lat="42.89411" lon="1.81073">
        <ele>785.53442382812</ele>
        <time>2014-04-20T09:18:16Z</time>
      </trkpt>
      <trkpt lat="42.8941" lon="1.81083">
        <ele>785.05395507812</ele>
        <time>2014-04-20T09:18:19Z</time>
      </trkpt>
      <trkpt lat="42.89418" lon="1.81107">
        <ele>781.68920898438</ele>
        <time>2014-04-20T09:18:25Z</time>
      </trkpt>
      <trkpt lat="42.89422" lon="1.81117">
        <ele>781.20874023438</ele>
        <time>2014-04-20T09:18:28Z</time>
      </trkpt>
      <trkpt lat="42.89429" lon="1.81132">
        <ele>779.76635742188</ele>
        <time>2014-04-20T09:18:34Z</time>
      </trkpt>
      <trkpt lat="42.89441" lon="1.81147">
        <ele>784.09252929688</ele>
        <time>2014-04-20T09:18:40Z</time>
      </trkpt>
      <trkpt lat="42.89443" lon="1.81149">
        <ele>785.05395507812</ele>
        <time>2014-04-20T09:18:41Z</time>
      </trkpt>
      <trkpt lat="42.89455" lon="1.81155">
        <ele>795.62817382812</ele>
        <time>2014-04-20T09:18:47Z</time>
      </trkpt>
      <trkpt lat="42.89465" lon="1.81166">
        <ele>791.30224609375</ele>
        <time>2014-04-20T09:18:53Z</time>
      </trkpt>
      <trkpt lat="42.89473" lon="1.81177">
        <ele>782.65063476562</ele>
        <time>2014-04-20T09:18:58Z</time>
      </trkpt>
      <trkpt lat="42.89475" lon="1.8118">
        <ele>779.28564453125</ele>
        <time>2014-04-20T09:19:00Z</time>
      </trkpt>
      <trkpt lat="42.89482" lon="1.81191">
        <ele>771.59521484375</ele>
        <time>2014-04-20T09:19:05Z</time>
      </trkpt>
      <trkpt lat="42.89489" lon="1.81201">
        <ele>769.19213867188</ele>
        <time>2014-04-20T09:19:09Z</time>
      </trkpt>
      <trkpt lat="42.89499" lon="1.81195">
        <ele>767.26953125</ele>
        <time>2014-04-20T09:19:14Z</time>
      </trkpt>
      <trkpt lat="42.89501" lon="1.81189">
        <ele>763.42407226562</ele>
        <time>2014-04-20T09:19:17Z</time>
      </trkpt>
      <trkpt lat="42.89504" lon="1.81179">
        <ele>760.05932617188</ele>
        <time>2014-04-20T09:19:21Z</time>
      </trkpt>
      <trkpt lat="42.89511" lon="1.81164">
        <ele>749.9658203125</ele>
        <time>2014-04-20T09:19:27Z</time>
      </trkpt>
      <trkpt lat="42.89511" lon="1.81152">
        <ele>742.27514648438</ele>
        <time>2014-04-20T09:19:31Z</time>
      </trkpt>
      <trkpt lat="42.89509" lon="1.81141">
        <ele>735.5458984375</ele>
        <time>2014-04-20T09:19:35Z</time>
      </trkpt>
      <trkpt lat="42.89509" lon="1.81127">
        <ele>734.10400390625</ele>
        <time>2014-04-20T09:19:41Z</time>
      </trkpt>
      <trkpt lat="42.89515" lon="1.81115">
        <ele>737.94921875</ele>
        <time>2014-04-20T09:19:45Z</time>
      </trkpt>
      <trkpt lat="42.89517" lon="1.81096">
        <ele>738.42993164062</ele>
        <time>2014-04-20T09:19:49Z</time>
      </trkpt>
      <trkpt lat="42.89513" lon="1.81076">
        <ele>738.91064453125</ele>
        <time>2014-04-20T09:19:54Z</time>
      </trkpt>
      <trkpt lat="42.89508" lon="1.81054">
        <ele>745.15893554688</ele>
        <time>2014-04-20T09:19:59Z</time>
      </trkpt>
      <trkpt lat="42.8951" lon="1.81044">
        <ele>745.6396484375</ele>
        <time>2014-04-20T09:20:03Z</time>
      </trkpt>
      <trkpt lat="42.89512" lon="1.81046">
        <ele>744.67822265625</ele>
        <time>2014-04-20T09:20:04Z</time>
      </trkpt>
      <trkpt lat="42.89523" lon="1.81056">
        <ele>738.91064453125</ele>
        <time>2014-04-20T09:20:10Z</time>
      </trkpt>
      <trkpt lat="42.89529" lon="1.81065">
        <ele>736.98779296875</ele>
        <time>2014-04-20T09:20:14Z</time>
      </trkpt>
      <trkpt lat="42.89531" lon="1.81067">
        <ele>735.5458984375</ele>
        <time>2014-04-20T09:20:15Z</time>
      </trkpt>
      <trkpt lat="42.89536" lon="1.81075">
        <ele>731.70043945312</ele>
        <time>2014-04-20T09:20:19Z</time>
      </trkpt>
      <trkpt lat="42.89541" lon="1.81079">
        <ele>728.3359375</ele>
        <time>2014-04-20T09:20:22Z</time>
      </trkpt>
      <trkpt lat="42.89544" lon="1.81085">
        <ele>727.37475585938</ele>
        <time>2014-04-20T09:20:26Z</time>
      </trkpt>
      <trkpt lat="42.89552" lon="1.8109">
        <ele>727.37475585938</ele>
        <time>2014-04-20T09:20:30Z</time>
      </trkpt>
      <trkpt lat="42.89566" lon="1.81092">
        <ele>723.52954101562</ele>
        <time>2014-04-20T09:20:36Z</time>
      </trkpt>
      <trkpt lat="42.8958" lon="1.81102">
        <ele>714.39672851562</ele>
        <time>2014-04-20T09:20:42Z</time>
      </trkpt>
      <trkpt lat="42.89589" lon="1.81114">
        <ele>707.18701171875</ele>
        <time>2014-04-20T09:20:48Z</time>
      </trkpt>
      <trkpt lat="42.89599" lon="1.81123">
        <ele>702.38037109375</ele>
        <time>2014-04-20T09:20:54Z</time>
      </trkpt>
      <trkpt lat="42.89605" lon="1.8113">
        <ele>699.49633789062</ele>
        <time>2014-04-20T09:20:57Z</time>
      </trkpt>
      <trkpt lat="42.8962" lon="1.8114">
        <ele>704.30322265625</ele>
        <time>2014-04-20T09:21:04Z</time>
      </trkpt>
      <trkpt lat="42.89625" lon="1.81143">
        <ele>701.41918945312</ele>
        <time>2014-04-20T09:21:07Z</time>
      </trkpt>
      <trkpt lat="42.89641" lon="1.81154">
        <ele>705.26440429688</ele>
        <time>2014-04-20T09:21:13Z</time>
      </trkpt>
      <trkpt lat="42.8965" lon="1.81166">
        <ele>703.341796875</ele>
        <time>2014-04-20T09:21:18Z</time>
      </trkpt>
      <trkpt lat="42.89656" lon="1.81173">
        <ele>696.61254882812</ele>
        <time>2014-04-20T09:21:21Z</time>
      </trkpt>
      <trkpt lat="42.89663" lon="1.81184">
        <ele>690.84448242188</ele>
        <time>2014-04-20T09:21:25Z</time>
      </trkpt>
      <trkpt lat="42.89673" lon="1.81197">
        <ele>683.63452148438</ele>
        <time>2014-04-20T09:21:31Z</time>
      </trkpt>
      <trkpt lat="42.89676" lon="1.81202">
        <ele>680.75073242188</ele>
        <time>2014-04-20T09:21:34Z</time>
      </trkpt>
      <trkpt lat="42.89681" lon="1.81215">
        <ele>673.541015625</ele>
        <time>2014-04-20T09:21:39Z</time>
      </trkpt>
      <trkpt lat="42.89684" lon="1.8122">
        <ele>671.6181640625</ele>
        <time>2014-04-20T09:21:41Z</time>
      </trkpt>
      <trkpt lat="42.89685" lon="1.8123">
        <ele>667.29223632812</ele>
        <time>2014-04-20T09:21:45Z</time>
      </trkpt>
      <trkpt lat="42.89694" lon="1.8123">
        <ele>668.25366210938</ele>
        <time>2014-04-20T09:21:49Z</time>
      </trkpt>
      <trkpt lat="42.897" lon="1.81221">
        <ele>667.77270507812</ele>
        <time>2014-04-20T09:21:52Z</time>
      </trkpt>
      <trkpt lat="42.89707" lon="1.81204">
        <ele>668.25366210938</ele>
        <time>2014-04-20T09:21:57Z</time>
      </trkpt>
      <trkpt lat="42.89711" lon="1.81199">
        <ele>667.29223632812</ele>
        <time>2014-04-20T09:21:59Z</time>
      </trkpt>
      <trkpt lat="42.89724" lon="1.81202">
        <ele>665.85034179688</ele>
        <time>2014-04-20T09:22:04Z</time>
      </trkpt>
      <trkpt lat="42.8973" lon="1.81209">
        <ele>664.408203125</ele>
        <time>2014-04-20T09:22:07Z</time>
      </trkpt>
      <trkpt lat="42.89737" lon="1.81227">
        <ele>662.00512695312</ele>
        <time>2014-04-20T09:22:12Z</time>
      </trkpt>
      <trkpt lat="42.89743" lon="1.81241">
        <ele>652.39184570312</ele>
        <time>2014-04-20T09:22:16Z</time>
      </trkpt>
      <trkpt lat="42.89751" lon="1.81254">
        <ele>652.39184570312</ele>
        <time>2014-04-20T09:22:20Z</time>
      </trkpt>
      <trkpt lat="42.89764" lon="1.81254">
        <ele>659.60180664062</ele>
        <time>2014-04-20T09:22:25Z</time>
      </trkpt>
      <trkpt lat="42.89775" lon="1.81245">
        <ele>656.7177734375</ele>
        <time>2014-04-20T09:22:31Z</time>
      </trkpt>
      <trkpt lat="42.89786" lon="1.81239">
        <ele>661.5244140625</ele>
        <time>2014-04-20T09:22:35Z</time>
      </trkpt>
      <trkpt lat="42.89803" lon="1.81231">
        <ele>666.8115234375</ele>
        <time>2014-04-20T09:22:42Z</time>
      </trkpt>
      <trkpt lat="42.89807" lon="1.81229">
        <ele>672.09887695312</ele>
        <time>2014-04-20T09:22:46Z</time>
      </trkpt>
      <trkpt lat="42.89815" lon="1.81223">
        <ele>674.98291015625</ele>
        <time>2014-04-20T09:22:50Z</time>
      </trkpt>
      <trkpt lat="42.89824" lon="1.81212">
        <ele>685.07690429688</ele>
        <time>2014-04-20T09:22:54Z</time>
      </trkpt>
      <trkpt lat="42.89834" lon="1.81203">
        <ele>700.9384765625</ele>
        <time>2014-04-20T09:22:58Z</time>
      </trkpt>
      <trkpt lat="42.89843" lon="1.81194">
        <ele>709.10961914062</ele>
        <time>2014-04-20T09:23:02Z</time>
      </trkpt>
      <trkpt lat="42.89857" lon="1.8119">
        <ele>718.2421875</ele>
        <time>2014-04-20T09:23:07Z</time>
      </trkpt>
      <trkpt lat="42.89868" lon="1.81187">
        <ele>712.47412109375</ele>
        <time>2014-04-20T09:23:12Z</time>
      </trkpt>
      <trkpt lat="42.89874" lon="1.81187">
        <ele>691.80590820312</ele>
        <time>2014-04-20T09:23:16Z</time>
      </trkpt>
      <trkpt lat="42.89881" lon="1.81187">
        <ele>675.94409179688</ele>
        <time>2014-04-20T09:23:20Z</time>
      </trkpt>
      <trkpt lat="42.89887" lon="1.81188">
        <ele>666.33081054688</ele>
        <time>2014-04-20T09:23:23Z</time>
      </trkpt>
      <trkpt lat="42.89898" lon="1.81176">
        <ele>657.19848632812</ele>
        <time>2014-04-20T09:23:29Z</time>
      </trkpt>
      <trkpt lat="42.89911" lon="1.81166">
        <ele>650.46923828125</ele>
        <time>2014-04-20T09:23:34Z</time>
      </trkpt>
      <trkpt lat="42.89923" lon="1.81158">
        <ele>645.66259765625</ele>
        <time>2014-04-20T09:23:38Z</time>
      </trkpt>
      <trkpt lat="42.89938" lon="1.8115">
        <ele>643.73999023438</ele>
        <time>2014-04-20T09:23:43Z</time>
      </trkpt>
      <trkpt lat="42.8995" lon="1.81147">
        <ele>641.33666992188</ele>
        <time>2014-04-20T09:23:47Z</time>
      </trkpt>
      <trkpt lat="42.89962" lon="1.81143">
        <ele>639.4140625</ele>
        <time>2014-04-20T09:23:51Z</time>
      </trkpt>
      <trkpt lat="42.89974" lon="1.81143">
        <ele>639.4140625</ele>
        <time>2014-04-20T09:23:55Z</time>
      </trkpt>
      <trkpt lat="42.89983" lon="1.81158">
        <ele>639.89477539062</ele>
        <time>2014-04-20T09:24:00Z</time>
      </trkpt>
      <trkpt lat="42.89993" lon="1.81165">
        <ele>640.37548828125</ele>
        <time>2014-04-20T09:24:04Z</time>
      </trkpt>
      <trkpt lat="42.90013" lon="1.81171">
        <ele>639.89477539062</ele>
        <time>2014-04-20T09:24:11Z</time>
      </trkpt>
      <trkpt lat="42.90025" lon="1.81173">
        <ele>637.97216796875</ele>
        <time>2014-04-20T09:24:16Z</time>
      </trkpt>
      <trkpt lat="42.90031" lon="1.81174">
        <ele>635.08813476562</ele>
        <time>2014-04-20T09:24:19Z</time>
      </trkpt>
      <trkpt lat="42.90039" lon="1.81175">
        <ele>635.08813476562</ele>
        <time>2014-04-20T09:24:25Z</time>
      </trkpt>
      <trkpt lat="42.90046" lon="1.81179">
        <ele>631.72338867188</ele>
        <time>2014-04-20T09:24:29Z</time>
      </trkpt>
      <trkpt lat="42.90047" lon="1.81179">
        <ele>631.24291992188</ele>
        <time>2014-04-20T09:24:30Z</time>
      </trkpt>
      <trkpt lat="42.90053" lon="1.81184">
        <ele>628.83959960938</ele>
        <time>2014-04-20T09:24:34Z</time>
      </trkpt>
      <trkpt lat="42.90068" lon="1.81185">
        <ele>626.43627929688</ele>
        <time>2014-04-20T09:24:40Z</time>
      </trkpt>
      <trkpt lat="42.90084" lon="1.81187">
        <ele>626.43627929688</ele>
        <time>2014-04-20T09:24:46Z</time>
      </trkpt>
      <trkpt lat="42.90097" lon="1.81193">
        <ele>626.9169921875</ele>
        <time>2014-04-20T09:24:51Z</time>
      </trkpt>
      <trkpt lat="42.90112" lon="1.81198">
        <ele>624.99438476562</ele>
        <time>2014-04-20T09:24:56Z</time>
      </trkpt>
      <trkpt lat="42.90125" lon="1.812">
        <ele>624.513671875</ele>
        <time>2014-04-20T09:25:00Z</time>
      </trkpt>
      <trkpt lat="42.90136" lon="1.81203">
        <ele>624.513671875</ele>
        <time>2014-04-20T09:25:04Z</time>
      </trkpt>
      <trkpt lat="42.90148" lon="1.81207">
        <ele>625.47485351562</ele>
        <time>2014-04-20T09:25:09Z</time>
      </trkpt>
      <trkpt lat="42.90168" lon="1.81209">
        <ele>625.95556640625</ele>
        <time>2014-04-20T09:25:15Z</time>
      </trkpt>
      <trkpt lat="42.90181" lon="1.81212">
        <ele>625.95556640625</ele>
        <time>2014-04-20T09:25:19Z</time>
      </trkpt>
      <trkpt lat="42.90197" lon="1.81216">
        <ele>625.47485351562</ele>
        <time>2014-04-20T09:25:24Z</time>
      </trkpt>
      <trkpt lat="42.90211" lon="1.81217">
        <ele>626.43627929688</ele>
        <time>2014-04-20T09:25:28Z</time>
      </trkpt>
      <trkpt lat="42.90221" lon="1.81218">
        <ele>627.39770507812</ele>
        <time>2014-04-20T09:25:31Z</time>
      </trkpt>
      <trkpt lat="42.9023" lon="1.8124">
        <ele>628.35888671875</ele>
        <time>2014-04-20T09:25:37Z</time>
      </trkpt>
      <trkpt lat="42.90234" lon="1.81254">
        <ele>626.9169921875</ele>
        <time>2014-04-20T09:25:41Z</time>
      </trkpt>
      <trkpt lat="42.90237" lon="1.81263">
        <ele>624.99438476562</ele>
        <time>2014-04-20T09:25:44Z</time>
      </trkpt>
      <trkpt lat="42.90243" lon="1.81286">
        <ele>623.55249023438</ele>
        <time>2014-04-20T09:25:50Z</time>
      </trkpt>
      <trkpt lat="42.90249" lon="1.81306">
        <ele>624.03295898438</ele>
        <time>2014-04-20T09:25:55Z</time>
      </trkpt>
      <trkpt lat="42.90253" lon="1.81322">
        <ele>624.03295898438</ele>
        <time>2014-04-20T09:25:59Z</time>
      </trkpt>
      <trkpt lat="42.90261" lon="1.81338">
        <ele>623.07177734375</ele>
        <time>2014-04-20T09:26:04Z</time>
      </trkpt>
      <trkpt lat="42.90276" lon="1.81354">
        <ele>622.1103515625</ele>
        <time>2014-04-20T09:26:10Z</time>
      </trkpt>
      <trkpt lat="42.90283" lon="1.81366">
        <ele>623.07177734375</ele>
        <time>2014-04-20T09:26:14Z</time>
      </trkpt>
      <trkpt lat="42.90289" lon="1.81385">
        <ele>624.513671875</ele>
        <time>2014-04-20T09:26:19Z</time>
      </trkpt>
      <trkpt lat="42.90293" lon="1.81406">
        <ele>624.99438476562</ele>
        <time>2014-04-20T09:26:24Z</time>
      </trkpt>
      <trkpt lat="42.90298" lon="1.81426">
        <ele>624.99438476562</ele>
        <time>2014-04-20T09:26:29Z</time>
      </trkpt>
      <trkpt lat="42.90307" lon="1.81445">
        <ele>624.99438476562</ele>
        <time>2014-04-20T09:26:34Z</time>
      </trkpt>
      <trkpt lat="42.90313" lon="1.81464">
        <ele>623.55249023438</ele>
        <time>2014-04-20T09:26:39Z</time>
      </trkpt>
      <trkpt lat="42.90321" lon="1.81481">
        <ele>622.1103515625</ele>
        <time>2014-04-20T09:26:44Z</time>
      </trkpt>
      <trkpt lat="42.90331" lon="1.81498">
        <ele>622.59106445312</ele>
        <time>2014-04-20T09:26:50Z</time>
      </trkpt>
      <trkpt lat="42.90347" lon="1.81509">
        <ele>621.14916992188</ele>
        <time>2014-04-20T09:26:55Z</time>
      </trkpt>
      <trkpt lat="42.9036" lon="1.81524">
        <ele>620.18774414062</ele>
        <time>2014-04-20T09:27:01Z</time>
      </trkpt>
      <trkpt lat="42.90368" lon="1.81537">
        <ele>619.70703125</ele>
        <time>2014-04-20T09:27:05Z</time>
      </trkpt>
      <trkpt lat="42.9037" lon="1.8154">
        <ele>619.22631835938</ele>
        <time>2014-04-20T09:27:06Z</time>
      </trkpt>
      <trkpt lat="42.90377" lon="1.81553">
        <ele>617.7841796875</ele>
        <time>2014-04-20T09:27:10Z</time>
      </trkpt>
      <trkpt lat="42.90383" lon="1.8157">
        <ele>615.38110351562</ele>
        <time>2014-04-20T09:27:15Z</time>
      </trkpt>
      <trkpt lat="42.90387" lon="1.81588">
        <ele>617.3037109375</ele>
        <time>2014-04-20T09:27:20Z</time>
      </trkpt>
      <trkpt lat="42.90392" lon="1.81602">
        <ele>617.3037109375</ele>
        <time>2014-04-20T09:27:24Z</time>
      </trkpt>
      <trkpt lat="42.90395" lon="1.81619">
        <ele>616.82299804688</ele>
        <time>2014-04-20T09:27:29Z</time>
      </trkpt>
      <trkpt lat="42.90398" lon="1.81634">
        <ele>618.26489257812</ele>
        <time>2014-04-20T09:27:33Z</time>
      </trkpt>
      <trkpt lat="42.90402" lon="1.81653">
        <ele>619.22631835938</ele>
        <time>2014-04-20T09:27:38Z</time>
      </trkpt>
      <trkpt lat="42.90405" lon="1.8166">
        <ele>619.70703125</ele>
        <time>2014-04-20T09:27:40Z</time>
      </trkpt>
      <trkpt lat="42.90409" lon="1.81679">
        <ele>617.3037109375</ele>
        <time>2014-04-20T09:27:46Z</time>
      </trkpt>
      <trkpt lat="42.90414" lon="1.81694">
        <ele>616.82299804688</ele>
        <time>2014-04-20T09:27:50Z</time>
      </trkpt>
      <trkpt lat="42.90419" lon="1.81712">
        <ele>614.900390625</ele>
        <time>2014-04-20T09:27:55Z</time>
      </trkpt>
      <trkpt lat="42.90422" lon="1.81727">
        <ele>613.93896484375</ele>
        <time>2014-04-20T09:27:59Z</time>
      </trkpt>
      <trkpt lat="42.90427" lon="1.81745">
        <ele>613.93896484375</ele>
        <time>2014-04-20T09:28:04Z</time>
      </trkpt>
      <trkpt lat="42.90436" lon="1.81762">
        <ele>614.900390625</ele>
        <time>2014-04-20T09:28:09Z</time>
      </trkpt>
      <trkpt lat="42.90443" lon="1.81773">
        <ele>615.38110351562</ele>
        <time>2014-04-20T09:28:13Z</time>
      </trkpt>
      <trkpt lat="42.90453" lon="1.81789">
        <ele>614.41967773438</ele>
        <time>2014-04-20T09:28:18Z</time>
      </trkpt>
      <trkpt lat="42.9046" lon="1.81801">
        <ele>612.97778320312</ele>
        <time>2014-04-20T09:28:22Z</time>
      </trkpt>
      <trkpt lat="42.90466" lon="1.81819">
        <ele>612.97778320312</ele>
        <time>2014-04-20T09:28:27Z</time>
      </trkpt>
      <trkpt lat="42.90467" lon="1.81837">
        <ele>612.4970703125</ele>
        <time>2014-04-20T09:28:32Z</time>
      </trkpt>
      <trkpt lat="42.90472" lon="1.81854">
        <ele>614.41967773438</ele>
        <time>2014-04-20T09:28:37Z</time>
      </trkpt>
      <trkpt lat="42.90478" lon="1.81873">
        <ele>614.900390625</ele>
        <time>2014-04-20T09:28:42Z</time>
      </trkpt>
      <trkpt lat="42.90481" lon="1.81882">
        <ele>614.900390625</ele>
        <time>2014-04-20T09:28:45Z</time>
      </trkpt>
      <trkpt lat="42.9049" lon="1.81898">
        <ele>612.4970703125</ele>
        <time>2014-04-20T09:28:50Z</time>
      </trkpt>
      <trkpt lat="42.90491" lon="1.81901">
        <ele>612.0166015625</ele>
        <time>2014-04-20T09:28:51Z</time>
      </trkpt>
      <trkpt lat="42.90499" lon="1.81916">
        <ele>612.97778320312</ele>
        <time>2014-04-20T09:28:56Z</time>
      </trkpt>
      <trkpt lat="42.90503" lon="1.81923">
        <ele>612.4970703125</ele>
        <time>2014-04-20T09:28:58Z</time>
      </trkpt>
      <trkpt lat="42.90511" lon="1.81942">
        <ele>613.93896484375</ele>
        <time>2014-04-20T09:29:04Z</time>
      </trkpt>
      <trkpt lat="42.90516" lon="1.81957">
        <ele>612.0166015625</ele>
        <time>2014-04-20T09:29:08Z</time>
      </trkpt>
      <trkpt lat="42.90519" lon="1.81979">
        <ele>612.97778320312</ele>
        <time>2014-04-20T09:29:13Z</time>
      </trkpt>
      <trkpt lat="42.90519" lon="1.81995">
        <ele>615.86181640625</ele>
        <time>2014-04-20T09:29:18Z</time>
      </trkpt>
      <trkpt lat="42.90522" lon="1.82013">
        <ele>612.4970703125</ele>
        <time>2014-04-20T09:29:23Z</time>
      </trkpt>
      <trkpt lat="42.90528" lon="1.8203">
        <ele>614.41967773438</ele>
        <time>2014-04-20T09:29:29Z</time>
      </trkpt>
      <trkpt lat="42.90532" lon="1.82039">
        <ele>616.82299804688</ele>
        <time>2014-04-20T09:29:32Z</time>
      </trkpt>
      <trkpt lat="42.90538" lon="1.82053">
        <ele>616.34228515625</ele>
        <time>2014-04-20T09:29:37Z</time>
      </trkpt>
      <trkpt lat="42.90545" lon="1.82069">
        <ele>614.41967773438</ele>
        <time>2014-04-20T09:29:41Z</time>
      </trkpt>
      <trkpt lat="42.9055" lon="1.82083">
        <ele>614.41967773438</ele>
        <time>2014-04-20T09:29:45Z</time>
      </trkpt>
      <trkpt lat="42.90557" lon="1.82095">
        <ele>615.38110351562</ele>
        <time>2014-04-20T09:29:49Z</time>
      </trkpt>
      <trkpt lat="42.90564" lon="1.82112">
        <ele>619.70703125</ele>
        <time>2014-04-20T09:29:55Z</time>
      </trkpt>
      <trkpt lat="42.90569" lon="1.82122">
        <ele>617.7841796875</ele>
        <time>2014-04-20T09:29:59Z</time>
      </trkpt>
      <trkpt lat="42.90574" lon="1.82132">
        <ele>617.3037109375</ele>
        <time>2014-04-20T09:30:03Z</time>
      </trkpt>
      <trkpt lat="42.9058" lon="1.82148">
        <ele>616.34228515625</ele>
        <time>2014-04-20T09:30:09Z</time>
      </trkpt>
      <trkpt lat="42.90583" lon="1.82157">
        <ele>615.38110351562</ele>
        <time>2014-04-20T09:30:12Z</time>
      </trkpt>
      <trkpt lat="42.90586" lon="1.8217">
        <ele>614.41967773438</ele>
        <time>2014-04-20T09:30:16Z</time>
      </trkpt>
      <trkpt lat="42.90591" lon="1.82185">
        <ele>613.93896484375</ele>
        <time>2014-04-20T09:30:21Z</time>
      </trkpt>
      <trkpt lat="42.90592" lon="1.82189">
        <ele>613.45849609375</ele>
        <time>2014-04-20T09:30:22Z</time>
      </trkpt>
      <trkpt lat="42.90601" lon="1.82205">
        <ele>612.0166015625</ele>
        <time>2014-04-20T09:30:27Z</time>
      </trkpt>
      <trkpt lat="42.90608" lon="1.82216">
        <ele>611.53588867188</ele>
        <time>2014-04-20T09:30:31Z</time>
      </trkpt>
      <trkpt lat="42.90617" lon="1.82229">
        <ele>611.05517578125</ele>
        <time>2014-04-20T09:30:36Z</time>
      </trkpt>
      <trkpt lat="42.90632" lon="1.8224">
        <ele>609.61328125</ele>
        <time>2014-04-20T09:30:42Z</time>
      </trkpt>
      <trkpt lat="42.90645" lon="1.82249">
        <ele>608.17138671875</ele>
        <time>2014-04-20T09:30:47Z</time>
      </trkpt>
      <trkpt lat="42.90658" lon="1.82252">
        <ele>607.69067382812</ele>
        <time>2014-04-20T09:30:51Z</time>
      </trkpt>
      <trkpt lat="42.90673" lon="1.82252">
        <ele>606.72924804688</ele>
        <time>2014-04-20T09:30:56Z</time>
      </trkpt>
      <trkpt lat="42.9069" lon="1.82261">
        <ele>604.806640625</ele>
        <time>2014-04-20T09:31:02Z</time>
      </trkpt>
      <trkpt lat="42.90698" lon="1.82268">
        <ele>605.76806640625</ele>
        <time>2014-04-20T09:31:05Z</time>
      </trkpt>
      <trkpt lat="42.90703" lon="1.82278">
        <ele>606.72924804688</ele>
        <time>2014-04-20T09:31:09Z</time>
      </trkpt>
      <trkpt lat="42.90708" lon="1.82293">
        <ele>607.2099609375</ele>
        <time>2014-04-20T09:31:13Z</time>
      </trkpt>
      <trkpt lat="42.90712" lon="1.82307">
        <ele>607.2099609375</ele>
        <time>2014-04-20T09:31:17Z</time>
      </trkpt>
      <trkpt lat="42.90716" lon="1.8232">
        <ele>606.72924804688</ele>
        <time>2014-04-20T09:31:21Z</time>
      </trkpt>
      <trkpt lat="42.9072" lon="1.82338">
        <ele>606.72924804688</ele>
        <time>2014-04-20T09:31:26Z</time>
      </trkpt>
      <trkpt lat="42.90725" lon="1.82351">
        <ele>605.28735351562</ele>
        <time>2014-04-20T09:31:30Z</time>
      </trkpt>
      <trkpt lat="42.9073" lon="1.82369">
        <ele>604.806640625</ele>
        <time>2014-04-20T09:31:35Z</time>
      </trkpt>
      <trkpt lat="42.90736" lon="1.82384">
        <ele>605.76806640625</ele>
        <time>2014-04-20T09:31:40Z</time>
      </trkpt>
      <trkpt lat="42.90738" lon="1.82388">
        <ele>606.24853515625</ele>
        <time>2014-04-20T09:31:41Z</time>
      </trkpt>
      <trkpt lat="42.90741" lon="1.82396">
        <ele>606.72924804688</ele>
        <time>2014-04-20T09:31:43Z</time>
      </trkpt>
      <trkpt lat="42.90743" lon="1.82414">
        <ele>609.13256835938</ele>
        <time>2014-04-20T09:31:48Z</time>
      </trkpt>
      <trkpt lat="42.90745" lon="1.82432">
        <ele>610.57446289062</ele>
        <time>2014-04-20T09:31:53Z</time>
      </trkpt>
      <trkpt lat="42.90743" lon="1.82446">
        <ele>611.05517578125</ele>
        <time>2014-04-20T09:31:57Z</time>
      </trkpt>
      <trkpt lat="42.90739" lon="1.82461">
        <ele>610.09375</ele>
        <time>2014-04-20T09:32:01Z</time>
      </trkpt>
      <trkpt lat="42.90737" lon="1.82479">
        <ele>608.17138671875</ele>
        <time>2014-04-20T09:32:07Z</time>
      </trkpt>
      <trkpt lat="42.90738" lon="1.82491">
        <ele>608.17138671875</ele>
        <time>2014-04-20T09:32:11Z</time>
      </trkpt>
      <trkpt lat="42.90739" lon="1.82509">
        <ele>609.13256835938</ele>
        <time>2014-04-20T09:32:16Z</time>
      </trkpt>
      <trkpt lat="42.90742" lon="1.82523">
        <ele>610.57446289062</ele>
        <time>2014-04-20T09:32:20Z</time>
      </trkpt>
      <trkpt lat="42.90743" lon="1.8253">
        <ele>611.05517578125</ele>
        <time>2014-04-20T09:32:22Z</time>
      </trkpt>
      <trkpt lat="42.90742" lon="1.82548">
        <ele>611.05517578125</ele>
        <time>2014-04-20T09:32:27Z</time>
      </trkpt>
      <trkpt lat="42.90742" lon="1.82557">
        <ele>611.05517578125</ele>
        <time>2014-04-20T09:32:30Z</time>
      </trkpt>
      <trkpt lat="42.90742" lon="1.82561">
        <ele>611.05517578125</ele>
        <time>2014-04-20T09:32:31Z</time>
      </trkpt>
      <trkpt lat="42.90743" lon="1.8258">
        <ele>611.05517578125</ele>
        <time>2014-04-20T09:32:36Z</time>
      </trkpt>
      <trkpt lat="42.90742" lon="1.82591">
        <ele>611.05517578125</ele>
        <time>2014-04-20T09:32:39Z</time>
      </trkpt>
      <trkpt lat="42.90739" lon="1.82609">
        <ele>612.0166015625</ele>
        <time>2014-04-20T09:32:44Z</time>
      </trkpt>
      <trkpt lat="42.90731" lon="1.82628">
        <ele>612.97778320312</ele>
        <time>2014-04-20T09:32:49Z</time>
      </trkpt>
      <trkpt lat="42.90727" lon="1.82635">
        <ele>614.41967773438</ele>
        <time>2014-04-20T09:32:52Z</time>
      </trkpt>
      <trkpt lat="42.90719" lon="1.82646">
        <ele>614.41967773438</ele>
        <time>2014-04-20T09:32:56Z</time>
      </trkpt>
      <trkpt lat="42.90714" lon="1.82663">
        <ele>610.57446289062</ele>
        <time>2014-04-20T09:33:02Z</time>
      </trkpt>
      <trkpt lat="42.90718" lon="1.82669">
        <ele>607.69067382812</ele>
        <time>2014-04-20T09:33:05Z</time>
      </trkpt>
      <trkpt lat="42.90734" lon="1.82673">
        <ele>605.28735351562</ele>
        <time>2014-04-20T09:33:10Z</time>
      </trkpt>
      <trkpt lat="42.90737" lon="1.82674">
        <ele>604.326171875</ele>
        <time>2014-04-20T09:33:11Z</time>
      </trkpt>
      <trkpt lat="42.90756" lon="1.82678">
        <ele>602.40307617188</ele>
        <time>2014-04-20T09:33:17Z</time>
      </trkpt>
      <trkpt lat="42.90774" lon="1.82678">
        <ele>599.03857421875</ele>
        <time>2014-04-20T09:33:23Z</time>
      </trkpt>
      <trkpt lat="42.90786" lon="1.82678">
        <ele>598.07739257812</ele>
        <time>2014-04-20T09:33:27Z</time>
      </trkpt>
      <trkpt lat="42.90796" lon="1.82684">
        <ele>597.11596679688</ele>
        <time>2014-04-20T09:33:31Z</time>
      </trkpt>
      <trkpt lat="42.90806" lon="1.82697">
        <ele>596.15478515625</ele>
        <time>2014-04-20T09:33:35Z</time>
      </trkpt>
      <trkpt lat="42.90817" lon="1.82711">
        <ele>594.71264648438</ele>
        <time>2014-04-20T09:33:40Z</time>
      </trkpt>
      <trkpt lat="42.90823" lon="1.82724">
        <ele>593.27075195312</ele>
        <time>2014-04-20T09:33:44Z</time>
      </trkpt>
      <trkpt lat="42.90826" lon="1.82734">
        <ele>593.27075195312</ele>
        <time>2014-04-20T09:33:47Z</time>
      </trkpt>
      <trkpt lat="42.90823" lon="1.82754">
        <ele>595.193359375</ele>
        <time>2014-04-20T09:33:53Z</time>
      </trkpt>
      <trkpt lat="42.90818" lon="1.82764">
        <ele>595.67407226562</ele>
        <time>2014-04-20T09:33:56Z</time>
      </trkpt>
      <trkpt lat="42.90816" lon="1.82776">
        <ele>596.15478515625</ele>
        <time>2014-04-20T09:34:00Z</time>
      </trkpt>
      <trkpt lat="42.90824" lon="1.82787">
        <ele>596.15478515625</ele>
        <time>2014-04-20T09:34:04Z</time>
      </trkpt>
      <trkpt lat="42.90826" lon="1.8279">
        <ele>596.15478515625</ele>
        <time>2014-04-20T09:34:05Z</time>
      </trkpt>
      <trkpt lat="42.90838" lon="1.82805">
        <ele>596.63549804688</ele>
        <time>2014-04-20T09:34:11Z</time>
      </trkpt>
      <trkpt lat="42.9085" lon="1.82815">
        <ele>596.15478515625</ele>
        <time>2014-04-20T09:34:16Z</time>
      </trkpt>
      <trkpt lat="42.90863" lon="1.8282">
        <ele>595.193359375</ele>
        <time>2014-04-20T09:34:21Z</time>
      </trkpt>
      <trkpt lat="42.90874" lon="1.82822">
        <ele>594.71264648438</ele>
        <time>2014-04-20T09:34:25Z</time>
      </trkpt>
      <trkpt lat="42.90887" lon="1.82826">
        <ele>594.71264648438</ele>
        <time>2014-04-20T09:34:30Z</time>
      </trkpt>
      <trkpt lat="42.90894" lon="1.82834">
        <ele>594.23217773438</ele>
        <time>2014-04-20T09:34:33Z</time>
      </trkpt>
      <trkpt lat="42.90901" lon="1.82848">
        <ele>592.3095703125</ele>
        <time>2014-04-20T09:34:37Z</time>
      </trkpt>
      <trkpt lat="42.90908" lon="1.82864">
        <ele>589.42553710938</ele>
        <time>2014-04-20T09:34:41Z</time>
      </trkpt>
      <trkpt lat="42.90915" lon="1.82882">
        <ele>587.9833984375</ele>
        <time>2014-04-20T09:34:46Z</time>
      </trkpt>
      <trkpt lat="42.90923" lon="1.82897">
        <ele>586.06079101562</ele>
        <time>2014-04-20T09:34:51Z</time>
      </trkpt>
      <trkpt lat="42.90928" lon="1.82911">
        <ele>584.61889648438</ele>
        <time>2014-04-20T09:34:55Z</time>
      </trkpt>
      <trkpt lat="42.90934" lon="1.82925">
        <ele>583.1767578125</ele>
        <time>2014-04-20T09:34:59Z</time>
      </trkpt>
      <trkpt lat="42.90941" lon="1.82953">
        <ele>580.77368164062</ele>
        <time>2014-04-20T09:35:06Z</time>
      </trkpt>
      <trkpt lat="42.90942" lon="1.82956">
        <ele>580.29296875</ele>
        <time>2014-04-20T09:35:07Z</time>
      </trkpt>
      <trkpt lat="42.90949" lon="1.82978">
        <ele>580.29296875</ele>
        <time>2014-04-20T09:35:13Z</time>
      </trkpt>
      <trkpt lat="42.90957" lon="1.82991">
        <ele>579.81225585938</ele>
        <time>2014-04-20T09:35:17Z</time>
      </trkpt>
      <trkpt lat="42.90961" lon="1.82996">
        <ele>579.81225585938</ele>
        <time>2014-04-20T09:35:19Z</time>
      </trkpt>
      <trkpt lat="42.90972" lon="1.83016">
        <ele>580.29296875</ele>
        <time>2014-04-20T09:35:25Z</time>
      </trkpt>
      <trkpt lat="42.9098" lon="1.83032">
        <ele>580.77368164062</ele>
        <time>2014-04-20T09:35:30Z</time>
      </trkpt>
      <trkpt lat="42.90986" lon="1.83045">
        <ele>582.21557617188</ele>
        <time>2014-04-20T09:35:35Z</time>
      </trkpt>
      <trkpt lat="42.90993" lon="1.83058">
        <ele>582.21557617188</ele>
        <time>2014-04-20T09:35:39Z</time>
      </trkpt>
      <trkpt lat="42.91003" lon="1.83072">
        <ele>583.65747070312</ele>
        <time>2014-04-20T09:35:44Z</time>
      </trkpt>
      <trkpt lat="42.91006" lon="1.83087">
        <ele>584.13818359375</ele>
        <time>2014-04-20T09:35:49Z</time>
      </trkpt>
      <trkpt lat="42.91008" lon="1.83102">
        <ele>584.61889648438</ele>
        <time>2014-04-20T09:35:53Z</time>
      </trkpt>
      <trkpt lat="42.9101" lon="1.83117">
        <ele>586.54150390625</ele>
        <time>2014-04-20T09:35:57Z</time>
      </trkpt>
      <trkpt lat="42.91013" lon="1.83136">
        <ele>586.06079101562</ele>
        <time>2014-04-20T09:36:02Z</time>
      </trkpt>
      <trkpt lat="42.91018" lon="1.83155">
        <ele>585.580078125</ele>
        <time>2014-04-20T09:36:07Z</time>
      </trkpt>
      <trkpt lat="42.91027" lon="1.83172">
        <ele>584.13818359375</ele>
        <time>2014-04-20T09:36:12Z</time>
      </trkpt>
      <trkpt lat="42.91034" lon="1.83184">
        <ele>585.099609375</ele>
        <time>2014-04-20T09:36:16Z</time>
      </trkpt>
      <trkpt lat="42.91035" lon="1.83191">
        <ele>584.61889648438</ele>
        <time>2014-04-20T09:36:18Z</time>
      </trkpt>
      <trkpt lat="42.91042" lon="1.83207">
        <ele>583.1767578125</ele>
        <time>2014-04-20T09:36:23Z</time>
      </trkpt>
      <trkpt lat="42.91042" lon="1.83222">
        <ele>581.25439453125</ele>
        <time>2014-04-20T09:36:28Z</time>
      </trkpt>
      <trkpt lat="42.91043" lon="1.83237">
        <ele>579.33154296875</ele>
        <time>2014-04-20T09:36:32Z</time>
      </trkpt>
      <trkpt lat="42.9105" lon="1.8326">
        <ele>579.33154296875</ele>
        <time>2014-04-20T09:36:38Z</time>
      </trkpt>
      <trkpt lat="42.91056" lon="1.83273">
        <ele>580.29296875</ele>
        <time>2014-04-20T09:36:42Z</time>
      </trkpt>
      <trkpt lat="42.91061" lon="1.83286">
        <ele>578.85107421875</ele>
        <time>2014-04-20T09:36:46Z</time>
      </trkpt>
      <trkpt lat="42.91066" lon="1.83304">
        <ele>578.37036132812</ele>
        <time>2014-04-20T09:36:51Z</time>
      </trkpt>
      <trkpt lat="42.91068" lon="1.83312">
        <ele>577.4091796875</ele>
        <time>2014-04-20T09:36:54Z</time>
      </trkpt>
      <trkpt lat="42.91074" lon="1.83328">
        <ele>581.25439453125</ele>
        <time>2014-04-20T09:36:59Z</time>
      </trkpt>
      <trkpt lat="42.91082" lon="1.83344">
        <ele>582.6962890625</ele>
        <time>2014-04-20T09:37:04Z</time>
      </trkpt>
      <trkpt lat="42.91092" lon="1.83359">
        <ele>581.25439453125</ele>
        <time>2014-04-20T09:37:09Z</time>
      </trkpt>
      <trkpt lat="42.911" lon="1.83373">
        <ele>582.6962890625</ele>
        <time>2014-04-20T09:37:13Z</time>
      </trkpt>
      <trkpt lat="42.9111" lon="1.83391">
        <ele>582.6962890625</ele>
        <time>2014-04-20T09:37:19Z</time>
      </trkpt>
      <trkpt lat="42.91116" lon="1.83406">
        <ele>582.6962890625</ele>
        <time>2014-04-20T09:37:24Z</time>
      </trkpt>
      <trkpt lat="42.91121" lon="1.83418">
        <ele>584.61889648438</ele>
        <time>2014-04-20T09:37:28Z</time>
      </trkpt>
      <trkpt lat="42.9113" lon="1.83431">
        <ele>586.54150390625</ele>
        <time>2014-04-20T09:37:33Z</time>
      </trkpt>
      <trkpt lat="42.91135" lon="1.83447">
        <ele>587.50268554688</ele>
        <time>2014-04-20T09:37:38Z</time>
      </trkpt>
      <trkpt lat="42.91143" lon="1.83459">
        <ele>587.9833984375</ele>
        <time>2014-04-20T09:37:42Z</time>
      </trkpt>
      <trkpt lat="42.91152" lon="1.83473">
        <ele>585.099609375</ele>
        <time>2014-04-20T09:37:47Z</time>
      </trkpt>
      <trkpt lat="42.91163" lon="1.83492">
        <ele>586.54150390625</ele>
        <time>2014-04-20T09:37:53Z</time>
      </trkpt>
      <trkpt lat="42.9117" lon="1.83507">
        <ele>585.580078125</ele>
        <time>2014-04-20T09:37:58Z</time>
      </trkpt>
      <trkpt lat="42.91175" lon="1.83516">
        <ele>583.1767578125</ele>
        <time>2014-04-20T09:38:01Z</time>
      </trkpt>
      <trkpt lat="42.91182" lon="1.83532">
        <ele>580.29296875</ele>
        <time>2014-04-20T09:38:06Z</time>
      </trkpt>
      <trkpt lat="42.91189" lon="1.83548">
        <ele>579.33154296875</ele>
        <time>2014-04-20T09:38:11Z</time>
      </trkpt>
      <trkpt lat="42.91197" lon="1.83568">
        <ele>577.4091796875</ele>
        <time>2014-04-20T09:38:17Z</time>
      </trkpt>
      <trkpt lat="42.91192" lon="1.83579">
        <ele>577.8896484375</ele>
        <time>2014-04-20T09:38:22Z</time>
      </trkpt>
      <trkpt lat="42.91183" lon="1.8359">
        <ele>582.21557617188</ele>
        <time>2014-04-20T09:38:27Z</time>
      </trkpt>
      <trkpt lat="42.91177" lon="1.83595">
        <ele>584.13818359375</ele>
        <time>2014-04-20T09:38:30Z</time>
      </trkpt>
      <trkpt lat="42.91169" lon="1.83607">
        <ele>585.099609375</ele>
        <time>2014-04-20T09:38:35Z</time>
      </trkpt>
      <trkpt lat="42.9117" lon="1.83623">
        <ele>583.1767578125</ele>
        <time>2014-04-20T09:38:40Z</time>
      </trkpt>
      <trkpt lat="42.91173" lon="1.83637">
        <ele>582.6962890625</ele>
        <time>2014-04-20T09:38:45Z</time>
      </trkpt>
      <trkpt lat="42.91175" lon="1.8365">
        <ele>584.13818359375</ele>
        <time>2014-04-20T09:38:49Z</time>
      </trkpt>
      <trkpt lat="42.91176" lon="1.83664">
        <ele>585.099609375</ele>
        <time>2014-04-20T09:38:54Z</time>
      </trkpt>
      <trkpt lat="42.91182" lon="1.8368">
        <ele>586.06079101562</ele>
        <time>2014-04-20T09:39:00Z</time>
      </trkpt>
      <trkpt lat="42.91195" lon="1.837">
        <ele>585.580078125</ele>
        <time>2014-04-20T09:39:07Z</time>
      </trkpt>
      <trkpt lat="42.91204" lon="1.83714">
        <ele>587.50268554688</ele>
        <time>2014-04-20T09:39:12Z</time>
      </trkpt>
      <trkpt lat="42.91214" lon="1.83726">
        <ele>587.50268554688</ele>
        <time>2014-04-20T09:39:17Z</time>
      </trkpt>
      <trkpt lat="42.9122" lon="1.83734">
        <ele>588.46435546875</ele>
        <time>2014-04-20T09:39:20Z</time>
      </trkpt>
      <trkpt lat="42.91234" lon="1.83747">
        <ele>587.02197265625</ele>
        <time>2014-04-20T09:39:26Z</time>
      </trkpt>
      <trkpt lat="42.91241" lon="1.83759">
        <ele>584.13818359375</ele>
        <time>2014-04-20T09:39:30Z</time>
      </trkpt>
      <trkpt lat="42.91246" lon="1.8377">
        <ele>583.1767578125</ele>
        <time>2014-04-20T09:39:34Z</time>
      </trkpt>
      <trkpt lat="42.91248" lon="1.83775">
        <ele>581.25439453125</ele>
        <time>2014-04-20T09:39:36Z</time>
      </trkpt>
      <trkpt lat="42.91257" lon="1.8379">
        <ele>582.6962890625</ele>
        <time>2014-04-20T09:39:41Z</time>
      </trkpt>
      <trkpt lat="42.91264" lon="1.83801">
        <ele>582.21557617188</ele>
        <time>2014-04-20T09:39:45Z</time>
      </trkpt>
      <trkpt lat="42.91267" lon="1.83806">
        <ele>581.73486328125</ele>
        <time>2014-04-20T09:39:47Z</time>
      </trkpt>
      <trkpt lat="42.9128" lon="1.83822">
        <ele>579.33154296875</ele>
        <time>2014-04-20T09:39:53Z</time>
      </trkpt>
      <trkpt lat="42.91282" lon="1.83825">
        <ele>578.85107421875</ele>
        <time>2014-04-20T09:39:54Z</time>
      </trkpt>
      <trkpt lat="42.9129" lon="1.8383">
        <ele>577.8896484375</ele>
        <time>2014-04-20T09:39:57Z</time>
      </trkpt>
      <trkpt lat="42.91293" lon="1.83845">
        <ele>574.04443359375</ele>
        <time>2014-04-20T09:40:02Z</time>
      </trkpt>
      <trkpt lat="42.91298" lon="1.8386">
        <ele>572.12182617188</ele>
        <time>2014-04-20T09:40:07Z</time>
      </trkpt>
      <trkpt lat="42.91306" lon="1.83879">
        <ele>574.52514648438</ele>
        <time>2014-04-20T09:40:13Z</time>
      </trkpt>
      <trkpt lat="42.91312" lon="1.83893">
        <ele>580.29296875</ele>
        <time>2014-04-20T09:40:18Z</time>
      </trkpt>
      <trkpt lat="42.91318" lon="1.83905">
        <ele>581.73486328125</ele>
        <time>2014-04-20T09:40:22Z</time>
      </trkpt>
      <trkpt lat="42.91323" lon="1.83916">
        <ele>584.61889648438</ele>
        <time>2014-04-20T09:40:26Z</time>
      </trkpt>
      <trkpt lat="42.91328" lon="1.83922">
        <ele>585.580078125</ele>
        <time>2014-04-20T09:40:30Z</time>
      </trkpt>
      <trkpt lat="42.91333" lon="1.83931">
        <ele>587.50268554688</ele>
        <time>2014-04-20T09:40:36Z</time>
      </trkpt>
      <trkpt lat="42.91335" lon="1.83937">
        <ele>587.9833984375</ele>
        <time>2014-04-20T09:40:40Z</time>
      </trkpt>
      <trkpt lat="42.91336" lon="1.83942">
        <ele>586.06079101562</ele>
        <time>2014-04-20T09:40:43Z</time>
      </trkpt>
      <trkpt lat="42.91338" lon="1.83956">
        <ele>584.13818359375</ele>
        <time>2014-04-20T09:40:50Z</time>
      </trkpt>
      <trkpt lat="42.91339" lon="1.8396">
        <ele>582.21557617188</ele>
        <time>2014-04-20T09:40:53Z</time>
      </trkpt>
      <trkpt lat="42.91341" lon="1.83962">
        <ele>581.73486328125</ele>
        <time>2014-04-20T09:40:55Z</time>
      </trkpt>
      <trkpt lat="42.91343" lon="1.83967">
        <ele>580.29296875</ele>
        <time>2014-04-20T09:40:59Z</time>
      </trkpt>
      <trkpt lat="42.91343" lon="1.83972">
        <ele>578.37036132812</ele>
        <time>2014-04-20T09:41:04Z</time>
      </trkpt>
      <trkpt lat="42.91344" lon="1.83981">
        <ele>579.81225585938</ele>
        <time>2014-04-20T09:41:10Z</time>
      </trkpt>
      <trkpt lat="42.91345" lon="1.83982">
        <ele>579.33154296875</ele>
        <time>2014-04-20T09:41:11Z</time>
      </trkpt>
      <trkpt lat="42.9135" lon="1.83988">
        <ele>582.6962890625</ele>
        <time>2014-04-20T09:41:15Z</time>
      </trkpt>
      <trkpt lat="42.91357" lon="1.83997">
        <ele>586.06079101562</ele>
        <time>2014-04-20T09:41:23Z</time>
      </trkpt>
      <trkpt lat="42.9136" lon="1.83999">
        <ele>584.13818359375</ele>
        <time>2014-04-20T09:41:26Z</time>
      </trkpt>
      <trkpt lat="42.91364" lon="1.84009">
        <ele>587.9833984375</ele>
        <time>2014-04-20T09:41:32Z</time>
      </trkpt>
      <trkpt lat="42.91371" lon="1.84014">
        <ele>587.02197265625</ele>
        <time>2014-04-20T09:41:38Z</time>
      </trkpt>
      <trkpt lat="42.91373" lon="1.84015">
        <ele>587.9833984375</ele>
        <time>2014-04-20T09:41:39Z</time>
      </trkpt>
      <trkpt lat="42.91385" lon="1.84032">
        <ele>590.86743164062</ele>
        <time>2014-04-20T09:41:45Z</time>
      </trkpt>
      <trkpt lat="42.91391" lon="1.84042">
        <ele>589.42553710938</ele>
        <time>2014-04-20T09:41:49Z</time>
      </trkpt>
      <trkpt lat="42.91394" lon="1.84048">
        <ele>588.46435546875</ele>
        <time>2014-04-20T09:41:51Z</time>
      </trkpt>
      <trkpt lat="42.91407" lon="1.84067">
        <ele>587.50268554688</ele>
        <time>2014-04-20T09:41:57Z</time>
      </trkpt>
      <trkpt lat="42.91413" lon="1.84076">
        <ele>588.94506835938</ele>
        <time>2014-04-20T09:42:00Z</time>
      </trkpt>
      <trkpt lat="42.91425" lon="1.84095">
        <ele>590.86743164062</ele>
        <time>2014-04-20T09:42:06Z</time>
      </trkpt>
      <trkpt lat="42.91437" lon="1.8411">
        <ele>590.86743164062</ele>
        <time>2014-04-20T09:42:11Z</time>
      </trkpt>
      <trkpt lat="42.91444" lon="1.84118">
        <ele>589.42553710938</ele>
        <time>2014-04-20T09:42:15Z</time>
      </trkpt>
      <trkpt lat="42.91453" lon="1.84132">
        <ele>587.9833984375</ele>
        <time>2014-04-20T09:42:20Z</time>
      </trkpt>
      <trkpt lat="42.91465" lon="1.84145">
        <ele>587.02197265625</ele>
        <time>2014-04-20T09:42:25Z</time>
      </trkpt>
      <trkpt lat="42.91476" lon="1.84161">
        <ele>587.9833984375</ele>
        <time>2014-04-20T09:42:30Z</time>
      </trkpt>
      <trkpt lat="42.91489" lon="1.84169">
        <ele>589.42553710938</ele>
        <time>2014-04-20T09:42:34Z</time>
      </trkpt>
      <trkpt lat="42.915" lon="1.84179">
        <ele>590.86743164062</ele>
        <time>2014-04-20T09:42:38Z</time>
      </trkpt>
      <trkpt lat="42.91512" lon="1.8419">
        <ele>590.86743164062</ele>
        <time>2014-04-20T09:42:43Z</time>
      </trkpt>
      <trkpt lat="42.91527" lon="1.84205">
        <ele>589.90625</ele>
        <time>2014-04-20T09:42:49Z</time>
      </trkpt>
      <trkpt lat="42.91533" lon="1.84215">
        <ele>590.86743164062</ele>
        <time>2014-04-20T09:42:53Z</time>
      </trkpt>
      <trkpt lat="42.91542" lon="1.84227">
        <ele>590.86743164062</ele>
        <time>2014-04-20T09:42:58Z</time>
      </trkpt>
      <trkpt lat="42.91555" lon="1.84241">
        <ele>587.9833984375</ele>
        <time>2014-04-20T09:43:03Z</time>
      </trkpt>
      <trkpt lat="42.91563" lon="1.84251">
        <ele>587.02197265625</ele>
        <time>2014-04-20T09:43:07Z</time>
      </trkpt>
      <trkpt lat="42.91578" lon="1.84264">
        <ele>585.580078125</ele>
        <time>2014-04-20T09:43:13Z</time>
      </trkpt>
      <trkpt lat="42.91589" lon="1.84269">
        <ele>586.54150390625</ele>
        <time>2014-04-20T09:43:16Z</time>
      </trkpt>
      <trkpt lat="42.91597" lon="1.84274">
        <ele>587.9833984375</ele>
        <time>2014-04-20T09:43:19Z</time>
      </trkpt>
      <trkpt lat="42.91609" lon="1.84283">
        <ele>589.42553710938</ele>
        <time>2014-04-20T09:43:24Z</time>
      </trkpt>
      <trkpt lat="42.91621" lon="1.84294">
        <ele>589.42553710938</ele>
        <time>2014-04-20T09:43:29Z</time>
      </trkpt>
      <trkpt lat="42.91629" lon="1.84306">
        <ele>588.46435546875</ele>
        <time>2014-04-20T09:43:33Z</time>
      </trkpt>
      <trkpt lat="42.91639" lon="1.84314">
        <ele>587.02197265625</ele>
        <time>2014-04-20T09:43:37Z</time>
      </trkpt>
      <trkpt lat="42.91648" lon="1.84323">
        <ele>586.06079101562</ele>
        <time>2014-04-20T09:43:41Z</time>
      </trkpt>
      <trkpt lat="42.91662" lon="1.84332">
        <ele>585.099609375</ele>
        <time>2014-04-20T09:43:46Z</time>
      </trkpt>
      <trkpt lat="42.91673" lon="1.84339">
        <ele>585.099609375</ele>
        <time>2014-04-20T09:43:50Z</time>
      </trkpt>
      <trkpt lat="42.91684" lon="1.84345">
        <ele>584.13818359375</ele>
        <time>2014-04-20T09:43:54Z</time>
      </trkpt>
      <trkpt lat="42.91698" lon="1.84356">
        <ele>584.13818359375</ele>
        <time>2014-04-20T09:43:59Z</time>
      </trkpt>
      <trkpt lat="42.91705" lon="1.84366">
        <ele>583.1767578125</ele>
        <time>2014-04-20T09:44:03Z</time>
      </trkpt>
      <trkpt lat="42.91718" lon="1.84383">
        <ele>583.1767578125</ele>
        <time>2014-04-20T09:44:09Z</time>
      </trkpt>
      <trkpt lat="42.91727" lon="1.84396">
        <ele>582.6962890625</ele>
        <time>2014-04-20T09:44:14Z</time>
      </trkpt>
      <trkpt lat="42.91735" lon="1.84408">
        <ele>581.73486328125</ele>
        <time>2014-04-20T09:44:19Z</time>
      </trkpt>
      <trkpt lat="42.91751" lon="1.84421">
        <ele>581.73486328125</ele>
        <time>2014-04-20T09:44:26Z</time>
      </trkpt>
      <trkpt lat="42.91764" lon="1.84431">
        <ele>580.77368164062</ele>
        <time>2014-04-20T09:44:31Z</time>
      </trkpt>
      <trkpt lat="42.91777" lon="1.84441">
        <ele>579.33154296875</ele>
        <time>2014-04-20T09:44:36Z</time>
      </trkpt>
      <trkpt lat="42.91789" lon="1.84451">
        <ele>577.8896484375</ele>
        <time>2014-04-20T09:44:41Z</time>
      </trkpt>
      <trkpt lat="42.91801" lon="1.84461">
        <ele>576.92846679688</ele>
        <time>2014-04-20T09:44:46Z</time>
      </trkpt>
      <trkpt lat="42.91813" lon="1.84469">
        <ele>575.486328125</ele>
        <time>2014-04-20T09:44:51Z</time>
      </trkpt>
      <trkpt lat="42.91825" lon="1.84479">
        <ele>575.486328125</ele>
        <time>2014-04-20T09:44:56Z</time>
      </trkpt>
      <trkpt lat="42.91839" lon="1.84484">
        <ele>575.96704101562</ele>
        <time>2014-04-20T09:45:01Z</time>
      </trkpt>
      <trkpt lat="42.91854" lon="1.84484">
        <ele>575.96704101562</ele>
        <time>2014-04-20T09:45:06Z</time>
      </trkpt>
      <trkpt lat="42.91866" lon="1.84485">
        <ele>575.486328125</ele>
        <time>2014-04-20T09:45:10Z</time>
      </trkpt>
      <trkpt lat="42.91876" lon="1.84489">
        <ele>575.005859375</ele>
        <time>2014-04-20T09:45:14Z</time>
      </trkpt>
      <trkpt lat="42.91885" lon="1.84493">
        <ele>573.08325195312</ele>
        <time>2014-04-20T09:45:18Z</time>
      </trkpt>
      <trkpt lat="42.91893" lon="1.84495">
        <ele>571.64086914062</ele>
        <time>2014-04-20T09:45:22Z</time>
      </trkpt>
      <trkpt lat="42.91901" lon="1.84495">
        <ele>570.6796875</ele>
        <time>2014-04-20T09:45:25Z</time>
      </trkpt>
      <trkpt lat="42.91919" lon="1.84494">
        <ele>567.79565429688</ele>
        <time>2014-04-20T09:45:30Z</time>
      </trkpt>
      <trkpt lat="42.91932" lon="1.84495">
        <ele>565.392578125</ele>
        <time>2014-04-20T09:45:34Z</time>
      </trkpt>
      <trkpt lat="42.91947" lon="1.84497">
        <ele>562.9892578125</ele>
        <time>2014-04-20T09:45:39Z</time>
      </trkpt>
      <trkpt lat="42.91968" lon="1.845">
        <ele>561.54736328125</ele>
        <time>2014-04-20T09:45:45Z</time>
      </trkpt>
      <trkpt lat="42.9198" lon="1.84502">
        <ele>559.62475585938</ele>
        <time>2014-04-20T09:45:49Z</time>
      </trkpt>
      <trkpt lat="42.91985" lon="1.84502">
        <ele>558.18286132812</ele>
        <time>2014-04-20T09:45:51Z</time>
      </trkpt>
      <trkpt lat="42.91994" lon="1.84504">
        <ele>554.81787109375</ele>
        <time>2014-04-20T09:45:55Z</time>
      </trkpt>
      <trkpt lat="42.92012" lon="1.84504">
        <ele>552.41455078125</ele>
        <time>2014-04-20T09:46:01Z</time>
      </trkpt>
      <trkpt lat="42.92022" lon="1.84504">
        <ele>550.97265625</ele>
        <time>2014-04-20T09:46:04Z</time>
      </trkpt>
      <trkpt lat="42.92041" lon="1.84504">
        <ele>552.41455078125</ele>
        <time>2014-04-20T09:46:10Z</time>
      </trkpt>
      <trkpt lat="42.92054" lon="1.84505">
        <ele>553.3759765625</ele>
        <time>2014-04-20T09:46:15Z</time>
      </trkpt>
      <trkpt lat="42.92071" lon="1.84509">
        <ele>555.779296875</ele>
        <time>2014-04-20T09:46:21Z</time>
      </trkpt>
      <trkpt lat="42.92086" lon="1.84512">
        <ele>556.26000976562</ele>
        <time>2014-04-20T09:46:26Z</time>
      </trkpt>
      <trkpt lat="42.92096" lon="1.8452">
        <ele>555.779296875</ele>
        <time>2014-04-20T09:46:30Z</time>
      </trkpt>
      <trkpt lat="42.92104" lon="1.8453">
        <ele>554.81787109375</ele>
        <time>2014-04-20T09:46:34Z</time>
      </trkpt>
      <trkpt lat="42.92106" lon="1.84531">
        <ele>554.81787109375</ele>
        <time>2014-04-20T09:46:35Z</time>
      </trkpt>
      <trkpt lat="42.92116" lon="1.84532">
        <ele>553.85668945312</ele>
        <time>2014-04-20T09:46:39Z</time>
      </trkpt>
      <trkpt lat="42.92124" lon="1.84514">
        <ele>553.3759765625</ele>
        <time>2014-04-20T09:46:45Z</time>
      </trkpt>
      <trkpt lat="42.92128" lon="1.84489">
        <ele>554.33740234375</ele>
        <time>2014-04-20T09:46:51Z</time>
      </trkpt>
      <trkpt lat="42.92132" lon="1.84469">
        <ele>555.779296875</ele>
        <time>2014-04-20T09:46:56Z</time>
      </trkpt>
      <trkpt lat="42.92135" lon="1.84454">
        <ele>556.74072265625</ele>
        <time>2014-04-20T09:47:00Z</time>
      </trkpt>
      <trkpt lat="42.92139" lon="1.84427">
        <ele>558.18286132812</ele>
        <time>2014-04-20T09:47:07Z</time>
      </trkpt>
      <trkpt lat="42.92144" lon="1.84411">
        <ele>557.7021484375</ele>
        <time>2014-04-20T09:47:12Z</time>
      </trkpt>
      <trkpt lat="42.92156" lon="1.84391">
        <ele>557.7021484375</ele>
        <time>2014-04-20T09:47:19Z</time>
      </trkpt>
      <trkpt lat="42.92166" lon="1.84379">
        <ele>557.22143554688</ele>
        <time>2014-04-20T09:47:24Z</time>
      </trkpt>
      <trkpt lat="42.9218" lon="1.84361">
        <ele>556.74072265625</ele>
        <time>2014-04-20T09:47:31Z</time>
      </trkpt>
      <trkpt lat="42.92191" lon="1.84345">
        <ele>556.26000976562</ele>
        <time>2014-04-20T09:47:37Z</time>
      </trkpt>
      <trkpt lat="42.922" lon="1.84318">
        <ele>554.81787109375</ele>
        <time>2014-04-20T09:47:45Z</time>
      </trkpt>
      <trkpt lat="42.92205" lon="1.84302">
        <ele>554.33740234375</ele>
        <time>2014-04-20T09:47:50Z</time>
      </trkpt>
      <trkpt lat="42.92212" lon="1.84279">
        <ele>554.81787109375</ele>
        <time>2014-04-20T09:47:57Z</time>
      </trkpt>
      <trkpt lat="42.92216" lon="1.84261">
        <ele>554.81787109375</ele>
        <time>2014-04-20T09:48:02Z</time>
      </trkpt>
      <trkpt lat="42.92217" lon="1.84244">
        <ele>555.29858398438</ele>
        <time>2014-04-20T09:48:06Z</time>
      </trkpt>
      <trkpt lat="42.9222" lon="1.84222">
        <ele>554.33740234375</ele>
        <time>2014-04-20T09:48:12Z</time>
      </trkpt>
      <trkpt lat="42.92225" lon="1.84207">
        <ele>553.3759765625</ele>
        <time>2014-04-20T09:48:17Z</time>
      </trkpt>
      <trkpt lat="42.92226" lon="1.84205">
        <ele>552.89526367188</ele>
        <time>2014-04-20T09:48:18Z</time>
      </trkpt>
      <trkpt lat="42.92233" lon="1.84191">
        <ele>552.41455078125</ele>
        <time>2014-04-20T09:48:23Z</time>
      </trkpt>
      <trkpt lat="42.92242" lon="1.84173">
        <ele>550.4921875</ele>
        <time>2014-04-20T09:48:29Z</time>
      </trkpt>
      <trkpt lat="42.9225" lon="1.84157">
        <ele>548.5693359375</ele>
        <time>2014-04-20T09:48:35Z</time>
      </trkpt>
      <trkpt lat="42.92256" lon="1.84146">
        <ele>547.60815429688</ele>
        <time>2014-04-20T09:48:39Z</time>
      </trkpt>
      <trkpt lat="42.92266" lon="1.84143">
        <ele>548.5693359375</ele>
        <time>2014-04-20T09:48:44Z</time>
      </trkpt>
      <trkpt lat="42.92278" lon="1.84146">
        <ele>547.12744140625</ele>
        <time>2014-04-20T09:48:48Z</time>
      </trkpt>
      <trkpt lat="42.92288" lon="1.84157">
        <ele>546.16625976562</ele>
        <time>2014-04-20T09:48:53Z</time>
      </trkpt>
      <trkpt lat="42.92298" lon="1.84164">
        <ele>546.64685058594</ele>
        <time>2014-04-20T09:48:57Z</time>
      </trkpt>
      <trkpt lat="42.92308" lon="1.84171">
        <ele>545.685546875</ele>
        <time>2014-04-20T09:49:01Z</time>
      </trkpt>
      <trkpt lat="42.9231" lon="1.84174">
        <ele>545.685546875</ele>
        <time>2014-04-20T09:49:02Z</time>
      </trkpt>
      <trkpt lat="42.92318" lon="1.84171">
        <ele>545.685546875</ele>
        <time>2014-04-20T09:49:06Z</time>
      </trkpt>
      <trkpt lat="42.92327" lon="1.84162">
        <ele>545.685546875</ele>
        <time>2014-04-20T09:49:10Z</time>
      </trkpt>
      <trkpt lat="42.92332" lon="1.84155">
        <ele>546.64685058594</ele>
        <time>2014-04-20T09:49:13Z</time>
      </trkpt>
      <trkpt lat="42.92336" lon="1.84146">
        <ele>548.0888671875</ele>
        <time>2014-04-20T09:49:16Z</time>
      </trkpt>
      <trkpt lat="42.92343" lon="1.84123">
        <ele>550.01147460938</ele>
        <time>2014-04-20T09:49:22Z</time>
      </trkpt>
      <trkpt lat="42.92348" lon="1.84107">
        <ele>551.45336914062</ele>
        <time>2014-04-20T09:49:27Z</time>
      </trkpt>
      <trkpt lat="42.92352" lon="1.84094">
        <ele>550.01147460938</ele>
        <time>2014-04-20T09:49:31Z</time>
      </trkpt>
      <trkpt lat="42.92356" lon="1.84079">
        <ele>549.53076171875</ele>
        <time>2014-04-20T09:49:36Z</time>
      </trkpt>
      <trkpt lat="42.92358" lon="1.84076">
        <ele>549.53076171875</ele>
        <time>2014-04-20T09:49:37Z</time>
      </trkpt>
      <trkpt lat="42.92365" lon="1.84057">
        <ele>549.53076171875</ele>
        <time>2014-04-20T09:49:43Z</time>
      </trkpt>
      <trkpt lat="42.9237" lon="1.84045">
        <ele>550.01147460938</ele>
        <time>2014-04-20T09:49:47Z</time>
      </trkpt>
      <trkpt lat="42.92376" lon="1.84026">
        <ele>550.01147460938</ele>
        <time>2014-04-20T09:49:53Z</time>
      </trkpt>
      <trkpt lat="42.92382" lon="1.84008">
        <ele>553.3759765625</ele>
        <time>2014-04-20T09:49:59Z</time>
      </trkpt>
      <trkpt lat="42.92385" lon="1.83999">
        <ele>553.85668945312</ele>
        <time>2014-04-20T09:50:04Z</time>
      </trkpt>
      <trkpt lat="42.92386" lon="1.83997">
        <ele>553.85668945312</ele>
        <time>2014-04-20T09:50:05Z</time>
      </trkpt>
      <trkpt lat="42.92389" lon="1.83987">
        <ele>554.81787109375</ele>
        <time>2014-04-20T09:50:11Z</time>
      </trkpt>
      <trkpt lat="42.9239" lon="1.83975">
        <ele>557.7021484375</ele>
        <time>2014-04-20T09:50:18Z</time>
      </trkpt>
      <trkpt lat="42.92394" lon="1.83964">
        <ele>558.66333007812</ele>
        <time>2014-04-20T09:50:25Z</time>
      </trkpt>
      <trkpt lat="42.92399" lon="1.8395">
        <ele>560.10522460938</ele>
        <time>2014-04-20T09:50:32Z</time>
      </trkpt>
      <trkpt lat="42.92405" lon="1.83934">
        <ele>560.10522460938</ele>
        <time>2014-04-20T09:50:37Z</time>
      </trkpt>
      <trkpt lat="42.92413" lon="1.83922">
        <ele>560.5859375</ele>
        <time>2014-04-20T09:50:41Z</time>
      </trkpt>
      <trkpt lat="42.92421" lon="1.83906">
        <ele>560.5859375</ele>
        <time>2014-04-20T09:50:46Z</time>
      </trkpt>
      <trkpt lat="42.92428" lon="1.83886">
        <ele>559.62475585938</ele>
        <time>2014-04-20T09:50:52Z</time>
      </trkpt>
      <trkpt lat="42.92433" lon="1.83855">
        <ele>560.10522460938</ele>
        <time>2014-04-20T09:51:00Z</time>
      </trkpt>
      <trkpt lat="42.92435" lon="1.83832">
        <ele>561.06665039062</ele>
        <time>2014-04-20T09:51:06Z</time>
      </trkpt>
      <trkpt lat="42.92437" lon="1.83811">
        <ele>562.02807617188</ele>
        <time>2014-04-20T09:51:11Z</time>
      </trkpt>
      <trkpt lat="42.92439" lon="1.83789">
        <ele>562.02807617188</ele>
        <time>2014-04-20T09:51:17Z</time>
      </trkpt>
      <trkpt lat="42.9244" lon="1.83773">
        <ele>562.50854492188</ele>
        <time>2014-04-20T09:51:21Z</time>
      </trkpt>
      <trkpt lat="42.92447" lon="1.83751">
        <ele>562.50854492188</ele>
        <time>2014-04-20T09:51:27Z</time>
      </trkpt>
      <trkpt lat="42.92453" lon="1.83736">
        <ele>562.9892578125</ele>
        <time>2014-04-20T09:51:31Z</time>
      </trkpt>
      <trkpt lat="42.92455" lon="1.83717">
        <ele>564.91186523438</ele>
        <time>2014-04-20T09:51:36Z</time>
      </trkpt>
      <trkpt lat="42.92453" lon="1.83698">
        <ele>564.91186523438</ele>
        <time>2014-04-20T09:51:41Z</time>
      </trkpt>
      <trkpt lat="42.9245" lon="1.8368">
        <ele>565.392578125</ele>
        <time>2014-04-20T09:51:46Z</time>
      </trkpt>
      <trkpt lat="42.92456" lon="1.83663">
        <ele>564.43115234375</ele>
        <time>2014-04-20T09:51:51Z</time>
      </trkpt>
      <trkpt lat="42.92461" lon="1.8365">
        <ele>562.50854492188</ele>
        <time>2014-04-20T09:51:55Z</time>
      </trkpt>
      <trkpt lat="42.92463" lon="1.8364">
        <ele>562.02807617188</ele>
        <time>2014-04-20T09:51:58Z</time>
      </trkpt>
      <trkpt lat="42.92473" lon="1.83639">
        <ele>562.50854492188</ele>
        <time>2014-04-20T09:52:02Z</time>
      </trkpt>
      <trkpt lat="42.92487" lon="1.83645">
        <ele>563.95043945312</ele>
        <time>2014-04-20T09:52:07Z</time>
      </trkpt>
      <trkpt lat="42.92495" lon="1.83649">
        <ele>565.392578125</ele>
        <time>2014-04-20T09:52:11Z</time>
      </trkpt>
      <trkpt lat="42.92506" lon="1.83656">
        <ele>565.87329101562</ele>
        <time>2014-04-20T09:52:15Z</time>
      </trkpt>
      <trkpt lat="42.92518" lon="1.83665">
        <ele>564.43115234375</ele>
        <time>2014-04-20T09:52:20Z</time>
      </trkpt>
      <trkpt lat="42.92532" lon="1.83672">
        <ele>563.95043945312</ele>
        <time>2014-04-20T09:52:26Z</time>
      </trkpt>
      <trkpt lat="42.92543" lon="1.83676">
        <ele>562.9892578125</ele>
        <time>2014-04-20T09:52:30Z</time>
      </trkpt>
      <trkpt lat="42.92551" lon="1.83678">
        <ele>562.50854492188</ele>
        <time>2014-04-20T09:52:33Z</time>
      </trkpt>
      <trkpt lat="42.92568" lon="1.8368">
        <ele>561.54736328125</ele>
        <time>2014-04-20T09:52:39Z</time>
      </trkpt>
      <trkpt lat="42.92585" lon="1.83682">
        <ele>564.91186523438</ele>
        <time>2014-04-20T09:52:45Z</time>
      </trkpt>
      <trkpt lat="42.92599" lon="1.83684">
        <ele>565.392578125</ele>
        <time>2014-04-20T09:52:50Z</time>
      </trkpt>
      <trkpt lat="42.92614" lon="1.83679">
        <ele>565.392578125</ele>
        <time>2014-04-20T09:52:55Z</time>
      </trkpt>
      <trkpt lat="42.92625" lon="1.83667">
        <ele>564.43115234375</ele>
        <time>2014-04-20T09:53:00Z</time>
      </trkpt>
      <trkpt lat="42.92635" lon="1.83656">
        <ele>562.9892578125</ele>
        <time>2014-04-20T09:53:04Z</time>
      </trkpt>
      <trkpt lat="42.92645" lon="1.83639">
        <ele>561.06665039062</ele>
        <time>2014-04-20T09:53:09Z</time>
      </trkpt>
      <trkpt lat="42.92656" lon="1.83624">
        <ele>559.14404296875</ele>
        <time>2014-04-20T09:53:14Z</time>
      </trkpt>
      <trkpt lat="42.92671" lon="1.83615">
        <ele>556.74072265625</ele>
        <time>2014-04-20T09:53:19Z</time>
      </trkpt>
      <trkpt lat="42.92686" lon="1.83612">
        <ele>552.89526367188</ele>
        <time>2014-04-20T09:53:24Z</time>
      </trkpt>
      <trkpt lat="42.92697" lon="1.83609">
        <ele>550.4921875</ele>
        <time>2014-04-20T09:53:28Z</time>
      </trkpt>
      <trkpt lat="42.9271" lon="1.83604">
        <ele>548.5693359375</ele>
        <time>2014-04-20T09:53:33Z</time>
      </trkpt>
      <trkpt lat="42.92713" lon="1.83602">
        <ele>548.0888671875</ele>
        <time>2014-04-20T09:53:34Z</time>
      </trkpt>
      <trkpt lat="42.92722" lon="1.83597">
        <ele>548.0888671875</ele>
        <time>2014-04-20T09:53:38Z</time>
      </trkpt>
      <trkpt lat="42.9273" lon="1.83589">
        <ele>549.53076171875</ele>
        <time>2014-04-20T09:53:42Z</time>
      </trkpt>
      <trkpt lat="42.92739" lon="1.83576">
        <ele>551.93408203125</ele>
        <time>2014-04-20T09:53:48Z</time>
      </trkpt>
      <trkpt lat="42.92745" lon="1.83561">
        <ele>552.41455078125</ele>
        <time>2014-04-20T09:53:53Z</time>
      </trkpt>
      <trkpt lat="42.92749" lon="1.83551">
        <ele>553.3759765625</ele>
        <time>2014-04-20T09:53:57Z</time>
      </trkpt>
      <trkpt lat="42.92755" lon="1.83544">
        <ele>554.33740234375</ele>
        <time>2014-04-20T09:54:00Z</time>
      </trkpt>
      <trkpt lat="42.92764" lon="1.83536">
        <ele>555.29858398438</ele>
        <time>2014-04-20T09:54:04Z</time>
      </trkpt>
      <trkpt lat="42.92766" lon="1.83534">
        <ele>555.29858398438</ele>
        <time>2014-04-20T09:54:05Z</time>
      </trkpt>
      <trkpt lat="42.92778" lon="1.83523">
        <ele>556.26000976562</ele>
        <time>2014-04-20T09:54:10Z</time>
      </trkpt>
      <trkpt lat="42.92785" lon="1.83519">
        <ele>557.7021484375</ele>
        <time>2014-04-20T09:54:13Z</time>
      </trkpt>
      <trkpt lat="42.92788" lon="1.83519">
        <ele>557.7021484375</ele>
        <time>2014-04-20T09:54:14Z</time>
      </trkpt>
      <trkpt lat="42.92801" lon="1.8351">
        <ele>557.7021484375</ele>
        <time>2014-04-20T09:54:19Z</time>
      </trkpt>
      <trkpt lat="42.92804" lon="1.83508">
        <ele>557.7021484375</ele>
        <time>2014-04-20T09:54:20Z</time>
      </trkpt>
      <trkpt lat="42.92819" lon="1.83496">
        <ele>557.7021484375</ele>
        <time>2014-04-20T09:54:26Z</time>
      </trkpt>
      <trkpt lat="42.92829" lon="1.83489">
        <ele>558.66333007812</ele>
        <time>2014-04-20T09:54:30Z</time>
      </trkpt>
      <trkpt lat="42.92839" lon="1.83483">
        <ele>559.14404296875</ele>
        <time>2014-04-20T09:54:34Z</time>
      </trkpt>
      <trkpt lat="42.92852" lon="1.83476">
        <ele>560.10522460938</ele>
        <time>2014-04-20T09:54:39Z</time>
      </trkpt>
      <trkpt lat="42.92864" lon="1.83469">
        <ele>560.5859375</ele>
        <time>2014-04-20T09:54:43Z</time>
      </trkpt>
      <trkpt lat="42.92877" lon="1.8346">
        <ele>560.10522460938</ele>
        <time>2014-04-20T09:54:48Z</time>
      </trkpt>
      <trkpt lat="42.92883" lon="1.83457">
        <ele>560.10522460938</ele>
        <time>2014-04-20T09:54:50Z</time>
      </trkpt>
      <trkpt lat="42.92898" lon="1.83447">
        <ele>559.62475585938</ele>
        <time>2014-04-20T09:54:56Z</time>
      </trkpt>
      <trkpt lat="42.92907" lon="1.83441">
        <ele>560.10522460938</ele>
        <time>2014-04-20T09:55:00Z</time>
      </trkpt>
      <trkpt lat="42.92921" lon="1.83433">
        <ele>558.66333007812</ele>
        <time>2014-04-20T09:55:05Z</time>
      </trkpt>
      <trkpt lat="42.92934" lon="1.83426">
        <ele>556.26000976562</ele>
        <time>2014-04-20T09:55:10Z</time>
      </trkpt>
      <trkpt lat="42.92944" lon="1.8342">
        <ele>555.779296875</ele>
        <time>2014-04-20T09:55:14Z</time>
      </trkpt>
      <trkpt lat="42.92954" lon="1.83412">
        <ele>554.81787109375</ele>
        <time>2014-04-20T09:55:18Z</time>
      </trkpt>
      <trkpt lat="42.92965" lon="1.83405">
        <ele>553.3759765625</ele>
        <time>2014-04-20T09:55:22Z</time>
      </trkpt>
      <trkpt lat="42.92986" lon="1.83388">
        <ele>550.4921875</ele>
        <time>2014-04-20T09:55:30Z</time>
      </trkpt>
      <trkpt lat="42.92998" lon="1.83384">
        <ele>549.53076171875</ele>
        <time>2014-04-20T09:55:34Z</time>
      </trkpt>
      <trkpt lat="42.93013" lon="1.8338">
        <ele>550.01147460938</ele>
        <time>2014-04-20T09:55:39Z</time>
      </trkpt>
      <trkpt lat="42.93027" lon="1.83379">
        <ele>550.4921875</ele>
        <time>2014-04-20T09:55:44Z</time>
      </trkpt>
      <trkpt lat="42.93048" lon="1.83373">
        <ele>553.3759765625</ele>
        <time>2014-04-20T09:55:51Z</time>
      </trkpt>
      <trkpt lat="42.93062" lon="1.83369">
        <ele>554.33740234375</ele>
        <time>2014-04-20T09:55:56Z</time>
      </trkpt>
      <trkpt lat="42.93078" lon="1.83372">
        <ele>552.41455078125</ele>
        <time>2014-04-20T09:56:02Z</time>
      </trkpt>
      <trkpt lat="42.93089" lon="1.83367">
        <ele>552.41455078125</ele>
        <time>2014-04-20T09:56:06Z</time>
      </trkpt>
      <trkpt lat="42.93095" lon="1.8336">
        <ele>553.3759765625</ele>
        <time>2014-04-20T09:56:09Z</time>
      </trkpt>
      <trkpt lat="42.93106" lon="1.83348">
        <ele>553.85668945312</ele>
        <time>2014-04-20T09:56:14Z</time>
      </trkpt>
      <trkpt lat="42.93116" lon="1.83342">
        <ele>554.33740234375</ele>
        <time>2014-04-20T09:56:18Z</time>
      </trkpt>
      <trkpt lat="42.93123" lon="1.83345">
        <ele>552.89526367188</ele>
        <time>2014-04-20T09:56:21Z</time>
      </trkpt>
      <trkpt lat="42.93128" lon="1.83349">
        <ele>549.53076171875</ele>
        <time>2014-04-20T09:56:26Z</time>
      </trkpt>
      <trkpt lat="42.93138" lon="1.83356">
        <ele>546.16625976562</ele>
        <time>2014-04-20T09:56:31Z</time>
      </trkpt>
      <trkpt lat="42.93143" lon="1.8336">
        <ele>544.24365234375</ele>
        <time>2014-04-20T09:56:34Z</time>
      </trkpt>
      <trkpt lat="42.93147" lon="1.83364">
        <ele>544.24365234375</ele>
        <time>2014-04-20T09:56:39Z</time>
      </trkpt>
      <trkpt lat="42.93154" lon="1.83369">
        <ele>545.685546875</ele>
        <time>2014-04-20T09:56:45Z</time>
      </trkpt>
      <trkpt lat="42.93161" lon="1.83373">
        <ele>547.60815429688</ele>
        <time>2014-04-20T09:56:52Z</time>
      </trkpt>
      <trkpt lat="42.93173" lon="1.83378">
        <ele>546.64685058594</ele>
        <time>2014-04-20T09:56:56Z</time>
      </trkpt>
      <trkpt lat="42.93189" lon="1.8339">
        <ele>546.16625976562</ele>
        <time>2014-04-20T09:57:02Z</time>
      </trkpt>
      <trkpt lat="42.93203" lon="1.83399">
        <ele>546.64685058594</ele>
        <time>2014-04-20T09:57:07Z</time>
      </trkpt>
      <trkpt lat="42.93214" lon="1.83406">
        <ele>547.12744140625</ele>
        <time>2014-04-20T09:57:12Z</time>
      </trkpt>
      <trkpt lat="42.93229" lon="1.83414">
        <ele>546.64685058594</ele>
        <time>2014-04-20T09:57:18Z</time>
      </trkpt>
      <trkpt lat="42.93239" lon="1.83422">
        <ele>546.64685058594</ele>
        <time>2014-04-20T09:57:22Z</time>
      </trkpt>
      <trkpt lat="42.93241" lon="1.83424">
        <ele>546.16625976562</ele>
        <time>2014-04-20T09:57:23Z</time>
      </trkpt>
      <trkpt lat="42.93243" lon="1.8343">
        <ele>545.20483398438</ele>
        <time>2014-04-20T09:57:28Z</time>
      </trkpt>
      <trkpt lat="42.93246" lon="1.8343">
        <ele>546.16625976562</ele>
        <time>2014-04-20T09:57:33Z</time>
      </trkpt>
      <trkpt lat="42.9325" lon="1.83431">
        <ele>546.16625976562</ele>
        <time>2014-04-20T09:57:38Z</time>
      </trkpt>
      <trkpt lat="42.93255" lon="1.83435">
        <ele>547.60815429688</ele>
        <time>2014-04-20T09:57:43Z</time>
      </trkpt>
      <trkpt lat="42.93265" lon="1.83441">
        <ele>548.0888671875</ele>
        <time>2014-04-20T09:57:51Z</time>
      </trkpt>
      <trkpt lat="42.9327" lon="1.83444">
        <ele>548.0888671875</ele>
        <time>2014-04-20T09:57:55Z</time>
      </trkpt>
      <trkpt lat="42.93279" lon="1.83447">
        <ele>549.53076171875</ele>
        <time>2014-04-20T09:58:02Z</time>
      </trkpt>
      <trkpt lat="42.9328" lon="1.83448">
        <ele>549.53076171875</ele>
        <time>2014-04-20T09:58:03Z</time>
      </trkpt>
      <trkpt lat="42.93285" lon="1.8345">
        <ele>549.53076171875</ele>
        <time>2014-04-20T09:58:08Z</time>
      </trkpt>
      <trkpt lat="42.93295" lon="1.83453">
        <ele>550.97265625</ele>
        <time>2014-04-20T09:58:16Z</time>
      </trkpt>
      <trkpt lat="42.93306" lon="1.83455">
        <ele>553.3759765625</ele>
        <time>2014-04-20T09:58:24Z</time>
      </trkpt>
      <trkpt lat="42.93314" lon="1.83458">
        <ele>553.85668945312</ele>
        <time>2014-04-20T09:58:31Z</time>
      </trkpt>
      <trkpt lat="42.93324" lon="1.83461">
        <ele>554.81787109375</ele>
        <time>2014-04-20T09:58:39Z</time>
      </trkpt>
      <trkpt lat="42.93332" lon="1.83464">
        <ele>554.33740234375</ele>
        <time>2014-04-20T09:58:43Z</time>
      </trkpt>
      <trkpt lat="42.93348" lon="1.83474">
        <ele>550.4921875</ele>
        <time>2014-04-20T09:58:49Z</time>
      </trkpt>
      <trkpt lat="42.93367" lon="1.83486">
        <ele>545.685546875</ele>
        <time>2014-04-20T09:58:55Z</time>
      </trkpt>
      <trkpt lat="42.93382" lon="1.83504">
        <ele>543.76281738281</ele>
        <time>2014-04-20T09:59:01Z</time>
      </trkpt>
      <trkpt lat="42.93391" lon="1.83519">
        <ele>541.84020996094</ele>
        <time>2014-04-20T09:59:06Z</time>
      </trkpt>
      <trkpt lat="42.93401" lon="1.83532">
        <ele>541.35949707031</ele>
        <time>2014-04-20T09:59:11Z</time>
      </trkpt>
      <trkpt lat="42.93412" lon="1.83546">
        <ele>541.84020996094</ele>
        <time>2014-04-20T09:59:17Z</time>
      </trkpt>
      <trkpt lat="42.93422" lon="1.83554">
        <ele>542.32092285156</ele>
        <time>2014-04-20T09:59:21Z</time>
      </trkpt>
      <trkpt lat="42.93436" lon="1.83558">
        <ele>541.84020996094</ele>
        <time>2014-04-20T09:59:27Z</time>
      </trkpt>
      <trkpt lat="42.93445" lon="1.83559">
        <ele>541.84020996094</ele>
        <time>2014-04-20T09:59:30Z</time>
      </trkpt>
      <trkpt lat="42.93459" lon="1.83563">
        <ele>542.32092285156</ele>
        <time>2014-04-20T09:59:35Z</time>
      </trkpt>
      <trkpt lat="42.93468" lon="1.8357">
        <ele>543.28210449219</ele>
        <time>2014-04-20T09:59:40Z</time>
      </trkpt>
      <trkpt lat="42.9347" lon="1.83572">
        <ele>543.28210449219</ele>
        <time>2014-04-20T09:59:42Z</time>
      </trkpt>
      <trkpt lat="42.93473" lon="1.83574">
        <ele>543.76281738281</ele>
        <time>2014-04-20T09:59:44Z</time>
      </trkpt>
      <trkpt lat="42.93474" lon="1.83585">
        <ele>543.28210449219</ele>
        <time>2014-04-20T09:59:51Z</time>
      </trkpt>
      <trkpt lat="42.9347" lon="1.83599">
        <ele>544.72424316406</ele>
        <time>2014-04-20T09:59:59Z</time>
      </trkpt>
      <trkpt lat="42.93467" lon="1.83616">
        <ele>544.72424316406</ele>
        <time>2014-04-20T10:00:06Z</time>
      </trkpt>
      <trkpt lat="42.9346" lon="1.8363">
        <ele>544.72424316406</ele>
        <time>2014-04-20T10:00:10Z</time>
      </trkpt>
      <trkpt lat="42.93453" lon="1.83642">
        <ele>544.24365234375</ele>
        <time>2014-04-20T10:00:14Z</time>
      </trkpt>
      <trkpt lat="42.93446" lon="1.83655">
        <ele>544.72424316406</ele>
        <time>2014-04-20T10:00:18Z</time>
      </trkpt>
      <trkpt lat="42.93436" lon="1.83676">
        <ele>547.60815429688</ele>
        <time>2014-04-20T10:00:24Z</time>
      </trkpt>
      <trkpt lat="42.93431" lon="1.83686">
        <ele>547.60815429688</ele>
        <time>2014-04-20T10:00:27Z</time>
      </trkpt>
      <trkpt lat="42.93423" lon="1.83704">
        <ele>548.0888671875</ele>
        <time>2014-04-20T10:00:32Z</time>
      </trkpt>
      <trkpt lat="42.93419" lon="1.83719">
        <ele>549.05004882812</ele>
        <time>2014-04-20T10:00:36Z</time>
      </trkpt>
      <trkpt lat="42.93419" lon="1.83724">
        <ele>549.05004882812</ele>
        <time>2014-04-20T10:00:37Z</time>
      </trkpt>
      <trkpt lat="42.93411" lon="1.83743">
        <ele>549.05004882812</ele>
        <time>2014-04-20T10:00:43Z</time>
      </trkpt>
      <trkpt lat="42.93406" lon="1.83757">
        <ele>550.01147460938</ele>
        <time>2014-04-20T10:00:47Z</time>
      </trkpt>
      <trkpt lat="42.93401" lon="1.83771">
        <ele>550.97265625</ele>
        <time>2014-04-20T10:00:51Z</time>
      </trkpt>
      <trkpt lat="42.93396" lon="1.83785">
        <ele>550.97265625</ele>
        <time>2014-04-20T10:00:55Z</time>
      </trkpt>
      <trkpt lat="42.93391" lon="1.83799">
        <ele>550.97265625</ele>
        <time>2014-04-20T10:00:59Z</time>
      </trkpt>
      <trkpt lat="42.93385" lon="1.83815">
        <ele>550.97265625</ele>
        <time>2014-04-20T10:01:04Z</time>
      </trkpt>
      <trkpt lat="42.93377" lon="1.83837">
        <ele>551.93408203125</ele>
        <time>2014-04-20T10:01:10Z</time>
      </trkpt>
      <trkpt lat="42.9337" lon="1.83856">
        <ele>552.89526367188</ele>
        <time>2014-04-20T10:01:15Z</time>
      </trkpt>
      <trkpt lat="42.9337" lon="1.83863">
        <ele>552.89526367188</ele>
        <time>2014-04-20T10:01:17Z</time>
      </trkpt>
      <trkpt lat="42.9338" lon="1.83872">
        <ele>552.41455078125</ele>
        <time>2014-04-20T10:01:22Z</time>
      </trkpt>
      <trkpt lat="42.93394" lon="1.83875">
        <ele>551.93408203125</ele>
        <time>2014-04-20T10:01:27Z</time>
      </trkpt>
      <trkpt lat="42.934" lon="1.83878">
        <ele>551.93408203125</ele>
        <time>2014-04-20T10:01:30Z</time>
      </trkpt>
      <trkpt lat="42.93414" lon="1.83885">
        <ele>550.4921875</ele>
        <time>2014-04-20T10:01:36Z</time>
      </trkpt>
      <trkpt lat="42.93428" lon="1.83891">
        <ele>550.4921875</ele>
        <time>2014-04-20T10:01:42Z</time>
      </trkpt>
      <trkpt lat="42.93438" lon="1.83896">
        <ele>550.01147460938</ele>
        <time>2014-04-20T10:01:46Z</time>
      </trkpt>
      <trkpt lat="42.93447" lon="1.83901">
        <ele>550.97265625</ele>
        <time>2014-04-20T10:01:52Z</time>
      </trkpt>
      <trkpt lat="42.93451" lon="1.8391">
        <ele>552.41455078125</ele>
        <time>2014-04-20T10:01:58Z</time>
      </trkpt>
      <trkpt lat="42.93452" lon="1.83919">
        <ele>552.89526367188</ele>
        <time>2014-04-20T10:02:03Z</time>
      </trkpt>
      <trkpt lat="42.93452" lon="1.8393">
        <ele>552.89526367188</ele>
        <time>2014-04-20T10:02:10Z</time>
      </trkpt>
      <trkpt lat="42.93453" lon="1.83947">
        <ele>552.41455078125</ele>
        <time>2014-04-20T10:02:20Z</time>
      </trkpt>
      <trkpt lat="42.93454" lon="1.83958">
        <ele>551.93408203125</ele>
        <time>2014-04-20T10:02:27Z</time>
      </trkpt>
      <trkpt lat="42.93455" lon="1.83972">
        <ele>551.93408203125</ele>
        <time>2014-04-20T10:02:37Z</time>
      </trkpt>
      <trkpt lat="42.93457" lon="1.83989">
        <ele>555.779296875</ele>
        <time>2014-04-20T10:02:45Z</time>
      </trkpt>
      <trkpt lat="42.93459" lon="1.84002">
        <ele>558.18286132812</ele>
        <time>2014-04-20T10:02:53Z</time>
      </trkpt>
      <trkpt lat="42.93459" lon="1.84017">
        <ele>560.10522460938</ele>
        <time>2014-04-20T10:03:01Z</time>
      </trkpt>
      <trkpt lat="42.93457" lon="1.84029">
        <ele>562.02807617188</ele>
        <time>2014-04-20T10:03:07Z</time>
      </trkpt>
      <trkpt lat="42.93456" lon="1.84043">
        <ele>564.91186523438</ele>
        <time>2014-04-20T10:03:14Z</time>
      </trkpt>
      <trkpt lat="42.93456" lon="1.84047">
        <ele>565.392578125</ele>
        <time>2014-04-20T10:03:16Z</time>
      </trkpt>
      <trkpt lat="42.93455" lon="1.84062">
        <ele>564.91186523438</ele>
        <time>2014-04-20T10:03:21Z</time>
      </trkpt>
      <trkpt lat="42.93451" lon="1.84078">
        <ele>564.91186523438</ele>
        <time>2014-04-20T10:03:25Z</time>
      </trkpt>
      <trkpt lat="42.9345" lon="1.84082">
        <ele>564.91186523438</ele>
        <time>2014-04-20T10:03:26Z</time>
      </trkpt>
      <trkpt lat="42.93442" lon="1.84105">
        <ele>565.392578125</ele>
        <time>2014-04-20T10:03:31Z</time>
      </trkpt>
      <trkpt lat="42.93439" lon="1.84118">
        <ele>563.95043945312</ele>
        <time>2014-04-20T10:03:35Z</time>
      </trkpt>
      <trkpt lat="42.93434" lon="1.84137">
        <ele>562.9892578125</ele>
        <time>2014-04-20T10:03:40Z</time>
      </trkpt>
      <trkpt lat="42.93429" lon="1.84154">
        <ele>562.02807617188</ele>
        <time>2014-04-20T10:03:44Z</time>
      </trkpt>
      <trkpt lat="42.93423" lon="1.84171">
        <ele>560.5859375</ele>
        <time>2014-04-20T10:03:49Z</time>
      </trkpt>
      <trkpt lat="42.93416" lon="1.84189">
        <ele>560.10522460938</ele>
        <time>2014-04-20T10:03:54Z</time>
      </trkpt>
      <trkpt lat="42.93409" lon="1.84208">
        <ele>558.66333007812</ele>
        <time>2014-04-20T10:03:59Z</time>
      </trkpt>
      <trkpt lat="42.93406" lon="1.84216">
        <ele>558.18286132812</ele>
        <time>2014-04-20T10:04:01Z</time>
      </trkpt>
      <trkpt lat="42.93402" lon="1.84235">
        <ele>557.22143554688</ele>
        <time>2014-04-20T10:04:06Z</time>
      </trkpt>
      <trkpt lat="42.93399" lon="1.84255">
        <ele>557.22143554688</ele>
        <time>2014-04-20T10:04:10Z</time>
      </trkpt>
      <trkpt lat="42.93396" lon="1.84269">
        <ele>555.779296875</ele>
        <time>2014-04-20T10:04:13Z</time>
      </trkpt>
      <trkpt lat="42.93394" lon="1.84282">
        <ele>554.81787109375</ele>
        <time>2014-04-20T10:04:17Z</time>
      </trkpt>
      <trkpt lat="42.93392" lon="1.84296">
        <ele>553.85668945312</ele>
        <time>2014-04-20T10:04:21Z</time>
      </trkpt>
      <trkpt lat="42.93391" lon="1.84299">
        <ele>553.3759765625</ele>
        <time>2014-04-20T10:04:22Z</time>
      </trkpt>
      <trkpt lat="42.93387" lon="1.84315">
        <ele>552.41455078125</ele>
        <time>2014-04-20T10:04:26Z</time>
      </trkpt>
      <trkpt lat="42.93385" lon="1.84329">
        <ele>551.93408203125</ele>
        <time>2014-04-20T10:04:29Z</time>
      </trkpt>
      <trkpt lat="42.93382" lon="1.84335">
        <ele>551.45336914062</ele>
        <time>2014-04-20T10:04:31Z</time>
      </trkpt>
      <trkpt lat="42.93379" lon="1.84346">
        <ele>550.01147460938</ele>
        <time>2014-04-20T10:04:34Z</time>
      </trkpt>
      <trkpt lat="42.93376" lon="1.84364">
        <ele>549.53076171875</ele>
        <time>2014-04-20T10:04:39Z</time>
      </trkpt>
      <trkpt lat="42.9338" lon="1.84369">
        <ele>548.0888671875</ele>
        <time>2014-04-20T10:04:46Z</time>
      </trkpt>
      <trkpt lat="42.93384" lon="1.84375">
        <ele>549.05004882812</ele>
        <time>2014-04-20T10:04:53Z</time>
      </trkpt>
      <trkpt lat="42.93389" lon="1.8438">
        <ele>553.3759765625</ele>
        <time>2014-04-20T10:05:00Z</time>
      </trkpt>
      <trkpt lat="42.93393" lon="1.84382">
        <ele>553.3759765625</ele>
        <time>2014-04-20T10:05:05Z</time>
      </trkpt>
      <trkpt lat="42.93396" lon="1.84383">
        <ele>555.779296875</ele>
        <time>2014-04-20T10:05:11Z</time>
      </trkpt>
      <trkpt lat="42.934" lon="1.84385">
        <ele>558.66333007812</ele>
        <time>2014-04-20T10:05:18Z</time>
      </trkpt>
      <trkpt lat="42.93404" lon="1.84387">
        <ele>560.5859375</ele>
        <time>2014-04-20T10:05:23Z</time>
      </trkpt>
      <trkpt lat="42.93409" lon="1.84388">
        <ele>562.9892578125</ele>
        <time>2014-04-20T10:05:30Z</time>
      </trkpt>
      <trkpt lat="42.93412" lon="1.84389">
        <ele>565.392578125</ele>
        <time>2014-04-20T10:05:35Z</time>
      </trkpt>
      <trkpt lat="42.93416" lon="1.84391">
        <ele>567.31518554688</ele>
        <time>2014-04-20T10:05:40Z</time>
      </trkpt>
      <trkpt lat="42.93422" lon="1.84392">
        <ele>568.75708007812</ele>
        <time>2014-04-20T10:05:47Z</time>
      </trkpt>
      <trkpt lat="42.93426" lon="1.84393">
        <ele>569.23779296875</ele>
        <time>2014-04-20T10:05:54Z</time>
      </trkpt>
      <trkpt lat="42.93432" lon="1.84394">
        <ele>570.19897460938</ele>
        <time>2014-04-20T10:06:00Z</time>
      </trkpt>
      <trkpt lat="42.93436" lon="1.84397">
        <ele>572.12182617188</ele>
        <time>2014-04-20T10:06:05Z</time>
      </trkpt>
      <trkpt lat="42.9344" lon="1.844">
        <ele>574.52514648438</ele>
        <time>2014-04-20T10:06:11Z</time>
      </trkpt>
      <trkpt lat="42.93444" lon="1.844">
        <ele>575.96704101562</ele>
        <time>2014-04-20T10:06:17Z</time>
      </trkpt>
      <trkpt lat="42.93448" lon="1.84402">
        <ele>577.8896484375</ele>
        <time>2014-04-20T10:06:22Z</time>
      </trkpt>
      <trkpt lat="42.93451" lon="1.84405">
        <ele>577.8896484375</ele>
        <time>2014-04-20T10:06:28Z</time>
      </trkpt>
      <trkpt lat="42.93453" lon="1.84406">
        <ele>580.29296875</ele>
        <time>2014-04-20T10:06:33Z</time>
      </trkpt>
      <trkpt lat="42.93459" lon="1.84409">
        <ele>579.33154296875</ele>
        <time>2014-04-20T10:06:40Z</time>
      </trkpt>
      <trkpt lat="42.93462" lon="1.84412">
        <ele>580.77368164062</ele>
        <time>2014-04-20T10:06:48Z</time>
      </trkpt>
      <trkpt lat="42.93462" lon="1.84417">
        <ele>581.73486328125</ele>
        <time>2014-04-20T10:06:54Z</time>
      </trkpt>
      <trkpt lat="42.93463" lon="1.84423">
        <ele>580.29296875</ele>
        <time>2014-04-20T10:07:00Z</time>
      </trkpt>
      <trkpt lat="42.93465" lon="1.84435">
        <ele>582.21557617188</ele>
        <time>2014-04-20T10:07:06Z</time>
      </trkpt>
      <trkpt lat="42.93467" lon="1.84439">
        <ele>583.1767578125</ele>
        <time>2014-04-20T10:07:09Z</time>
      </trkpt>
      <trkpt lat="42.93468" lon="1.84444">
        <ele>583.65747070312</ele>
        <time>2014-04-20T10:07:13Z</time>
      </trkpt>
      <trkpt lat="42.93469" lon="1.84453">
        <ele>587.02197265625</ele>
        <time>2014-04-20T10:07:18Z</time>
      </trkpt>
      <trkpt lat="42.9347" lon="1.84465">
        <ele>591.34814453125</ele>
        <time>2014-04-20T10:07:26Z</time>
      </trkpt>
      <trkpt lat="42.93474" lon="1.84476">
        <ele>595.67407226562</ele>
        <time>2014-04-20T10:07:34Z</time>
      </trkpt>
      <trkpt lat="42.93476" lon="1.8448">
        <ele>597.5966796875</ele>
        <time>2014-04-20T10:07:37Z</time>
      </trkpt>
      <trkpt lat="42.93478" lon="1.84484">
        <ele>599.03857421875</ele>
        <time>2014-04-20T10:07:41Z</time>
      </trkpt>
      <trkpt lat="42.93479" lon="1.84488">
        <ele>600.48071289062</ele>
        <time>2014-04-20T10:07:44Z</time>
      </trkpt>
      <trkpt lat="42.9348" lon="1.84493">
        <ele>600.96118164062</ele>
        <time>2014-04-20T10:07:49Z</time>
      </trkpt>
      <trkpt lat="42.93483" lon="1.84498">
        <ele>600.48071289062</ele>
        <time>2014-04-20T10:07:54Z</time>
      </trkpt>
      <trkpt lat="42.93486" lon="1.84505">
        <ele>602.8837890625</ele>
        <time>2014-04-20T10:08:02Z</time>
      </trkpt>
      <trkpt lat="42.93488" lon="1.84513">
        <ele>604.326171875</ele>
        <time>2014-04-20T10:08:08Z</time>
      </trkpt>
      <trkpt lat="42.9349" lon="1.84519">
        <ele>606.24853515625</ele>
        <time>2014-04-20T10:08:14Z</time>
      </trkpt>
      <trkpt lat="42.93491" lon="1.84523">
        <ele>606.24853515625</ele>
        <time>2014-04-20T10:08:20Z</time>
      </trkpt>
      <trkpt lat="42.93493" lon="1.84529">
        <ele>606.24853515625</ele>
        <time>2014-04-20T10:08:26Z</time>
      </trkpt>
      <trkpt lat="42.93497" lon="1.84537">
        <ele>608.65185546875</ele>
        <time>2014-04-20T10:08:34Z</time>
      </trkpt>
      <trkpt lat="42.93501" lon="1.84544">
        <ele>608.65185546875</ele>
        <time>2014-04-20T10:08:42Z</time>
      </trkpt>
      <trkpt lat="42.93503" lon="1.8455">
        <ele>611.53588867188</ele>
        <time>2014-04-20T10:08:47Z</time>
      </trkpt>
      <trkpt lat="42.93505" lon="1.84553">
        <ele>612.0166015625</ele>
        <time>2014-04-20T10:08:49Z</time>
      </trkpt>
      <trkpt lat="42.93509" lon="1.84561">
        <ele>613.45849609375</ele>
        <time>2014-04-20T10:08:56Z</time>
      </trkpt>
      <trkpt lat="42.93509" lon="1.84562">
        <ele>613.93896484375</ele>
        <time>2014-04-20T10:08:57Z</time>
      </trkpt>
      <trkpt lat="42.93512" lon="1.8457">
        <ele>615.38110351562</ele>
        <time>2014-04-20T10:09:05Z</time>
      </trkpt>
      <trkpt lat="42.93512" lon="1.84578">
        <ele>616.34228515625</ele>
        <time>2014-04-20T10:09:11Z</time>
      </trkpt>
      <trkpt lat="42.93512" lon="1.8458">
        <ele>616.34228515625</ele>
        <time>2014-04-20T10:09:12Z</time>
      </trkpt>
      <trkpt lat="42.93511" lon="1.84589">
        <ele>617.3037109375</ele>
        <time>2014-04-20T10:09:18Z</time>
      </trkpt>
      <trkpt lat="42.93509" lon="1.84607">
        <ele>618.26489257812</ele>
        <time>2014-04-20T10:09:25Z</time>
      </trkpt>
      <trkpt lat="42.9351" lon="1.84623">
        <ele>618.26489257812</ele>
        <time>2014-04-20T10:09:31Z</time>
      </trkpt>
      <trkpt lat="42.9351" lon="1.8463">
        <ele>618.74560546875</ele>
        <time>2014-04-20T10:09:33Z</time>
      </trkpt>
      <trkpt lat="42.93512" lon="1.84636">
        <ele>618.74560546875</ele>
        <time>2014-04-20T10:09:35Z</time>
      </trkpt>
      <trkpt lat="42.93517" lon="1.84645">
        <ele>618.74560546875</ele>
        <time>2014-04-20T10:09:41Z</time>
      </trkpt>
      <trkpt lat="42.93517" lon="1.84653">
        <ele>618.26489257812</ele>
        <time>2014-04-20T10:09:45Z</time>
      </trkpt>
      <trkpt lat="42.93521" lon="1.84662">
        <ele>617.7841796875</ele>
        <time>2014-04-20T10:09:49Z</time>
      </trkpt>
      <trkpt lat="42.93523" lon="1.84664">
        <ele>619.22631835938</ele>
        <time>2014-04-20T10:09:53Z</time>
      </trkpt>
      <trkpt lat="42.93526" lon="1.84669">
        <ele>622.59106445312</ele>
        <time>2014-04-20T10:10:01Z</time>
      </trkpt>
      <trkpt lat="42.9353" lon="1.84674">
        <ele>624.03295898438</ele>
        <time>2014-04-20T10:10:06Z</time>
      </trkpt>
      <trkpt lat="42.93532" lon="1.8468">
        <ele>625.47485351562</ele>
        <time>2014-04-20T10:10:11Z</time>
      </trkpt>
      <trkpt lat="42.93534" lon="1.84683">
        <ele>625.47485351562</ele>
        <time>2014-04-20T10:10:14Z</time>
      </trkpt>
      <trkpt lat="42.93537" lon="1.84693">
        <ele>625.47485351562</ele>
        <time>2014-04-20T10:10:19Z</time>
      </trkpt>
      <trkpt lat="42.93539" lon="1.84699">
        <ele>625.47485351562</ele>
        <time>2014-04-20T10:10:21Z</time>
      </trkpt>
      <trkpt lat="42.9354" lon="1.84705">
        <ele>625.95556640625</ele>
        <time>2014-04-20T10:10:24Z</time>
      </trkpt>
      <trkpt lat="42.93535" lon="1.84721">
        <ele>625.47485351562</ele>
        <time>2014-04-20T10:10:29Z</time>
      </trkpt>
      <trkpt lat="42.93535" lon="1.84731">
        <ele>623.55249023438</ele>
        <time>2014-04-20T10:10:34Z</time>
      </trkpt>
      <trkpt lat="42.93533" lon="1.84734">
        <ele>621.62963867188</ele>
        <time>2014-04-20T10:10:37Z</time>
      </trkpt>
      <trkpt lat="42.93531" lon="1.84734">
        <ele>620.66845703125</ele>
        <time>2014-04-20T10:10:39Z</time>
      </trkpt>
      <trkpt lat="42.93528" lon="1.84738">
        <ele>616.34228515625</ele>
        <time>2014-04-20T10:10:44Z</time>
      </trkpt>
      <trkpt lat="42.93529" lon="1.84748">
        <ele>613.45849609375</ele>
        <time>2014-04-20T10:10:50Z</time>
      </trkpt>
      <trkpt lat="42.93524" lon="1.84753">
        <ele>611.05517578125</ele>
        <time>2014-04-20T10:10:54Z</time>
      </trkpt>
      <trkpt lat="42.93518" lon="1.84756">
        <ele>608.17138671875</ele>
        <time>2014-04-20T10:10:59Z</time>
      </trkpt>
      <trkpt lat="42.93513" lon="1.84761">
        <ele>604.326171875</ele>
        <time>2014-04-20T10:11:05Z</time>
      </trkpt>
      <trkpt lat="42.93513" lon="1.84765">
        <ele>602.8837890625</ele>
        <time>2014-04-20T10:11:07Z</time>
      </trkpt>
      <trkpt lat="42.93514" lon="1.84771">
        <ele>601.44189453125</ele>
        <time>2014-04-20T10:11:09Z</time>
      </trkpt>
      <trkpt lat="42.9351" lon="1.84776">
        <ele>598.07739257812</ele>
        <time>2014-04-20T10:11:14Z</time>
      </trkpt>
      <trkpt lat="42.93507" lon="1.8478">
        <ele>596.15478515625</ele>
        <time>2014-04-20T10:11:17Z</time>
      </trkpt>
      <trkpt lat="42.93501" lon="1.8478">
        <ele>593.75146484375</ele>
        <time>2014-04-20T10:11:21Z</time>
      </trkpt>
      <trkpt lat="42.93497" lon="1.84782">
        <ele>591.34814453125</ele>
        <time>2014-04-20T10:11:24Z</time>
      </trkpt>
      <trkpt lat="42.93494" lon="1.84782">
        <ele>588.94506835938</ele>
        <time>2014-04-20T10:11:27Z</time>
      </trkpt>
      <trkpt lat="42.93492" lon="1.84784">
        <ele>587.50268554688</ele>
        <time>2014-04-20T10:11:29Z</time>
      </trkpt>
      <trkpt lat="42.9349" lon="1.84792">
        <ele>584.13818359375</ele>
        <time>2014-04-20T10:11:35Z</time>
      </trkpt>
      <trkpt lat="42.93487" lon="1.84798">
        <ele>583.1767578125</ele>
        <time>2014-04-20T10:11:39Z</time>
      </trkpt>
      <trkpt lat="42.93482" lon="1.848">
        <ele>582.21557617188</ele>
        <time>2014-04-20T10:11:43Z</time>
      </trkpt>
      <trkpt lat="42.9348" lon="1.84799">
        <ele>581.73486328125</ele>
        <time>2014-04-20T10:11:44Z</time>
      </trkpt>
      <trkpt lat="42.93475" lon="1.84797">
        <ele>579.81225585938</ele>
        <time>2014-04-20T10:11:47Z</time>
      </trkpt>
      <trkpt lat="42.93467" lon="1.84794">
        <ele>577.8896484375</ele>
        <time>2014-04-20T10:11:52Z</time>
      </trkpt>
      <trkpt lat="42.93466" lon="1.84793">
        <ele>576.92846679688</ele>
        <time>2014-04-20T10:11:53Z</time>
      </trkpt>
      <trkpt lat="42.93457" lon="1.84796">
        <ele>574.04443359375</ele>
        <time>2014-04-20T10:11:59Z</time>
      </trkpt>
      <trkpt lat="42.93456" lon="1.84798">
        <ele>573.08325195312</ele>
        <time>2014-04-20T10:12:00Z</time>
      </trkpt>
      <trkpt lat="42.93452" lon="1.84803">
        <ele>568.75708007812</ele>
        <time>2014-04-20T10:12:05Z</time>
      </trkpt>
      <trkpt lat="42.93451" lon="1.84804">
        <ele>568.2763671875</ele>
        <time>2014-04-20T10:12:06Z</time>
      </trkpt>
      <trkpt lat="42.93448" lon="1.84809">
        <ele>565.392578125</ele>
        <time>2014-04-20T10:12:09Z</time>
      </trkpt>
      <trkpt lat="42.93446" lon="1.84814">
        <ele>562.50854492188</ele>
        <time>2014-04-20T10:12:12Z</time>
      </trkpt>
      <trkpt lat="42.93449" lon="1.84831">
        <ele>554.33740234375</ele>
        <time>2014-04-20T10:12:19Z</time>
      </trkpt>
      <trkpt lat="42.93451" lon="1.84835">
        <ele>550.4921875</ele>
        <time>2014-04-20T10:12:24Z</time>
      </trkpt>
      <trkpt lat="42.93454" lon="1.84844">
        <ele>547.12744140625</ele>
        <time>2014-04-20T10:12:29Z</time>
      </trkpt>
      <trkpt lat="42.93459" lon="1.84854">
        <ele>543.76281738281</ele>
        <time>2014-04-20T10:12:34Z</time>
      </trkpt>
      <trkpt lat="42.9346" lon="1.84858">
        <ele>543.28210449219</ele>
        <time>2014-04-20T10:12:36Z</time>
      </trkpt>
      <trkpt lat="42.93463" lon="1.84864">
        <ele>537.51428222656</ele>
        <time>2014-04-20T10:12:42Z</time>
      </trkpt>
      <trkpt lat="42.93464" lon="1.84867">
        <ele>536.55310058594</ele>
        <time>2014-04-20T10:12:44Z</time>
      </trkpt>
      <trkpt lat="42.93465" lon="1.84872">
        <ele>535.59155273438</ele>
        <time>2014-04-20T10:12:46Z</time>
      </trkpt>
      <trkpt lat="42.93472" lon="1.84881">
        <ele>534.14965820312</ele>
        <time>2014-04-20T10:12:50Z</time>
      </trkpt>
      <trkpt lat="42.93467" lon="1.84887">
        <ele>531.26574707031</ele>
        <time>2014-04-20T10:12:55Z</time>
      </trkpt>
      <trkpt lat="42.93458" lon="1.84892">
        <ele>528.3818359375</ele>
        <time>2014-04-20T10:13:01Z</time>
      </trkpt>
      <trkpt lat="42.93452" lon="1.84898">
        <ele>528.3818359375</ele>
        <time>2014-04-20T10:13:04Z</time>
      </trkpt>
      <trkpt lat="42.93443" lon="1.84905">
        <ele>525.49780273438</ele>
        <time>2014-04-20T10:13:09Z</time>
      </trkpt>
      <trkpt lat="42.93435" lon="1.84906">
        <ele>521.65258789062</ele>
        <time>2014-04-20T10:13:14Z</time>
      </trkpt>
      <trkpt lat="42.93427" lon="1.84909">
        <ele>518.7685546875</ele>
        <time>2014-04-20T10:13:18Z</time>
      </trkpt>
      <trkpt lat="42.93412" lon="1.84899">
        <ele>521.17199707031</ele>
        <time>2014-04-20T10:13:23Z</time>
      </trkpt>
      <trkpt lat="42.93397" lon="1.84892">
        <ele>522.13317871094</ele>
        <time>2014-04-20T10:13:28Z</time>
      </trkpt>
      <trkpt lat="42.93388" lon="1.84886">
        <ele>522.13317871094</ele>
        <time>2014-04-20T10:13:32Z</time>
      </trkpt>
      <trkpt lat="42.93384" lon="1.84886">
        <ele>523.09460449219</ele>
        <time>2014-04-20T10:13:35Z</time>
      </trkpt>
      <trkpt lat="42.93382" lon="1.84898">
        <ele>522.13317871094</ele>
        <time>2014-04-20T10:13:40Z</time>
      </trkpt>
      <trkpt lat="42.93394" lon="1.84911">
        <ele>522.61389160156</ele>
        <time>2014-04-20T10:13:45Z</time>
      </trkpt>
      <trkpt lat="42.93407" lon="1.84924">
        <ele>523.09460449219</ele>
        <time>2014-04-20T10:13:50Z</time>
      </trkpt>
      <trkpt lat="42.93424" lon="1.84936">
        <ele>525.01721191406</ele>
        <time>2014-04-20T10:13:56Z</time>
      </trkpt>
      <trkpt lat="42.93435" lon="1.84944">
        <ele>524.53649902344</ele>
        <time>2014-04-20T10:14:00Z</time>
      </trkpt>
      <trkpt lat="42.9344" lon="1.84948">
        <ele>524.53649902344</ele>
        <time>2014-04-20T10:14:02Z</time>
      </trkpt>
      <trkpt lat="42.93446" lon="1.84951">
        <ele>524.05578613281</ele>
        <time>2014-04-20T10:14:05Z</time>
      </trkpt>
      <trkpt lat="42.93446" lon="1.84951">
        <ele>523.5751953125</ele>
        <time>2014-04-20T10:14:14Z</time>
      </trkpt>
      <trkpt lat="42.93447" lon="1.84952">
        <ele>522.61389160156</ele>
        <time>2014-04-20T10:14:19Z</time>
      </trkpt>
    </trkseg>
  </trk>
</gpx>